[[{"header":{"parameterUnit":"m.s-1","parameterCategory":1,"la1":30.6,"la2":28.766,"lo1":-90.7593,"lo2":-88.6598,"dy":0.0162,"dx":0.0183,"nx":116,"ny":114,"refTime":"2023-11-21T18:00:00:Z","depth":0,"parameterNumber":2,"parameterNumberName":"U-component_of_WINDS"},"data":[0.0,0.0,0.0,0.0,0.0,0.0,0.0,0.0,0.0,0.0,0.0,0.0,0.0,0.0,0.0,0.0,0.0,0.0,0.0,0.0,0.0,0.0,0.0,0.0,0.0,0.0,0.0,0.0,0.0,0.0,0.0,0.0,0.0,0.0,0.0,0.0,0.0,0.0,0.0,0.0,0.0,0.0,0.0,0.0,0.0,0.0,0.0,0.0,0.0,0.0,0.0,0.0,0.0,0.0,0.0,0.0,0.0,0.0,0.0,0.0,0.0,0.0,0.0,0.0,0.0,0.0,0.0,0.0,0.0,0.0,0.0,0.0,0.0,0.0,0.0,0.0,0.0,0.0,0.0,0.0,0.0,0.0,0.0,0.0,0.0,0.0,0.0,0.0,0.0,0.0,0.0,0.0,0.0,0.0,0.0,0.0,0.0,0.0,0.0,0.0,0.0,0.0,0.0,0.0,0.0,0.0,0.0,0.0,0.0,0.0,0.0,0.0,0.0,0.0,0.0,0.0,0.0,0.0,0.0,0.0,0.0,0.0,0.0,0.0,0.0,0.0,0.0,0.0,0.0,0.0,0.0,0.0,0.0,0.0,0.0,0.0,0.0,0.0,0.0,0.0,0.0,0.0,0.0,0.0,0.0,0.0,0.0,0.0,0.0,0.0,0.0,0.0,0.0,0.0,0.0,0.0,0.0,0.0,0.0,0.0,0.0,0.0,0.0,0.0,0.0,0.0,0.0,0.0,0.0,0.0,0.0,0.0,0.0,0.0,0.0,0.0,0.0,0.0,0.0,0.0,0.0,0.0,0.0,0.0,0.0,0.0,0.0,0.0,0.0,0.0,0.0,0.0,0.0,0.0,0.0,0.0,0.0,0.0,0.0,0.0,0.0,0.0,0.0,0.0,0.0,0.0,0.0,0.0,0.0,0.0,0.0,0.0,0.0,0.0,0.0,0.0,0.0,0.0,0.0,0.0,0.0,0.0,0.0,0.0,0.0,0.0,0.0,0.0,0.0,0.0,0.0,0.0,0.0,0.0,0.0,0.0,0.0,0.0,0.0,0.0,0.0,0.0,0.0,0.0,0.0,0.0,0.0,0.0,0.0,0.0,0.0,0.0,0.0,0.0,0.0,0.0,0.0,0.0,0.0,0.0,0.0,0.0,0.0,0.0,0.0,0.0,0.0,0.0,0.0,0.0,0.0,0.0,0.0,0.0,0.0,0.0,0.0,0.0,0.0,0.0,0.0,0.0,0.0,0.0,0.0,0.0,0.0,0.0,0.0,0.0,0.0,0.0,0.0,0.0,0.0,0.0,0.0,0.0,0.0,0.0,0.0,0.0,0.0,0.0,0.0,0.0,0.0,0.0,0.0,0.0,0.0,0.0,0.0,0.0,0.0,0.0,0.0,0.0,0.0,0.0,0.0,0.0,0.0,0.0,0.0,0.0,0.0,0.0,0.0,0.0,0.0,0.0,0.0,0.0,0.0,0.0,0.0,0.0,0.0,0.0,0.0,0.0,0.0,0.0,0.0,0.0,0.0,0.0,0.0,0.0,0.0,0.0,0.0,0.0,0.0,0.0,0.0,0.0,0.0,0.0,0.0,0.0,0.0,0.0,0.0,0.0,0.0,0.0,0.0,0.0,0.0,0.0,0.0,0.0,0.0,0.0,0.0,0.0,0.0,0.0,0.0,0.0,0.0,0.0,0.0,0.0,0.0,0.0,0.0,0.0,0.0,0.0,0.0,0.0,0.0,0.0,0.0,0.0,0.0,0.0,0.0,0.0,0.0,0.0,0.0,0.0,0.0,0.0,0.0,0.0,0.0,0.0,0.0,0.0,0.0,0.0,0.0,0.0,0.0,0.0,0.0,0.0,0.0,0.0,0.0,0.0,0.0,0.0,0.0,0.0,0.0,0.0,0.0,0.0,0.0,0.0,0.0,0.0,0.0,0.0,0.0,0.0,0.0,0.0,0.0,0.0,0.0,0.0,0.0,0.0,0.0,0.0,0.0,0.0,0.0,0.0,0.0,0.0,0.0,0.0,0.0,0.0,0.0,0.0,0.0,0.0,0.0,0.0,0.0,0.0,0.0,0.0,0.0,0.0,0.0,0.0,0.0,0.0,0.0,0.0,0.0,0.0,0.0,0.0,0.0,0.0,0.0,0.0,0.0,0.0,0.0,0.0,0.0,0.0,0.0,0.0,0.0,0.0,0.0,0.0,0.0,0.0,0.0,0.0,0.0,0.0,0.0,0.0,0.0,0.0,0.0,0.0,0.0,0.0,0.0,0.0,0.0,0.0,0.0,0.0,0.0,0.0,0.0,0.0,0.0,0.0,0.0,0.0,0.0,0.0,0.0,0.0,0.0,0.0,0.0,0.0,0.0,0.0,0.0,0.0,0.0,0.0,0.0,0.0,0.0,0.0,0.0,0.0,0.0,0.0,0.0,0.0,0.0,0.0,0.0,0.0,0.0,0.0,0.0,0.0,0.0,0.0,0.0,0.0,0.0,0.0,0.0,0.0,0.0,0.0,0.0,0.0,0.0,0.0,0.0,0.0,0.0,0.0,0.0,0.0,0.0,0.0,0.0,0.0,0.0,0.0,0.0,0.0,0.0,0.0,0.0,0.0,0.0,0.0,0.0,0.0,0.0,0.0,0.0,0.0,0.0,0.0,0.0,0.0,0.0,0.0,0.0,0.0,0.0,0.0,0.0,0.0,0.0,0.0,0.0,0.0,0.0,0.0,0.0,0.0,0.0,0.0,0.0,0.0,0.0,0.0,0.0,0.0,0.0,0.0,0.0,0.0,0.0,0.0,0.0,0.0,0.0,0.0,0.0,0.0,0.0,0.0,0.0,0.0,0.0,0.0,0.0,0.0,0.0,0.0,0.0,0.0,0.0,0.0,0.0,0.0,0.0,0.0,0.0,0.0,0.0,0.0,0.0,0.0,0.0,0.0,0.0,0.0,0.0,0.0,0.0,0.0,0.0,0.0,0.0,0.0,0.0,0.0,0.0,0.0,0.0,0.0,0.0,0.0,0.0,0.0,0.0,0.0,0.0,0.0,0.0,0.0,0.0,0.0,0.0,0.0,0.0,0.0,0.0,0.0,0.0,0.0,0.0,0.0,0.0,0.0,0.0,0.0,0.0,0.0,0.0,0.0,0.0,0.0,0.0,0.0,0.0,0.0,0.0,0.0,0.0,0.0,0.0,0.0,0.0,0.0,0.0,0.0,0.0,0.0,0.0,0.0,0.0,0.0,0.0,0.0,0.0,0.0,0.0,0.0,0.0,0.0,0.0,0.0,0.0,0.0,0.0,0.0,0.0,0.0,0.0,0.0,0.0,0.0,0.0,0.0,0.0,0.0,0.0,0.0,0.0,0.0,0.0,0.0,0.0,0.0,0.0,0.0,0.0,0.0,0.0,0.0,0.0,0.0,0.0,0.0,0.0,0.0,0.0,0.0,0.0,0.0,0.0,0.0,0.0,0.0,0.0,0.0,0.0,0.0,0.0,0.0,0.0,0.0,0.0,0.0,0.0,0.0,0.0,0.0,0.0,0.0,0.0,0.0,0.0,0.0,0.0,0.0,0.0,0.0,0.0,0.0,0.0,0.0,0.0,0.0,0.0,0.0,0.0,0.0,0.0,0.0,0.0,0.0,0.0,0.0,0.0,0.0,0.0,0.0,0.0,0.0,0.0,0.0,0.0,0.0,0.0,0.0,0.0,0.0,0.0,0.0,0.0,0.0,0.0,0.0,0.0,0.0,0.0,0.0,0.0,0.0,0.0,0.0,0.0,0.0,0.0,0.0,0.0,0.0,0.0,0.0,0.0,0.0,0.0,0.0,0.0,0.0,0.0,0.0,0.0,0.0,0.0,0.0,0.0,0.0,0.0,0.0,0.0,0.0,0.0,0.0,0.0,0.0,0.0,0.0,0.0,0.0,0.0,0.0,0.0,0.0,0.0,0.0,0.0,0.0,0.0,0.0,0.0,0.0,0.0,0.0,0.0,0.0,0.0,0.0,0.0,0.0,0.0,0.0,0.0,0.0,0.0,0.0,0.0,0.0,0.0,0.0,0.0,0.0,0.0,0.0,0.0,0.0,0.0,0.0,0.0,0.0,0.0,0.0,0.0,0.0,0.0,0.0,0.0,0.0,0.0,0.0,0.0,0.0,0.0,0.0,0.0,0.0,0.0,0.0,0.0,0.0,0.0,0.0,0.0,0.0,0.0,0.0,0.0,0.0,0.0,0.0,0.0,0.0,0.0,0.0,0.0,0.0,0.0,0.0,0.0,0.0,0.0,0.0,0.0,0.0,0.0,0.0,0.0,0.0,0.0,0.0,0.0,0.0,0.0,0.0,0.0,0.0,0.0,0.0,0.0,0.0,0.0,0.0,0.0,0.0,0.0,0.0,0.0,0.0,0.0,0.0,0.0,0.0,0.0,0.0,0.0,0.0,0.0,0.0,0.0,0.0,0.0,0.0,0.0,0.0,0.0,0.0,0.0,0.0,0.0,0.0,0.0,0.0,0.0,0.0,0.0,0.0,0.0,0.0,0.0,0.0,0.0,0.0,0.0,0.0,0.0,0.0,0.0,0.0,0.0,0.0,0.0,0.0,0.0,0.0,0.0,0.0,0.0,0.0,0.0,0.0,0.0,0.0,0.0,0.0,0.0,0.0,0.0,0.0,0.0,0.0,0.0,0.0,0.0,0.0,0.0,0.0,0.0,0.0,0.0,0.0,0.0,0.0,0.0,0.0,0.0,0.0,0.0,0.0,0.0,0.0,0.0,0.0,0.0,0.0,0.0,0.0,0.0,0.0,0.0,0.0,0.0,0.0,0.0,0.0,0.0,0.0,0.0,0.0,0.0,0.0,0.0,0.0,0.0,0.0,0.0,0.0,0.0,0.0,0.0,0.0,0.0,0.0,0.0,0.0,0.0,0.0,0.0,0.0,0.0,0.0,0.0,0.0,0.0,0.0,0.0,0.0,0.0,0.0,0.0,0.0,0.0,0.0,0.0,0.0,0.0,0.0,0.0,0.0,0.0,0.0,0.0,0.0,0.0,0.0,0.0,0.0,0.0,0.0,0.0,0.0,0.0,0.0,0.0,0.0,0.0,0.0,0.0,0.0,0.0,0.0,0.0,0.0,0.0,0.0,0.0,0.0,0.0,0.0,0.0,0.0,0.0,0.0,0.0,0.0,0.0,0.0,0.0,0.0,0.0,0.0,0.0,0.0,0.0,0.0,0.0,0.0,0.0,0.0,0.0,0.0,0.0,0.0,0.0,0.0,0.0,0.0,0.0,0.0,0.0,0.0,0.0,0.0,0.0,0.0,0.0,0.0,0.0,0.0,0.0,0.0,0.0,0.0,0.0,0.0,0.0,0.0,0.0,0.0,0.0,0.0,0.0,0.0,0.0,0.0,0.0,0.0,0.0,0.0,0.0,0.0,0.0,0.0,0.0,0.0,0.0,0.0,0.0,0.0,0.0,0.0,0.0,0.0,0.0,0.0,0.0,0.0,0.0,0.0,0.0,0.0,0.0,0.0,0.0,0.0,0.0,0.0,0.0,0.0,0.0,0.0,0.0,0.0,0.0,0.0,0.0,0.0,0.0,0.0,0.0,0.0,0.0,0.0,0.0,0.0,0.0,0.0,0.0,0.0,0.0,0.0,0.0,0.0,0.0,0.0,0.0,0.0,0.0,0.0,0.0,0.0,0.0,0.0,0.0,0.0,0.0,0.0,0.0,0.0,0.0,0.0,0.0,0.0,0.0,0.0,0.0,0.0,0.0,0.0,0.0,0.0,0.0,0.0,0.0,0.0,0.0,0.0,0.0,0.0,0.0,0.0,0.0,0.0,0.0,0.0,0.0,0.0,0.0,0.0,0.0,0.0,0.0,0.0,0.0,0.0,0.0,0.0,0.0,0.0,0.0,0.0,0.0,0.0,0.0,0.0,0.0,0.0,0.0,0.0,0.0,0.0,0.0,0.0,0.0,0.0,0.0,0.0,0.0,0.0,0.0,0.0,0.0,0.0,0.0,0.0,0.0,0.0,0.0,0.0,0.0,0.0,0.0,0.0,0.0,0.0,0.0,0.0,0.0,0.0,0.0,0.0,0.0,0.0,0.8639,0.8673,0.0,0.0,0.0,0.0,0.0,0.0,0.0,0.0,0.0,0.0,0.0,0.0,0.0,0.0,0.0,0.0,0.0,0.0,0.0,0.0,0.0,0.0,0.0,0.0,0.0,0.0,0.0,0.0,0.0,0.0,0.0,0.0,0.0,0.0,0.0,0.0,2.9456,2.9456,2.8985,2.8396,0.0,0.0,0.0,0.0,0.0,0.0,0.0,0.0,0.0,0.0,0.0,0.0,0.0,0.0,0.0,0.0,0.0,0.0,0.0,0.0,0.0,0.0,0.0,0.0,0.0,0.0,0.0,0.0,0.0,0.0,0.0,0.0,0.0,0.0,0.0,0.0,0.0,0.0,0.0,0.0,0.0,0.0,0.0,0.0,0.0,0.0,0.0,0.0,0.0,0.0,0.0,0.0,0.0,0.0,0.0,0.0,0.0,0.0,0.0,0.0,0.0,0.0,0.0,0.0,0.0,0.0,0.0,0.0,0.0,0.0,0.0,0.0,0.0,0.0,0.8662,0.87,0.0,0.0,0.0,0.0,0.0,0.0,0.0,0.0,0.0,0.0,0.0,0.0,0.0,0.0,0.0,0.0,0.0,0.0,0.0,0.0,0.0,0.0,0.0,2.6953,2.6949,2.6625,2.6647,2.6705,2.6705,2.7353,2.7702,2.7605,2.8669,2.9186,2.9117,2.9807,3.0146,3.0102,2.9509,2.8817,0.0,0.0,0.0,0.0,0.0,0.0,0.0,0.0,0.0,0.0,0.0,0.0,0.0,0.0,0.0,0.0,0.0,0.0,0.0,0.0,0.0,0.0,0.0,0.0,0.0,0.0,0.0,0.0,0.0,0.0,0.0,0.0,0.0,0.0,0.0,0.0,0.0,0.0,0.0,0.0,0.0,0.0,0.0,0.0,0.0,0.0,0.0,0.0,0.0,0.0,0.0,0.0,0.0,0.0,0.0,0.0,0.0,0.0,0.0,0.0,0.0,0.0,0.0,0.0,0.0,0.0,0.0,0.0,0.9767,0.9561,0.884,0.866,0.8612,0.8612,0.8612,0.8472,0.8332,0.9109,0.0,0.0,0.0,0.0,0.0,0.0,0.0,0.0,0.0,0.0,0.0,0.0,0.0,0.0,0.0,0.0,0.0,0.0,0.0,0.0,0.0,2.6453,2.6146,2.6092,2.6453,2.6694,2.6694,2.7767,2.8154,2.7609,2.826,2.8388,2.7927,2.8518,2.8757,2.8602,2.8794,2.8417,2.759,2.809,2.8074,2.761,2.6716,0.0,0.0,0.0,0.0,0.0,0.0,0.0,0.0,0.0,0.0,0.0,0.0,0.0,0.0,0.0,0.0,0.0,0.0,0.0,0.0,0.0,0.0,0.0,0.0,0.0,0.0,0.0,0.0,0.0,0.0,0.0,0.0,0.0,0.0,0.0,0.0,0.0,0.0,0.0,0.0,0.0,0.0,0.0,1.5258,1.5258,0.0,0.0,0.0,0.0,0.0,0.0,0.0,0.0,0.0,0.0,0.0,0.0,0.0,1.1771,1.163,1.1722,1.1619,1.1308,1.0601,1.0061,0.9719,0.8937,0.8612,0.8612,0.8612,0.0,0.8564,0.8696,0.0,0.0,0.0,0.0,0.0,0.0,0.0,0.0,0.0,0.0,0.0,0.0,0.0,0.0,0.0,0.0,0.0,0.0,0.0,0.0,0.0,2.6147,2.6106,2.5965,2.6431,2.6744,2.6744,2.7918,2.8492,2.8226,2.9476,2.9911,2.9275,2.9777,2.958,2.8578,2.8739,2.8352,2.749,2.7809,2.7842,2.7597,2.715,2.6916,2.6814,2.6814,0.0,0.0,0.0,0.0,0.0,0.0,0.0,0.0,0.0,0.0,0.0,0.0,0.0,0.0,0.0,0.0,0.0,0.0,0.0,0.0,0.0,0.0,0.0,0.0,0.0,0.0,0.0,0.0,0.0,0.0,0.0,0.0,0.0,0.0,0.0,0.0,0.0,0.0,0.0,1.5389,1.5389,1.5389,1.5389,1.5389,0.0,0.0,0.0,0.0,0.0,0.0,0.0,0.0,0.0,1.2974,1.309,1.2915,1.2389,1.2247,1.2214,1.2304,1.1017,1.047,1.047,0.9398,0.8888,0.8897,0.8874,0.8865,0.8898,0.9207,0.9029,0.8656,0.0,0.0,0.0,0.0,0.871,0.8723,0.0,0.0,0.0,0.0,0.0,0.0,0.0,0.0,0.0,0.0,0.0,0.0,2.585,2.6193,2.6366,2.6161,2.6687,2.7023,2.7023,2.8063,2.8672,2.8672,2.9994,3.0524,3.0009,3.027,2.9813,2.8546,2.8675,2.8287,2.749,2.7689,2.7656,2.749,2.749,2.7433,2.7266,2.7266,2.7078,0.0,0.0,0.0,0.0,0.0,0.0,0.0,0.0,0.0,0.0,0.0,0.0,0.0,0.0,0.0,0.0,0.0,0.0,0.0,0.0,0.0,0.0,0.0,0.0,0.0,0.0,0.0,0.0,0.0,0.0,0.0,0.0,0.0,0.0,0.0,0.0,0.0,0.0,1.5389,1.5389,1.5389,1.5389,1.5389,0.0,0.0,0.0,0.0,0.0,0.0,1.4796,1.4949,1.4638,1.3714,1.3867,1.3638,1.2967,1.2776,1.2733,1.2924,1.1513,1.0935,1.1046,0.979,0.9216,0.9187,0.912,0.9099,0.912,0.9537,0.9312,0.8792,0.9447,0.9318,0.8718,0.8844,0.8869,0.8914,0.0,0.0,0.0,0.0,0.0,0.0,0.0,0.0,0.0,0.0,0.0,2.7031,2.6758,2.6755,2.6782,2.6752,2.7325,2.7664,2.7664,2.8239,2.861,2.861,2.8702,2.8748,2.8716,2.8392,2.8118,2.7842,2.8287,2.8157,2.749,2.8157,2.8105,2.749,2.749,2.7477,2.7484,2.7484,2.7683,2.8019,0.0,0.0,0.0,0.0,0.0,0.0,0.0,0.0,0.0,0.0,0.0,0.0,0.0,0.0,0.0,0.0,0.0,0.0,0.0,0.0,0.0,0.0,0.0,0.0,0.0,0.0,0.0,0.0,0.0,0.0,0.0,0.0,0.0,0.0,0.0,0.0,0.0,0.0,0.0,1.5389,1.5389,0.0,0.0,0.0,0.0,1.5827,1.5849,1.5584,1.5016,1.4979,1.4572,1.3644,1.3686,1.3699,1.3651,1.3651,1.3513,1.3243,1.2243,1.1625,1.1339,1.0038,0.9473,0.9473,0.9235,0.9118,0.91,0.9125,0.9118,0.9072,0.9118,0.9114,0.9072,0.908,0.9103,0.9067,0.0,0.0,0.0,0.0,0.0,0.0,0.0,0.0,2.7106,2.6901,2.693,2.69,2.6823,2.7131,2.7393,2.7393,2.7936,2.8275,2.8275,2.8838,2.9188,2.9188,2.9608,2.9577,2.9071,2.8425,2.8,2.7809,2.7842,2.7723,2.749,2.7756,2.7723,2.749,2.749,2.749,2.749,2.749,2.7603,2.7736,2.7855,2.7987,0.0,0.0,0.0,0.0,0.0,0.0,0.0,0.0,0.0,0.0,0.0,0.0,0.0,0.0,0.0,0.0,0.0,0.0,0.0,0.0,0.0,0.0,0.0,0.0,0.0,0.0,0.0,0.0,0.0,0.0,0.0,0.0,0.0,0.0,0.0,0.0,0.0,1.5943,1.6128,0.0,1.6081,1.603,1.6082,1.6199,1.6206,1.5825,1.4925,1.4887,1.4405,1.3449,1.4069,1.4096,1.3444,1.408,1.4132,1.3603,1.3101,1.2877,1.3013,1.2346,1.2082,1.2088,1.1978,1.1535,1.0894,1.0779,1.0052,0.9096,0.9096,0.9096,0.9112,0.9222,0.9282,0.9317,0.0,0.0,0.0,0.0,0.0,0.0,0.0,0.0,2.7656,2.7536,2.7469,2.742,2.742,2.7773,2.8003,2.8003,2.837,2.8587,2.8587,2.8962,2.9188,2.9188,2.9563,2.947,2.8803,2.8281,2.7901,2.7689,2.7556,2.749,2.749,2.749,2.749,2.749,2.749,2.749,2.749,2.749,2.739,2.7242,2.7377,2.7297,2.7048,0.0,0.0,0.0,0.0,0.0,0.0,0.0,0.0,0.0,0.0,0.0,0.0,0.0,0.0,0.0,0.0,0.0,0.0,0.0,0.0,0.0,0.0,0.0,0.0,0.0,0.0,0.0,0.0,0.0,0.0,0.0,0.0,0.0,0.0,1.64,1.6449,1.6312,1.6513,1.6603,1.6419,1.6411,1.6455,1.6565,1.6573,1.6323,1.5688,1.5655,1.5332,1.4671,1.5323,1.5297,1.4665,1.5284,1.5415,1.4953,1.4469,1.4339,1.4521,1.3915,1.3426,1.3076,1.3009,1.2411,1.1361,1.1239,1.0492,0.9378,0.9326,0.9275,0.9291,0.9405,0.9445,0.9466,0.0,0.0,0.0,0.0,0.0,0.0,0.0,2.8474,2.8524,2.826,2.8456,2.8587,2.8587,2.8587,2.8587,2.8587,2.8587,2.8587,2.8587,2.8587,2.8587,2.8587,2.8398,2.817,2.7842,2.7809,2.7723,2.7523,2.7523,2.7536,2.749,2.749,2.749,2.749,2.749,2.749,2.749,2.749,2.7175,2.6663,2.6663,2.6321,2.5789,0.0,0.0,0.0,0.0,0.0,0.0,0.0,0.0,0.0,0.0,0.0,0.0,0.0,0.0,0.0,0.0,0.0,0.0,0.0,0.0,0.0,0.0,0.0,0.0,0.0,0.0,0.0,0.0,0.0,0.0,0.0,0.0,0.0,1.6588,1.647,1.6426,1.6426,1.6433,1.6441,1.6441,1.6441,1.6573,1.6895,1.6917,1.7004,1.7271,1.7293,1.7246,1.7239,1.7286,1.7293,1.7246,1.725,1.7267,1.7211,1.6277,1.5818,1.5779,1.4559,1.3426,1.2463,1.2236,1.1505,1.0548,1.0582,1.0359,1.0094,0.9731,0.9628,0.9579,0.9579,0.9579,0.9579,0.0,0.0,0.0,0.0,0.0,0.0,2.9583,2.9237,2.8945,2.885,2.8716,2.8587,2.8587,2.8587,2.8587,2.8587,2.8587,2.8587,2.8587,2.8587,2.8587,2.8587,2.8554,2.8476,2.8392,2.8235,2.8124,2.8072,2.7967,2.7868,2.7723,2.7723,2.7656,2.749,2.749,2.759,2.7676,2.731,2.6641,2.5881,2.6299,2.6114,2.5521,0.0,0.0,0.0,0.0,0.0,0.0,0.0,0.0,0.0,0.0,0.0,0.0,0.0,0.0,0.0,0.0,0.0,0.0,0.0,0.0,0.0,0.0,0.0,0.0,0.0,0.0,0.0,0.0,0.0,0.0,0.0,1.833,1.8096,1.7492,1.7463,1.7445,1.7303,1.7295,1.7261,1.7069,1.7062,1.7099,1.7186,1.7201,1.7026,1.6597,1.6566,1.6334,1.5777,1.6531,1.656,1.5761,1.6573,1.6571,1.5764,1.6283,1.6525,1.6523,1.604,1.604,1.6221,1.535,1.4706,1.4286,1.4124,1.3559,1.2643,1.0636,0.9776,0.9579,0.9579,0.9579,0.9579,0.0,0.0,0.0,0.0,0.0,0.0,3.031,2.9851,2.9477,2.932,2.9004,2.8748,2.8619,2.8587,2.8587,2.8587,2.8587,2.8587,2.8587,2.8587,2.8522,2.8406,2.8406,2.8295,2.8131,2.802,2.8093,2.8332,2.8259,2.829,2.8426,2.8528,2.8494,2.8392,2.8392,2.8281,2.8125,2.7421,2.6464,2.5405,2.5452,2.5052,2.4409,2.4095,2.407,2.407,2.3545,2.3335,2.3298,2.3075,0.0,0.0,0.0,0.0,0.0,0.0,0.0,0.0,0.0,0.0,0.0,0.0,0.0,0.0,0.0,0.0,0.0,0.0,0.0,0.0,0.0,0.0,0.0,0.0,1.8612,1.8509,1.8271,1.8075,1.7934,1.7835,1.7826,1.7761,1.7481,1.7599,1.7632,1.753,1.7655,1.7529,1.7158,1.7128,1.6943,1.6504,1.7117,1.7136,1.6489,1.7105,1.7127,1.6513,1.7143,1.7413,1.7407,1.7351,1.7316,1.7334,1.6677,1.6089,1.5501,1.476,1.4046,1.3236,0.0,0.0,0.0,0.0,0.9579,0.9579,0.0,0.0,0.0,0.0,0.0,0.0,3.0598,3.0325,2.9988,2.9634,2.932,2.8972,2.8651,2.8587,2.8587,2.8587,2.8587,2.8587,2.8587,2.8587,2.8471,2.8177,2.8211,2.8106,2.7728,2.7794,2.8069,2.8615,2.8615,2.8891,2.9345,2.9557,2.9579,2.9579,2.9579,2.9232,2.8594,2.7768,2.6618,2.5373,2.4619,2.3807,2.3001,2.3001,2.3034,2.3078,2.3078,2.3121,2.3176,2.309,0.0,0.0,0.0,0.0,0.0,0.0,0.0,0.0,0.0,0.0,0.0,0.0,0.0,0.0,0.0,0.0,0.0,0.0,0.0,0.0,0.0,0.0,0.0,0.0,1.8781,1.8781,1.8781,1.8458,1.8179,1.8133,1.8133,1.8009,1.7821,1.805,1.8182,1.7963,1.8187,1.8339,1.8401,1.8373,0.0,0.0,0.0,1.8428,1.8428,1.8428,1.8428,1.8428,1.8428,1.8428,1.8428,1.8251,1.7794,1.7016,1.6866,1.6347,1.544,1.4271,1.3454,1.2919,1.1829,1.1451,1.1298,1.0094,0.9628,0.9682,0.0,0.0,0.0,0.0,0.0,0.0,3.0598,3.0325,2.9988,2.9634,2.932,2.8972,2.8651,2.8587,2.8587,2.8587,2.8587,2.8587,2.8587,2.8587,2.8554,2.849,2.8982,2.9206,2.9093,2.9592,2.9902,3.0023,3.0023,2.9891,2.9684,2.9754,2.9614,2.9345,2.9345,2.8957,2.829,2.8066,2.7299,2.6241,2.5977,2.4702,2.3001,2.3001,2.3252,2.3553,2.3553,2.3853,2.4113,2.353,2.2906,2.2281,2.1738,0.0,0.0,0.0,0.0,0.0,0.0,0.0,0.0,0.0,0.0,0.0,0.0,0.0,0.0,0.0,0.0,0.0,0.0,0.0,0.0,1.8781,1.8781,1.8781,1.8781,1.8735,1.8604,1.8427,1.8234,1.8193,1.8421,1.8464,1.8609,1.8833,1.8705,1.8718,1.902,1.8838,1.8855,1.9079,1.9094,1.9094,1.9094,1.9094,1.9094,1.9094,1.9094,0.0,1.9086,1.8133,1.7959,1.8338,1.7459,1.731,1.7663,1.7425,1.6134,1.4054,1.1349,1.0407,1.0511,1.004,0.9941,1.0094,0.0,0.0,0.0,0.0,0.0,0.0,3.0598,3.0462,3.0219,2.9882,2.971,2.9477,2.9131,2.9099,2.9099,2.9099,2.894,2.8916,2.904,2.9034,2.9137,2.9335,2.9632,2.9781,2.9679,2.9989,3.0285,3.0559,3.0559,3.0601,3.0716,3.0788,3.0752,3.0572,3.0283,2.9796,2.9108,2.83,2.7316,2.6323,2.5874,2.4934,2.3782,2.3952,2.4183,2.4365,2.4182,2.4279,2.4407,2.3646,2.3135,2.2659,2.201,2.1485,2.1039,0.0,0.0,0.0,0.0,0.0,0.0,0.0,0.0,0.0,0.0,0.0,0.0,0.0,0.0,1.8781,0.0,0.0,1.8781,1.8781,1.8781,1.8781,1.8781,1.8986,1.9059,1.8973,1.8824,1.8808,1.9053,1.919,1.9318,1.9346,1.9391,1.9441,1.9439,1.9316,1.9258,1.9324,1.9279,1.9279,1.9279,1.9279,1.9279,1.9279,1.9279,1.9279,1.9272,1.8724,1.8672,1.9027,1.8435,1.8428,1.8731,1.8074,1.6697,1.4737,1.2442,1.1203,1.0636,1.0356,1.0319,1.0425,0.0,0.0,0.0,0.0,0.0,0.0,0.0,3.0598,3.0492,3.0142,3.008,2.9958,2.9634,2.9602,2.9659,2.9771,2.9567,2.9522,0.0,2.9726,2.9842,3.0144,3.0279,3.0277,3.0159,3.0279,3.0574,3.0971,3.0971,3.1225,3.1683,3.1817,3.189,3.1817,3.1211,3.06,2.9873,2.862,2.7442,2.6499,2.598,2.5571,2.5306,2.5571,2.5425,2.5071,2.4737,2.4683,2.4639,2.3789,2.336,2.3076,2.2274,2.1861,2.1696,2.1696,2.1696,0.0,0.0,0.0,0.0,0.0,0.0,0.0,0.0,0.0,1.892,1.8827,1.8781,1.8781,1.8781,1.8781,1.8781,1.8781,1.8781,1.8851,1.8923,1.9185,1.9471,1.9606,1.9558,1.955,1.9646,1.9936,2.0031,1.9849,2.0043,2.0086,1.9887,1.9783,1.9583,1.939,1.9331,1.9279,1.9279,1.9279,1.9279,1.9279,1.9279,1.9279,1.9279,1.9279,1.9279,1.9279,1.9279,1.9279,1.9212,1.8133,1.6775,1.5192,1.411,1.267,1.1235,1.085,1.0752,1.076,0.0,0.0,0.0,0.0,0.0,0.0,0.0,0.0,3.0492,3.0142,3.008,2.9958,2.9634,2.9602,2.9813,3.0365,3.0568,3.0729,3.073,3.0453,3.0337,3.037,3.0872,3.1156,3.1156,3.1671,3.197,3.2037,3.2037,3.1969,3.1853,3.189,3.178,3.1609,3.0999,3.0279,2.9475,2.9098,2.8457,2.7745,2.8012,2.8092,2.8012,2.7705,2.657,2.5168,2.5139,2.5371,2.5523,2.4215,2.3723,2.3514,2.2136,2.1704,2.1696,2.1696,0.0,2.1696,2.1696,2.1365,2.0907,2.0419,2.0246,2.0102,0.0,0.0,1.9371,1.892,1.8781,1.8781,1.8781,1.8781,1.8781,1.8781,1.8781,1.8939,1.9264,1.9391,1.9598,2.021,2.0052,1.9948,2.0247,2.0319,2.0469,2.0743,2.0542,2.0411,2.0411,1.9939,1.9702,1.9643,1.9398,1.9279,1.9279,1.9279,1.9279,1.9279,1.9279,1.9279,1.9279,1.9279,1.9279,1.9279,1.9279,1.9279,1.9272,1.9153,1.778,1.5796,1.567,1.4208,1.2147,1.1454,1.1331,1.1433,0.0,0.0,0.0,0.0,0.0,0.0,0.0,0.0,0.0,3.0401,3.0401,3.0485,3.069,3.1031,3.1297,3.1379,3.1241,0.0,3.1405,3.1116,3.1083,3.1422,3.168,3.1802,3.1802,3.2083,3.2218,3.2218,3.2218,3.2146,3.2073,3.2073,3.2036,3.189,3.0923,3.0254,2.9884,2.9079,2.8431,2.7933,2.8082,2.7978,2.7725,2.7574,2.7018,2.6348,2.6348,2.6061,0.0,0.0,2.3767,2.3038,2.2043,2.1696,2.1696,2.1696,2.1696,0.0,2.1696,2.1553,2.1365,2.115,2.0916,2.0645,2.0456,2.0184,1.9874,1.9371,1.9279,1.9188,1.8874,1.8781,1.8781,0.0,1.8781,1.8955,1.932,1.9582,1.9893,2.0337,2.0448,2.0535,2.0686,2.0702,2.0766,2.0909,2.0822,2.0668,2.0522,2.0285,2.0042,1.9695,1.9576,1.9457,1.9279,1.9279,1.9279,1.9279,1.9279,1.9279,1.9279,1.9279,1.9279,1.9279,1.9279,1.9279,1.9279,1.9279,1.8731,1.7748,1.6399,1.5325,1.4195,1.2382,1.1764,1.1791,0.0,0.0,0.0,0.0,0.0,0.0,0.0,0.0,0.0,0.0,3.0788,3.1151,3.1729,3.2382,3.2677,3.2436,3.2184,0.0,0.0,3.1893,3.1828,3.2191,3.2218,3.2218,3.2218,3.2218,3.2218,3.2218,3.2218,3.2218,3.2218,3.2218,3.2218,3.2132,3.0859,3.0279,3.0203,2.9,2.8311,2.8082,2.8082,2.7869,2.7551,2.7551,2.7551,2.751,2.7307,2.6588,0.0,0.0,2.3993,2.3178,2.2043,2.182,2.1963,2.1785,2.1696,2.1696,2.1696,2.1696,2.1696,2.1696,2.1454,2.1177,2.1042,2.0736,2.0329,1.9729,1.9592,1.9463,1.892,1.8781,1.8859,1.8962,1.8978,1.9137,1.959,1.986,2.0138,2.0496,2.0766,2.0925,2.0925,2.0925,2.0925,2.0925,2.0925,2.0822,2.0617,2.0526,2.0328,1.994,1.9836,1.9673,1.9398,1.9398,1.939,1.9279,1.9279,1.9279,1.9279,1.9279,1.9279,1.9279,1.9279,1.9279,1.9279,1.9279,1.9094,1.8648,1.6653,1.5737,1.5138,1.2905,1.2096,1.2096,0.0,0.0,0.0,0.0,0.0,0.0,0.0,0.0,0.0,0.0,0.0,0.0,0.0,3.3064,3.3474,3.3474,0.0,0.0,0.0,3.2889,3.2511,3.2205,3.2218,3.2218,3.2218,3.2218,3.2218,3.2218,3.2218,3.2218,3.2218,3.2218,3.2218,3.2132,3.0859,3.0279,3.0203,2.9,2.8471,2.8471,2.8471,2.8471,2.8471,2.8471,2.8471,2.8339,2.751,0.0,2.6268,2.4967,2.4637,2.4476,2.2344,2.2176,0.0,2.1919,2.1696,2.1696,2.1696,2.1696,2.1696,2.1696,2.1687,2.1553,2.1087,2.0997,2.0727,1.9774,1.9592,1.9463,1.892,1.8781,1.8947,1.9304,1.9399,1.959,2.0265,2.0369,2.0512,2.0861,2.0865,2.0925,0.0,2.0925,2.0925,2.0925,2.0925,2.0925,2.0873,2.0621,2.0467,2.047,2.0197,1.9954,1.9695,1.9695,1.9576,1.9279,1.9279,1.9279,1.9279,1.9279,1.9279,1.9279,1.9279,1.9279,1.9279,1.9279,1.8665,1.7538,1.6379,1.5217,1.4076,1.2846,1.2382,1.2327,0.0,0.0,0.0,0.0,0.0,0.0,0.0,0.0,0.0,0.0,0.0,0.0,0.0,0.0,0.0,0.0,0.0,0.0,0.0,3.3058,3.2632,3.2538,3.2314,3.2218,3.2218,3.2218,3.2218,3.2218,3.2218,3.2218,3.2218,3.2218,3.2218,3.2132,3.0859,3.0279,3.0203,2.9,2.851,2.851,2.851,2.851,2.851,2.851,2.851,2.8471,0.0,0.0,2.6618,2.6193,2.5189,2.4067,2.3428,2.3009,2.268,2.2557,2.23,2.208,2.208,2.1888,2.1696,2.1696,2.1696,2.1651,2.1508,2.1391,2.1158,2.0521,2.0351,2.0083,1.9606,1.9519,1.955,1.9726,1.975,1.9909,2.0329,2.0392,2.0527,2.0877,2.0925,0.0,0.0,0.0,2.0925,2.0925,2.0925,2.0925,2.0925,2.0806,2.0704,2.0522,2.0431,2.0174,1.9702,1.9724,1.9561,1.9279,1.9279,1.9279,1.9279,1.9279,1.9279,1.9279,1.9279,1.9279,1.9279,1.9279,1.9086,1.8547,1.6658,1.5671,1.5078,1.3138,1.2387,1.2382,0.0,0.0,0.0,0.0,0.0,0.0,0.0,0.0,0.0,0.0,0.0,0.0,0.0,0.0,0.0,0.0,0.0,3.3942,0.0,0.0,3.3058,3.2917,3.2717,3.2588,3.2588,3.2588,3.2588,3.2588,3.2444,3.2372,3.2372,3.2241,3.2059,3.1813,3.0746,3.0177,2.9909,2.8922,2.8619,2.8775,2.8595,2.8619,2.8775,2.8582,2.8631,0.0,0.0,0.0,2.7886,2.7307,2.6165,2.4982,2.4436,2.3611,2.276,2.2694,2.2492,2.2245,2.2108,2.1888,2.1723,2.187,2.1897,2.1943,2.2099,2.2042,2.1804,2.1148,2.0965,2.0692,2.0014,1.9917,1.9957,2.0084,2.01,2.0178,2.0535,2.0583,2.0662,2.0893,2.0925,2.0925,0.0,0.0,0.0,2.0925,2.0925,2.0925,2.0925,2.0925,2.0822,2.0676,2.0637,2.0372,1.9872,1.9849,1.965,1.9279,1.9279,1.9279,1.9279,1.9279,1.9279,1.9279,1.9279,1.9279,1.9279,1.9279,1.9279,1.9086,1.6775,1.6143,1.6157,1.343,1.2673,1.2965,0.0,0.0,0.0,0.0,0.0,0.0,0.0,0.0,0.0,0.0,0.0,0.0,0.0,0.0,0.0,0.0,0.0,0.0,0.0,0.0,0.0,3.3339,3.3304,3.3304,3.3304,3.3304,3.3304,3.3304,3.2917,3.2739,3.2739,3.2408,3.1936,3.1294,3.062,3.0024,2.9457,2.8816,2.8839,2.9249,2.8715,2.8823,2.9244,2.8739,0.0,0.0,0.0,0.0,2.9876,2.8272,2.7544,2.7005,2.5288,2.3903,2.2878,2.2428,2.2309,2.2227,2.1861,2.1751,2.1842,2.2309,2.2355,2.2419,2.2868,2.2922,2.26,2.1631,2.1408,2.1128,0.0,0.0,2.0076,2.0369,2.0416,2.0535,2.0877,2.0925,2.0925,0.0,0.0,0.0,0.0,0.0,0.0,2.0925,2.0925,2.0925,2.0925,2.0925,2.0925,2.0925,2.0925,2.0644,2.0099,2.0071,1.9776,1.9279,1.9279,1.9279,1.9279,1.9279,1.9279,1.9279,1.9279,1.9279,1.9279,1.9279,1.9279,1.9086,1.6775,1.6558,1.7114,1.3643,1.3123,1.3956,0.0,0.0,0.0,0.0,0.0,0.0,0.0,0.0,0.0,0.0,0.0,0.0,0.0,0.0,0.0,0.0,0.0,0.0,0.0,0.0,0.0,0.0,0.0,0.0,0.0,0.0,0.0,3.3304,3.3199,3.3164,3.3129,3.3072,3.2917,3.2725,3.1516,3.0884,3.0658,2.947,2.9019,2.9129,0.0,2.904,2.95,0.0,0.0,0.0,0.0,0.0,0.0,0.0,0.0,0.0,2.473,2.3866,2.3607,2.2963,2.2748,2.2721,2.262,2.2593,2.276,2.3456,2.3205,2.2916,2.3616,2.3266,2.2562,2.193,2.171,2.1394,0.0,0.0,0.0,2.0774,2.0782,0.0,2.0909,2.0925,0.0,2.0925,0.0,2.0925,2.0925,2.0925,0.0,2.0925,2.0925,2.0925,2.0925,2.0925,2.0925,2.0925,2.0925,2.0652,2.0122,1.9672,1.9428,1.9279,1.9279,1.9279,1.9279,1.9279,1.9279,1.9279,1.9279,1.9279,1.9279,1.9279,1.9279,1.9086,1.6775,1.6084,1.5994,1.3381,1.2603,1.2792,0.0,0.0,0.0,0.0,0.0,0.0,0.0,0.0,0.0,0.0,0.0,0.0,0.0,0.0,0.0,0.0,0.0,0.0,0.0,0.0,0.0,0.0,0.0,0.0,0.0,0.0,0.0,0.0,0.0,0.0,3.3514,3.3374,3.2974,3.2354,3.1553,3.0859,3.0216,2.9431,0.0,0.0,0.0,0.0,0.0,0.0,0.0,0.0,0.0,0.0,0.0,0.0,0.0,2.7261,2.5375,2.4575,2.4153,2.3551,0.0,2.3636,2.3458,2.3691,2.4009,2.4285,2.4286,2.4192,2.4145,2.4257,2.402,2.2763,2.2522,0.0,2.142,2.107,0.0,0.0,0.0,0.0,2.0925,2.0925,2.0925,0.0,2.0925,0.0,2.0925,2.0925,2.0925,2.0925,2.0925,2.0925,2.0925,2.0925,2.0925,2.0925,2.0925,2.066,2.0138,1.9702,1.9398,1.9279,1.9279,1.9279,1.9279,1.9279,1.9279,1.9279,1.9279,1.9279,1.9279,1.9279,1.9279,1.9086,1.6775,1.6203,1.6302,1.3464,1.2724,1.3078,0.0,0.0,0.0,0.0,0.0,0.0,0.0,0.0,0.0,0.0,0.0,0.0,0.0,0.0,0.0,0.0,0.0,0.0,0.0,0.0,0.0,0.0,0.0,0.0,0.0,0.0,0.0,0.0,0.0,0.0,0.0,0.0,0.0,0.0,0.0,0.0,0.0,0.0,0.0,0.0,0.0,0.0,0.0,0.0,0.0,0.0,0.0,0.0,0.0,0.0,2.8735,2.7568,2.6553,2.5589,2.4761,2.4289,2.4483,2.4782,2.4423,2.4875,2.5384,2.5134,2.5563,2.5757,2.4837,2.5548,2.5771,2.3868,0.0,2.3153,2.192,2.1275,2.0925,2.0925,0.0,2.0925,2.0925,2.0925,2.0925,2.0925,2.0925,2.0925,2.0925,2.0925,2.0925,2.0925,2.0925,2.0925,2.0925,2.0925,2.0925,2.0925,2.0822,2.055,2.0078,1.9821,1.9517,1.9279,1.9279,1.9279,1.9279,1.9279,1.9279,1.9279,1.9279,1.9279,1.9279,1.9279,1.9279,1.9094,1.6951,1.6617,1.6999,1.3837,1.3197,1.3777,0.0,0.0,0.0,0.0,0.0,0.0,0.0,0.0,0.0,0.0,0.0,0.0,0.0,0.0,0.0,0.0,0.0,0.0,0.0,0.0,0.0,0.0,0.0,0.0,0.0,3.4414,3.4414,3.4414,3.4346,0.0,0.0,0.0,0.0,0.0,0.0,0.0,0.0,0.0,0.0,0.0,0.0,0.0,0.0,0.0,0.0,0.0,0.0,0.0,0.0,0.0,2.9349,2.8221,2.6672,2.6096,2.5867,2.527,2.5378,2.5698,2.5628,2.5916,2.6435,2.6981,2.6764,2.6499,2.6904,2.6254,0.0,0.0,2.3461,2.2526,2.1827,2.1275,2.0925,2.0925,2.0925,2.0925,2.0925,2.0925,2.0925,0.0,2.0925,2.0925,2.0925,2.0925,0.0,2.0925,2.0925,2.0925,2.0925,2.0925,2.0925,2.0925,2.0447,2.0174,2.0107,1.9628,1.9338,1.9279,1.9279,1.9279,1.9279,1.9279,1.9279,1.9279,1.9279,1.9279,1.9279,1.9279,1.9279,1.9153,1.7832,1.6855,1.603,1.4484,1.3371,1.2623,0.0,0.0,0.0,0.0,0.0,0.0,0.0,0.0,0.0,0.0,3.686,0.0,0.0,0.0,0.0,0.0,0.0,0.0,0.0,0.0,0.0,0.0,0.0,0.0,0.0,3.4414,3.4414,3.4414,0.0,3.4414,3.4414,3.4414,3.3962,3.3178,3.2434,3.1636,3.0857,0.0,0.0,2.9792,2.9546,2.9526,0.0,0.0,0.0,0.0,0.0,0.0,0.0,0.0,3.0095,2.9196,2.7675,2.7095,2.6878,2.6318,2.6455,2.6795,2.6795,2.7243,2.7694,2.7647,2.7647,2.76,2.7115,0.0,0.0,0.0,2.4531,2.3939,2.2072,2.1725,0.0,2.0968,2.0925,2.0925,2.0925,2.0925,0.0,2.0925,2.0925,2.0925,0.0,2.0925,2.0925,2.0925,2.0925,2.0925,2.0925,2.0925,2.0925,2.0925,2.0506,2.0248,2.0101,1.9717,1.9457,1.9279,1.9279,1.9279,1.9279,1.9279,1.9279,1.9279,1.9279,1.9279,1.9279,1.9279,1.9279,1.9146,1.7361,1.6277,1.5405,1.3699,1.2614,1.1928,0.0,0.0,0.0,0.0,0.0,0.0,0.0,3.8453,3.8342,3.8064,3.8035,3.7851,3.7294,3.731,0.0,0.0,0.0,0.0,0.0,0.0,0.0,0.0,0.0,0.0,0.0,0.0,0.0,3.4414,3.4414,0.0,0.0,0.0,0.0,0.0,3.2434,3.1636,3.0857,3.0101,2.9792,0.0,0.0,2.9495,0.0,0.0,0.0,0.0,0.0,0.0,0.0,0.0,3.083,3.0291,2.9095,2.84,2.7906,2.7434,2.756,2.7882,2.7882,2.8315,2.8653,2.8023,2.8315,2.8466,2.7268,2.7799,0.0,0.0,2.5305,2.4963,2.2215,0.0,2.1878,0.0,2.0925,2.0925,2.0925,2.0925,2.0925,0.0,2.0925,0.0,2.0925,2.0925,0.0,2.0925,2.0925,2.0925,2.0925,2.0925,2.0925,2.0925,2.0565,2.0323,2.0088,1.9761,1.9495,1.9279,1.9279,1.9279,1.9279,1.9279,1.9279,1.9279,1.9279,1.9279,1.9279,1.9212,1.9212,1.8975,1.6892,1.5734,1.5065,1.3043,1.2001,1.1546,0.0,0.0,0.0,0.0,0.0,0.0,0.0,3.9901,3.9636,3.8897,3.9216,3.9206,3.8446,3.7618,0.0,0.0,0.0,0.0,0.0,0.0,0.0,0.0,0.0,0.0,0.0,0.0,0.0,3.4414,3.4414,0.0,0.0,0.0,0.0,0.0,0.0,3.1636,3.0857,3.0101,0.0,0.0,0.0,0.0,0.0,0.0,0.0,0.0,0.0,0.0,0.0,0.0,0.0,3.1456,3.0819,3.0022,2.9223,2.8773,0.0,0.0,2.8699,2.8746,2.8803,2.8699,2.8757,2.8746,2.8606,0.0,2.7295,2.5886,2.4718,2.3493,2.1971,2.1326,2.1019,0.0,0.0,2.0925,2.0925,2.0925,2.0925,2.0925,0.0,0.0,2.0925,2.0925,2.0925,2.0925,2.0925,2.0925,2.0925,2.0925,2.0925,2.0925,2.0395,2.0138,2.0086,1.9576,1.9324,1.9279,1.9279,1.9279,1.9279,1.9279,1.9279,1.9279,1.9279,1.9279,1.9272,1.9034,1.8968,1.879,1.7244,1.5995,1.4907,1.366,1.2531,1.1549,0.0,0.0,0.0,0.0,0.0,0.0,0.0,4.0163,3.9995,3.9662,3.9738,3.9703,3.9382,3.8882,0.0,0.0,0.0,0.0,0.0,0.0,0.0,0.0,0.0,0.0,0.0,0.0,3.4414,3.4414,3.4414,0.0,0.0,0.0,0.0,0.0,0.0,3.1452,3.0683,2.9741,0.0,0.0,0.0,0.0,0.0,0.0,0.0,0.0,0.0,0.0,0.0,0.0,0.0,0.0,3.0395,2.9801,0.0,0.0,2.835,2.7894,2.7894,2.7894,2.7894,2.7894,2.8112,2.8331,2.8331,0.0,2.7882,2.6426,2.6234,2.545,2.271,2.2509,2.2409,0.0,0.0,0.0,2.0925,0.0,2.0925,2.0925,2.0925,0.0,0.0,0.0,2.0925,2.0925,2.0925,2.0925,2.0925,2.0925,2.0925,2.0925,2.0395,2.0078,2.0078,1.9583,1.9279,1.9279,1.9279,1.9279,1.9279,1.9279,1.9279,1.9279,1.9279,1.9212,1.9034,1.8968,1.8781,1.845,1.72,1.5891,1.462,1.3467,1.2192,1.1038,0.0,0.0,0.0,0.0,0.0,0.0,4.0238,4.0163,4.0096,4.0096,3.9935,3.9849,3.9849,3.959,3.9175,3.8507,0.0,0.0,0.0,0.0,0.0,0.0,0.0,0.0,0.0,0.0,3.4414,3.4414,3.4414,3.4414,0.0,0.0,3.4113,3.352,0.0,0.0,0.0,0.0,0.0,0.0,0.0,0.0,0.0,0.0,0.0,0.0,0.0,0.0,0.0,0.0,0.0,0.0,0.0,0.0,0.0,0.0,2.7855,2.7315,2.7315,2.7315,2.7315,2.7315,2.7566,2.7773,0.0,0.0,2.7942,2.6421,2.6656,2.6175,2.3251,2.3251,2.318,0.0,0.0,2.103,2.1146,2.0925,2.0798,0.0,0.0,2.0925,2.0925,2.0925,2.0925,2.0925,2.0925,2.0826,2.0621,2.0613,2.066,2.0763,2.0344,2.0078,1.9983,1.9532,1.9279,1.9279,1.9279,1.9279,1.9279,1.9279,1.9279,1.9279,1.9212,1.9086,1.8909,1.8722,1.8503,1.8177,1.693,1.5648,1.4326,1.3148,1.19,1.0692,0.0,0.0,0.0,0.0,0.0,0.0,0.0,4.0096,4.0096,4.0096,3.9884,3.9703,3.9703,3.9458,3.9299,3.9299,0.0,0.0,0.0,0.0,0.0,0.0,0.0,0.0,0.0,0.0,3.4414,3.4414,3.4414,3.4414,3.4414,3.4414,3.4414,3.4346,0.0,0.0,0.0,0.0,0.0,0.0,0.0,0.0,0.0,0.0,0.0,0.0,0.0,0.0,0.0,0.0,0.0,0.0,0.0,2.8123,2.7325,0.0,2.7315,2.7315,2.7315,2.7315,2.7315,2.7315,2.7315,2.7315,0.0,0.0,2.6961,2.5663,2.5199,2.4641,2.3355,2.2887,2.2713,2.2681,2.1907,0.0,2.174,2.0984,0.0,0.0,0.0,2.0925,2.0925,2.0925,2.0925,2.0925,2.0925,2.0621,2.0023,2.0008,2.0163,2.0506,2.0241,1.9983,1.9732,1.9428,1.9279,1.9279,1.9279,1.9279,1.9279,1.9279,1.9279,1.9272,1.9027,1.8909,1.8857,1.824,1.7998,1.7879,1.6457,1.5176,1.3959,1.2827,1.1671,1.0641,0.0,0.0,0.0,0.0,0.0,0.0,0.0,4.0163,4.0096,4.0096,3.9935,3.9849,3.9849,3.959,3.9352,3.9121,0.0,0.0,0.0,0.0,0.0,0.0,0.0,0.0,0.0,0.0,3.4754,3.4414,3.4414,3.4414,3.4414,3.4414,3.3991,3.3199,3.2304,3.1328,0.0,0.0,0.0,0.0,0.0,0.0,0.0,0.0,0.0,0.0,0.0,0.0,0.0,0.0,0.0,0.0,0.0,0.0,0.0,2.6515,2.6343,2.6343,2.6343,2.6343,2.6343,2.6343,2.6594,2.6802,2.6802,2.7086,2.7083,2.637,2.6135,2.5628,2.42,2.3867,2.3561,2.2826,2.2437,0.0,0.0,0.0,0.0,2.0259,2.0436,2.0672,2.0865,2.0689,2.0564,2.0564,2.0198,1.9857,1.9649,1.9501,1.9407,1.9514,1.9299,1.91,1.9,1.8757,1.86,1.8613,1.8613,1.8613,1.8613,1.8613,1.8547,1.8317,1.8251,1.8137,1.7989,1.7799,1.7753,1.7582,1.6392,1.5692,1.5047,1.294,1.1872,1.144,0.0,0.0,0.0,0.0,0.0,0.0,0.0,4.0163,4.0096,4.0096,3.9935,3.9807,3.9807,3.959,3.9352,3.9121,0.0,0.0,0.0,0.0,0.0,0.0,0.0,0.0,0.0,3.5447,3.4971,3.4486,3.4249,3.4128,3.3991,3.3991,3.3632,3.2917,3.2232,3.1415,0.0,0.0,0.0,0.0,0.0,0.0,2.8271,0.0,0.0,0.0,0.0,0.0,0.0,0.0,0.0,0.0,0.0,0.0,0.0,0.0,2.5895,2.5895,0.0,2.5895,2.5895,2.5895,2.6136,0.0,0.0,0.0,2.6563,2.6269,2.6083,2.5677,2.4725,2.4456,2.4175,2.3473,2.3063,2.2565,0.0,0.0,0.0,2.0016,0.0,0.0,2.0495,2.035,2.0173,2.006,1.9728,1.9375,1.9049,1.8847,1.8648,1.8431,1.8607,1.8636,1.8538,1.8397,1.8275,1.8309,1.8309,1.8311,1.8303,1.8196,1.8074,1.7903,1.768,1.7528,0.0,1.7284,1.7048,1.6746,1.6339,1.55,1.4249,1.2955,1.1955,1.1007,0.0,0.0,0.0,0.0,0.0,0.0,0.0,0.0,0.0,0.0,3.9858,3.9703,3.9677,3.9441,3.9299,0.0,0.0,0.0,0.0,0.0,0.0,0.0,0.0,0.0,0.0,3.5479,3.5055,3.4595,3.4051,3.3632,3.3304,3.3304,3.3269,3.3234,3.2832,3.2245,3.1489,2.9935,2.8724,2.7841,2.7841,2.7841,0.0,0.0,0.0,0.0,0.0,0.0,0.0,0.0,0.0,0.0,0.0,0.0,0.0,0.0,0.0,0.0,0.0,2.5906,2.5895,0.0,0.0,0.0,0.0,0.0,0.0,2.5559,2.5211,2.4903,2.4861,2.4658,2.4497,2.4497,2.3788,2.2968,0.0,2.1302,0.0,0.0,1.9866,1.987,1.987,1.9834,1.9733,1.9478,1.9419,1.9026,1.8218,1.8155,1.7871,1.734,1.8152,1.8471,1.8233,1.8233,1.8233,1.8233,1.8233,1.8204,1.8209,1.7937,1.7781,1.7742,1.7236,1.7028,1.701,1.6777,1.6168,1.5537,1.6169,1.4696,1.2279,1.2826,1.1693,0.9853,0.0,0.0,0.0,0.0,0.0,0.0,0.0,0.0,0.0,0.0,0.0,3.9651,3.9563,3.9405,0.0,0.0,0.0,0.0,0.0,0.0,0.0,0.0,0.0,0.0,0.0,3.5991,3.5352,3.4595,3.4051,3.3632,3.3304,3.3304,3.3129,3.281,3.2245,3.1082,2.9433,2.8605,2.7898,2.736,2.736,2.736,0.0,0.0,0.0,0.0,2.736,2.7062,0.0,0.0,0.0,0.0,0.0,0.0,0.0,0.0,2.5895,2.5853,2.5696,0.0,2.5853,2.5696,2.5686,2.5601,0.0,0.0,0.0,0.0,0.0,0.0,0.0,2.454,2.4497,2.4497,2.4317,2.3619,2.2059,0.0,0.0,1.9502,1.9513,1.9549,1.9605,1.9351,1.9106,1.8848,1.837,1.801,1.7841,1.7631,1.7453,1.7279,1.7526,1.76,1.756,1.756,1.756,1.7505,1.7388,1.7316,1.7279,1.7008,1.6803,1.659,1.6469,1.6428,1.6504,1.6408,1.6246,1.5928,1.4473,1.391,1.3668,1.1084,1.0421,1.0603,0.0,0.0,0.0,0.0,0.0,0.0,0.0,0.0,0.0,0.0,0.0,0.0,0.0,0.0,0.0,0.0,0.0,0.0,0.0,0.0,0.0,0.0,0.0,0.0,3.7059,3.6149,3.5352,3.4681,3.3762,3.3129,3.2803,3.2803,3.2624,3.2322,3.1886,3.0733,2.9042,2.874,2.7943,2.6899,2.6899,0.0,0.0,0.0,0.0,0.0,2.6899,2.661,0.0,2.6207,2.6093,2.5895,0.0,0.0,0.0,0.0,2.5895,2.5864,2.578,2.5728,2.5728,2.5464,2.5422,2.538,0.0,0.0,0.0,0.0,0.0,0.0,0.0,0.0,2.4497,2.4497,2.4137,0.0,0.0,0.0,1.8889,1.9106,1.9052,1.8998,1.9052,1.8784,1.8474,1.8202,1.7876,1.766,1.7527,1.738,1.7279,1.7279,1.7192,1.7192,1.7279,1.7225,1.7171,1.7171,1.6947,1.6828,1.6791,1.652,1.6346,1.6204,1.5994,1.5886,1.594,1.5784,1.5217,1.4351,1.3542,1.27,1.178,1.0225,0.9808,0.9763,0.0,0.0,0.0,0.0,0.0,0.0,0.0,0.0,0.0,0.0,0.0,0.0,0.0,0.0,0.0,0.0,0.0,0.0,0.0,0.0,0.0,0.0,0.0,3.7435,3.7435,3.618,3.5287,3.4765,3.3506,3.2646,3.2218,3.2182,3.2036,3.1853,3.1434,3.052,2.9291,2.9045,2.7988,2.6415,2.6415,0.0,0.0,0.0,0.0,0.0,0.0,0.0,0.0,2.5853,2.5812,2.5812,2.5853,0.0,0.0,0.0,0.0,0.0,2.577,2.5644,2.5433,2.5242,2.52,2.5158,2.5115,0.0,0.0,0.0,0.0,0.0,0.0,0.0,0.0,0.0,0.0,0.0,2.0523,1.944,1.8781,1.8773,1.8611,1.8457,1.838,1.8179,1.7937,1.7658,1.7621,1.7552,1.7326,1.7286,1.7239,1.7239,1.7066,1.7019,1.7185,1.7016,1.6955,1.6922,1.6659,1.652,1.6537,1.6211,1.6103,1.6048,1.5622,1.5358,1.5168,1.4953,1.3779,1.2193,1.2737,1.1355,0.9122,0.9716,0.9249,0.8113,0.0,0.0,0.0,0.0,0.0,0.0,0.0,0.0,0.0,0.0,0.0,0.0,0.0,0.0,0.0,0.0,0.0,0.0,0.0,0.0,0.0,0.0,3.7329,3.7254,3.7254,3.6476,3.5593,3.4614,3.3953,3.315,3.2218,3.2036,3.1853,3.1596,3.0317,2.9395,2.8718,2.7464,2.6569,2.5979,2.5979,0.0,0.0,0.0,0.0,0.0,0.0,0.0,0.0,2.5559,2.5506,2.5338,2.5559,0.0,0.0,0.0,0.0,0.0,2.5115,2.5031,2.5031,2.5158,2.5073,2.4903,2.4658,0.0,0.0,0.0,0.0,0.0,0.0,2.4497,2.4497,0.0,0.0,2.1542,0.0,1.944,1.8727,1.8557,1.8503,1.8334,1.7876,1.7806,1.7658,1.7387,1.738,1.7326,1.7279,1.716,1.7073,1.7073,1.6777,1.6676,1.6695,1.6706,1.6666,1.6676,1.6414,1.6245,1.6265,1.5832,1.5615,1.5568,1.5298,1.4661,1.3795,1.3741,1.2943,1.1627,1.0852,1.0155,0.9579,0.8976,0.7949,0.648,0.0,0.0,0.0,0.0,0.0,0.0,0.0,0.0,0.0,0.0,0.0,0.0,0.0,0.0,0.0,0.0,0.0,0.0,0.0,0.0,0.0,3.7241,3.7029,3.7013,3.7194,3.6321,3.5593,3.5026,3.3871,3.303,3.248,3.1863,3.1545,3.1397,3.0608,2.9563,2.8323,2.7654,2.667,2.5506,0.0,0.0,0.0,0.0,0.0,0.0,0.0,0.0,0.0,0.0,2.5285,2.52,2.5338,0.0,0.0,0.0,0.0,0.0,2.5073,2.4988,2.4903,2.5031,2.4871,2.4658,2.454,0.0,0.0,0.0,0.0,0.0,0.0,0.0,2.4327,2.3841,0.0,2.1373,2.0407,1.9331,1.8611,1.8503,1.8249,1.7962,1.7712,1.7557,1.7441,1.7333,1.7279,1.7239,1.7153,1.7073,1.6932,1.6784,1.6494,1.6393,1.6372,1.6264,1.6243,1.6364,1.5994,1.5832,1.5832,1.546,1.5276,1.5233,1.4381,1.3721,1.3237,1.2546,1.1574,1.0473,0.9954,0.9295,0.8475,0.7467,0.579,0.3931,0.0,0.0,0.0,0.0,0.0,0.0,0.0,0.0,0.0,0.0,0.0,0.0,0.0,0.0,0.0,0.0,0.0,0.0,0.0,0.0,3.727,3.6999,3.677,3.6785,3.7074,3.6259,3.5657,3.5335,3.3891,3.2875,3.2345,3.1629,3.1235,3.1123,3.0785,2.9665,2.8016,2.7815,2.673,2.52,0.0,0.0,0.0,0.0,0.0,0.0,0.0,0.0,0.0,0.0,0.0,0.0,0.0,0.0,0.0,2.5031,2.5031,2.5031,2.5031,2.4903,2.4828,2.4828,2.4658,2.4497,2.4497,0.0,0.0,0.0,0.0,0.0,0.0,2.4497,0.0,2.3262,2.2264,2.1281,2.0428,1.9222,1.8403,1.8396,1.797,1.7665,1.7604,1.7441,1.7279,1.7279,1.7239,1.7153,1.7026,1.6885,1.6737,1.6534,1.6258,1.6076,1.6021,1.5825,1.5832,1.6041,1.567,1.5473,1.5391,1.4864,1.4638,1.4562,1.3239,1.2483,1.2124,1.111,1.0058,0.9023,0.8785,0.7922,0.6672,0.5418,0.355,0.1593,0.0,0.0,0.0,0.0,0.0,0.0,0.0,0.0,0.0,0.0,0.0,0.0,0.0,0.0,0.0,0.0,0.0,0.0,0.0,0.0,3.761,3.703,3.6677,3.6569,3.6739,3.6538,3.6022,3.5201,3.4346,3.3073,3.1421,3.1347,3.1099,3.0698,2.9896,2.8885,2.7758,2.6958,2.606,2.52,2.52,0.0,0.0,0.0,0.0,0.0,0.0,0.0,0.0,0.0,0.0,0.0,0.0,0.0,2.454,2.454,2.454,2.454,2.454,2.454,2.454,2.454,2.4497,0.0,2.4497,2.4497,0.0,2.4497,0.0,0.0,0.0,2.4497,2.42,2.3262,2.2083,2.1082,2.0388,1.9052,1.8126,1.8116,1.7875,1.7604,1.7333,1.7333,1.7279,1.7279,1.7113,1.7026,1.6979,1.6508,1.6258,1.6237,1.5967,1.575,1.5551,1.554,1.5507,1.5548,1.5507,1.5356,1.5086,1.3807,1.3239,1.3191,1.1895,1.0622,0.9472,0.939,0.8564,0.7294,0.6274,0.5305,0.4248,0.2825,0.1517,0.0334,0.0,0.0,0.0,0.0,0.0,0.0,0.0,0.0,0.0,0.0,0.0,0.0,0.0,0.0,0.0,0.0,0.0,0.0,0.0,0.0,3.7504,3.7072,3.6585,3.632,3.6258,3.6226,3.5973,3.5527,3.4177,3.2613,3.0911,3.0911,3.0761,3.0482,2.9613,2.8609,2.7557,2.6618,2.5684,2.4743,2.4743,2.4743,0.0,0.0,0.0,0.0,0.0,0.0,0.0,0.0,2.4583,2.4497,2.4615,2.4583,2.4497,2.4497,2.4497,2.4497,2.4497,2.4497,2.4497,2.4497,2.4497,0.0,0.0,2.4497,2.4497,2.4497,2.4497,0.0,0.0,0.0,2.3503,2.3156,2.1736,2.0595,2.0326,1.9039,1.8086,1.8092,1.7712,1.7387,1.7333,1.72,1.7099,1.7117,1.6904,1.6683,1.6534,1.6312,1.6123,1.5967,1.573,1.5245,1.4497,1.5019,1.4538,1.3071,1.4394,1.458,1.3819,1.3137,1.241,1.1634,1.044,0.9567,0.8827,0.7497,0.6686,0.6087,0.4843,0.3725,0.2674,0.117,-0.0054,-0.1174,0.0,0.0,0.0,0.0,0.0,0.0,0.0,0.0,0.0,0.0,0.0,0.0,0.0,0.0,0.0,0.0,0.0,0.0,0.0,3.839,3.7735,3.7071,3.6616,3.6211,3.5861,3.5782,3.5606,3.535,3.3616,3.2015,3.0609,3.0609,3.0495,3.0254,2.938,2.8359,2.7221,2.6318,2.5295,2.4282,2.4282,2.4282,0.0,0.0,0.0,0.0,0.0,0.0,0.0,0.0,2.4497,2.4497,2.4497,2.4497,2.4497,2.4497,2.4497,2.4497,2.4497,2.4497,2.4497,2.4497,0.0,0.0,2.4497,2.4497,2.4497,2.4497,2.4497,0.0,2.3735,0.0,0.0,2.2707,2.1242,2.0163,2.0163,1.8885,1.7961,1.7984,1.7557,1.7286,1.7192,1.7066,1.6965,1.6875,1.6615,1.6386,1.619,1.6109,1.5812,1.5244,1.5391,1.4773,1.3176,1.4031,1.3456,1.1468,1.284,1.3115,1.248,1.1856,1.1145,1.0216,0.9076,0.8211,0.7556,0.6089,0.5033,0.423,0.297,0.1802,0.0637,-0.069,-0.1954,-0.3078,0.0,0.0,0.0,0.0,0.0,0.0,0.0,0.0,0.0,0.0,0.0,0.0,0.0,0.0,0.0,0.0,0.0,0.0,0.0,3.8689,3.8379,3.6981,3.6784,3.6321,3.5504,3.5294,3.4986,3.4595,3.2706,3.1331,3.0406,3.0406,3.0292,3.0037,2.9157,2.8011,2.673,2.5861,2.4829,2.3797,2.3797,2.3797,2.3797,0.0,0.0,0.0,0.0,0.0,0.0,0.0,2.4497,2.4497,2.4497,2.4497,2.4497,2.4497,2.4497,2.4497,2.4497,2.4497,2.4497,0.0,0.0,0.0,2.4497,2.4497,2.4497,2.4497,2.4507,2.3915,2.2069,2.2475,2.279,2.1852,2.0689,1.9903,1.9865,1.8629,1.7684,1.7705,1.7441,1.7239,1.7026,1.6979,1.6871,1.6601,1.6325,1.619,1.619,1.5913,1.519,1.3927,1.4937,1.4232,1.1634,1.2574,1.2444,1.1176,1.0888,1.0897,1.1126,0.9797,0.9176,0.9072,0.7759,0.6403,0.5201,0.5151,0.3736,0.1465,0.0403,-0.0772,-0.1966,-0.3027,-0.429,-0.5483,0.0,0.0,0.0,0.0,0.0,0.0,0.0,0.0,0.0,0.0,0.0,0.0,0.0,0.0,0.0,0.0,0.0,0.0,0.0,3.9007,3.8423,3.7458,3.6966,3.6258,3.5326,3.4065,3.3395,3.3276,3.2712,3.1676,3.019,2.9548,2.9055,2.8624,2.7128,2.6141,2.5546,2.4659,2.4122,2.3797,2.3797,2.3797,2.3797,0.0,0.0,0.0,0.0,0.0,0.0,0.0,0.0,0.0,2.4292,2.4378,2.4497,2.4497,2.4497,2.4497,2.4497,2.4497,0.0,2.4497,0.0,0.0,0.0,2.4497,0.0,0.0,2.45,2.4313,2.3786,2.3359,2.2773,2.185,2.0691,1.9682,1.9033,1.8194,1.7682,1.769,1.7347,1.7073,1.7026,1.665,1.6393,1.6304,1.6096,1.5866,1.5704,1.4921,1.4189,1.366,1.3043,1.2014,1.0498,1.1119,1.0538,0.8665,0.9183,0.9549,0.9764,0.9176,0.7969,0.6356,0.5952,0.5041,0.3679,0.2164,0.0654,-0.0755,-0.1812,-0.2522,-0.308,-0.4457,-0.5795,-0.713,0.0,0.0,0.0,0.0,0.0,0.0,0.0,0.0,0.0,0.0,0.0,0.0,0.0,0.0,0.0,0.0,0.0,0.0,0.0,0.0,3.8039,3.7249,3.6677,3.5928,3.5016,3.3638,3.2761,3.2461,3.1932,3.1097,2.9972,2.8976,2.8359,2.8004,2.6171,2.5221,2.4914,2.4026,2.3624,2.3537,2.3537,2.3537,2.3537,0.0,0.0,0.0,0.0,0.0,0.0,0.0,0.0,0.0,2.4163,2.4282,2.4368,2.4368,2.4368,2.4368,2.4368,2.4368,0.0,2.4497,2.4497,2.4497,2.4497,0.0,0.0,0.0,2.4242,2.4173,2.3028,2.2659,2.219,2.114,2.0374,1.9644,1.8889,1.8512,1.8063,1.7495,1.7167,1.6932,1.6697,1.6414,1.6163,1.6035,1.5812,1.5622,1.5514,1.4386,1.3433,1.2752,1.1893,1.0695,0.9083,0.9686,0.8905,0.6786,0.7173,0.7229,0.7001,0.7253,0.6345,0.4533,0.3986,0.3075,0.1811,0.005,-0.1308,-0.2515,-0.3572,-0.447,-0.529,-0.6613,-0.7993,-0.9377,0.0,0.0,0.0,0.0,0.0,0.0,0.0,0.0,0.0,0.0,3.9435,0.0,0.0,0.0,0.0,0.0,0.0,0.0,0.0,0.0,3.7427,3.6569,3.5977,3.535,3.4631,3.3589,3.272,3.2015,3.0797,3.0037,2.9753,2.8557,2.7964,2.7844,0.0,2.483,2.4585,2.3777,2.3319,2.3091,2.3091,2.3091,2.3091,2.3091,0.0,0.0,0.0,0.0,0.0,0.0,0.0,0.0,2.4067,2.4163,2.4163,2.4163,2.4163,2.4163,2.4163,0.0,0.0,2.4368,2.4454,0.0,2.4497,2.4497,2.4272,2.341,0.0,2.3724,2.1123,2.1354,2.1554,2.0307,2.003,1.9786,1.9293,1.908,1.8542,1.7167,1.6979,1.6744,1.6272,1.6177,1.6076,1.5778,1.5615,1.546,1.5311,1.4028,1.2732,1.1404,1.1046,0.9817,0.7596,0.817,0.7512,0.5575,0.5177,0.4475,0.347,0.4526,0.4372,0.3211,0.1865,0.0706,-0.0352,-0.146,-0.2668,-0.3872,-0.5085,-0.6519,-0.8069,-0.9197,-1.0572,-1.2054,0.0,0.0,0.0,0.0,0.0,0.0,0.0,0.0,0.0,0.0,0.0,0.0,0.0,0.0,0.0,0.0,0.0,0.0,0.0,0.0,3.7144,3.6011,3.4765,3.4031,3.3839,3.2519,3.1723,3.1405,3.0945,3.0317,0.0,0.0,0.0,2.6438,0.0,2.3691,2.3464,2.3266,2.3135,2.3091,2.3091,2.3091,2.3091,2.3091,2.3091,0.0,0.0,0.0,0.0,0.0,0.0,0.0,2.3634,2.3764,2.3894,2.3894,2.3894,2.3894,2.3894,2.3894,0.0,0.0,2.411,2.4292,2.4454,2.4497,2.4454,2.4229,2.4358,2.4272,2.3507,2.3541,2.3248,2.205,2.1059,2.0175,1.9333,1.835,1.752,1.7073,1.6831,1.6548,1.6224,1.6028,1.5825,1.5568,1.5514,1.4959,1.3676,1.2603,1.1293,0.9776,0.882,0.8012,0.73,0.6431,0.5727,0.5279,0.4176,0.3071,0.2065,0.3122,0.2565,0.0704,-0.0403,-0.1512,-0.2618,-0.3874,-0.4576,-0.5085,-0.7437,-0.8607,-0.925,-1.0704,-1.265,-1.4635,0.0,0.0,0.0,0.0,0.0,0.0,0.0,0.0,0.0,0.0,0.0,0.0,0.0,0.0,0.0,0.0,0.0,0.0,0.0,0.0,0.0,3.467,3.3851,3.3325,3.303,3.1942,3.1145,3.0771,3.0279,0.0,0.0,0.0,0.0,2.541,0.0,2.3232,2.3091,2.3091,2.3091,2.3091,2.3091,2.3091,2.3091,2.3091,2.3091,2.3091,2.3091,0.0,0.0,0.0,0.0,0.0,0.0,0.0,2.3677,2.3677,2.3677,2.3677,2.3677,0.0,0.0,2.3797,0.0,2.4024,2.4153,2.4143,2.4143,2.4143,2.4282,2.4153,2.3474,2.3355,2.3088,2.2384,2.1311,2.036,1.9766,1.8611,1.7559,1.6878,1.6548,1.6312,1.6028,1.5784,1.5629,1.5514,1.4797,1.3981,1.3118,1.1429,1.0092,0.9253,0.7413,0.6398,0.6239,0.4931,0.3976,0.3472,0.2264,0.0754,-0.0855,0.0352,-0.005,-0.1759,-0.2315,-0.3518,-0.5164,-0.5864,-0.686,-0.8021,-0.9539,-1.0638,-1.1549,-1.3049,-1.4808,-1.6632,0.0,0.0,0.0,0.0,0.0,0.0,0.0,0.0,0.0,0.0,0.0,0.0,0.0,0.0,0.0,0.0,0.0,0.0,0.0,0.0,0.0,0.0,3.3094,3.2797,3.2232,3.1466,3.0771,3.0126,0.0,0.0,0.0,0.0,0.0,2.4713,0.0,2.3091,2.3091,2.3091,2.3091,2.3091,2.3091,2.3091,2.3091,2.3091,2.3091,2.3091,2.3091,2.3091,2.3091,2.3091,0.0,0.0,0.0,0.0,2.3406,2.3406,2.3406,2.3406,2.3406,0.0,2.3493,2.3711,2.3754,0.0,2.3797,2.3797,2.3797,2.3754,2.3937,2.3841,2.2765,2.2568,2.2473,2.2069,2.1347,2.0574,1.9968,1.9018,1.7924,1.6683,1.6359,1.6076,1.5832,1.5635,1.5486,1.5432,1.3993,1.298,1.273,1.0485,0.8977,0.8535,0.6361,0.5094,0.4878,0.3371,0.2216,0.131,0.0,-0.1759,-0.387,-0.2967,-0.3067,-0.3971,-0.4119,-0.5458,-0.7493,-0.7737,-0.914,-1.1182,-1.1689,-1.2821,-1.4339,-1.5706,-1.7068,-1.8461,0.0,0.0,0.0,0.0,0.0,0.0,0.0,0.0,0.0,0.0,0.0,0.0,0.0,0.0,0.0,0.0,0.0,0.0,0.0,0.0,0.0,3.2797,3.2336,3.1863,3.1368,3.0908,3.0317,2.9523,0.0,0.0,0.0,0.0,0.0,2.4488,0.0,0.0,2.3091,2.3091,2.3091,2.3091,2.3091,2.3091,2.3091,2.3091,2.3091,2.3091,2.3091,2.3091,2.3091,2.3091,2.3091,0.0,0.0,0.0,2.3135,2.3135,2.3135,2.3135,0.0,0.0,2.3232,0.0,2.3547,2.359,0.0,0.0,2.3754,2.359,2.3721,2.3754,2.3406,2.3329,2.3023,2.1926,2.165,2.0881,1.8934,1.8519,1.7878,1.6407,1.6224,1.6076,1.5832,1.5635,1.541,1.515,1.3867,1.2528,1.118,0.988,0.8118,0.5806,0.5402,0.4642,0.3473,0.1459,0.0352,0.0201,-0.2061,-0.377,-0.5027,-0.6006,-0.6056,-0.5372,-0.6305,-0.7446,-0.8654,-0.9833,-1.1196,-1.2694,-1.4109,-1.5531,-1.697,-1.8236,-1.9443,-2.0621,0.0,0.0,0.0,0.0,0.0,0.0,0.0,0.0,0.0,0.0,0.0,0.0,0.0,0.0,0.0,0.0,0.0,0.0,0.0,0.0,0.0,3.2082,3.1408,3.0746,3.0215,2.955,2.8861,0.0,0.0,0.0,0.0,2.5777,2.5147,0.0,0.0,0.0,0.0,0.0,2.3091,2.3101,2.2969,2.2925,0.0,0.0,0.0,0.0,0.0,0.0,2.2696,2.2696,2.2696,2.2696,2.2696,0.0,0.0,0.0,2.2925,0.0,2.3057,2.3013,2.2969,0.0,2.3188,2.3154,2.3353,2.3396,2.3406,2.3276,2.3363,2.3406,2.3276,2.3276,2.3091,2.2555,2.1917,2.115,2.0158,1.888,1.7785,1.7138,1.6298,1.5784,1.5635,1.5255,1.4736,1.4027,1.2619,1.123,0.9991,0.8052,0.6439,0.5251,0.3887,0.2622,0.1408,-0.0101,-0.156,-0.2913,-0.476,-0.626,-0.7468,-0.8693,-0.8647,-0.7667,-0.8742,-1.0204,-1.1861,-1.2453,-1.3893,-1.5761,-1.6626,-1.7431,-1.8296,-1.9662,-2.0767,-2.1692,0.0,0.0,0.0,0.0,0.0,0.0,0.0,0.0,0.0,0.0,0.0,0.0,0.0,0.0,0.0,0.0,0.0,0.0,0.0,0.0,0.0,3.1609,3.0722,2.9961,2.9408,2.8533,0.0,0.0,0.0,0.0,2.5105,2.5284,2.452,0.0,2.3101,0.0,0.0,0.0,0.0,0.0,0.0,0.0,0.0,0.0,0.0,0.0,0.0,0.0,0.0,2.2397,2.2397,2.2397,2.2397,2.2397,0.0,0.0,0.0,0.0,0.0,0.0,2.2706,2.2882,2.2794,2.275,0.0,0.0,2.2916,2.2916,2.2916,2.2916,2.2916,2.3013,2.3003,2.2687,2.2104,2.1472,2.0836,1.9193,1.7963,1.7645,1.6386,1.5493,1.5493,1.5022,1.4352,1.3582,1.1849,1.029,0.9179,0.662,0.4926,0.4291,0.227,0.0655,-0.0402,-0.1812,-0.3721,-0.6124,-0.7205,-0.8492,-1.0038,-1.1156,-1.1346,-1.0898,-1.1444,-1.2791,-1.4601,-1.4893,-1.632,-1.8464,-1.8851,-1.9449,-2.021,-2.1425,-2.2291,-2.2944,0.0,0.0,0.0,0.0,0.0,0.0,0.0,0.0,0.0,0.0,0.0,0.0,0.0,0.0,0.0,3.3286,3.3286,3.3046,3.2459,3.1726,3.1397,3.1609,3.0595,0.0,2.9408,2.8533,0.0,0.0,0.0,0.0,2.4829,2.4392,2.3714,2.2838,2.3013,2.3013,2.2803,0.0,0.0,0.0,0.0,0.0,0.0,0.0,0.0,0.0,0.0,0.0,0.0,0.0,0.0,2.2397,2.2397,2.2397,2.2397,0.0,0.0,0.0,0.0,2.2432,0.0,2.2432,2.2432,0.0,0.0,0.0,2.2441,2.2441,2.2441,2.2441,2.2441,2.2784,2.2731,2.1561,2.2157,2.1926,1.9604,1.9139,1.8596,1.7466,1.6244,1.5493,1.5493,1.5022,1.4694,1.464,1.227,1.024,0.8886,0.6495,0.4171,0.1869,0.0655,-0.0453,-0.1509,-0.382,-0.6221,-0.8605,-0.8962,-1.0173,-1.219,-1.3454,-1.4506,-1.5293,-1.441,-1.4649,-1.5678,-1.6706,-1.8185,-1.9845,-2.0626,-2.1962,-2.3543,-2.4393,-2.4737,-2.4884,0.0,0.0,0.0,0.0,0.0,0.0,0.0,0.0,0.0,0.0,0.0,0.0,0.0,3.374,3.3405,3.3132,3.2975,3.2804,3.2633,3.164,3.1156,3.1419,2.9343,2.8422,2.8887,2.7596,0.0,0.0,0.0,2.6149,2.5224,2.4608,2.3782,2.291,2.2909,2.2891,2.2803,2.2618,0.0,0.0,0.0,0.0,0.0,0.0,0.0,0.0,0.0,0.0,0.0,0.0,0.0,0.0,0.0,0.0,0.0,0.0,0.0,0.0,0.0,0.0,0.0,2.3188,2.2969,2.2784,2.2485,2.2397,2.2397,2.2397,2.2397,2.2397,2.2397,2.253,2.252,2.2069,2.222,2.2043,2.1177,2.0385,1.9467,1.838,1.7023,1.5906,1.5315,1.4454,1.3426,1.2296,1.0865,0.898,0.6633,0.487,0.3229,0.1667,-0.0101,-0.196,-0.387,-0.647,-0.8216,-0.9061,-1.0681,-1.2173,-1.355,-1.4721,-1.6142,-1.7686,-1.7802,-1.8064,-1.8441,-1.8786,-2.0109,-2.1973,-2.2561,-2.3283,-2.4089,-2.4692,-2.5246,-2.5829,0.0,0.0,0.0,0.0,0.0,0.0,0.0,0.0,0.0,0.0,0.0,0.0,0.0,0.0,3.3635,3.3501,3.3171,3.2999,3.2999,3.1747,3.1091,3.1308,2.8956,2.798,2.8568,2.7149,0.0,0.0,0.0,0.0,0.0,2.4455,2.3702,2.3109,2.2884,2.2707,0.0,0.0,0.0,2.1847,0.0,0.0,2.0907,0.0,0.0,0.0,0.0,0.0,0.0,0.0,0.0,0.0,0.0,0.0,0.0,0.0,0.0,0.0,2.1961,0.0,0.0,0.0,2.2652,2.252,2.2033,2.1935,2.19,2.1722,2.1678,2.1678,2.1678,2.1678,2.1811,2.222,2.2185,2.2052,2.1963,2.0988,1.9977,1.9155,1.7522,1.6177,1.541,1.4208,1.2899,1.1414,1.024,0.8287,0.5374,0.3922,0.2171,-0.005,-0.196,-0.4116,-0.6526,-0.8315,-0.9604,-1.0386,-1.2275,-1.3909,-1.5279,-1.6344,-1.7716,-1.9347,-2.0232,-2.0539,-2.0413,-2.0809,-2.1851,-2.3293,-2.4228,-2.4788,-2.5143,-2.592,-2.6484,-2.7078,0.0,0.0,0.0,0.0,0.0,0.0,0.0,0.0,0.0,0.0,0.0,0.0,0.0,0.0,0.0,3.4314,3.3832,3.3532,3.3532,3.2095,3.1263,3.1276,2.9532,2.856,2.8582,2.7279,0.0,0.0,0.0,0.0,0.0,0.0,2.3261,2.3242,2.2861,2.2452,2.2089,0.0,2.1633,2.0952,0.0,2.0266,2.0201,0.0,0.0,0.0,1.9384,1.9583,0.0,1.9384,0.0,0.0,0.0,0.0,0.0,0.0,0.0,0.0,0.0,0.0,0.0,0.0,2.1365,2.1553,2.1087,2.0997,2.0862,2.0382,2.0292,2.0292,2.0292,2.0292,2.0699,2.1874,2.2052,2.1963,2.1696,2.0853,2.0121,1.953,1.7708,1.6311,1.5825,1.4352,1.3093,1.229,1.0583,0.8262,0.527,0.3806,0.1007,-0.3462,-0.4918,-0.6822,-0.9167,-0.9255,-1.0471,-1.2775,-1.3759,-1.5326,-1.7382,-1.8365,-1.9355,-2.0374,-2.1552,-2.1819,-2.1526,-2.2702,-2.3364,-2.3855,-2.5613,-2.6522,-2.6953,-2.825,-2.8724,-2.8724,0.0,0.0,0.0,0.0,0.0,0.0,0.0,0.0,0.0,0.0,0.0,0.0,0.0,0.0,0.0,3.2407,3.2241,3.2155,3.2155,3.0766,3.0022,3.0234,2.8241,2.7471,2.8137,2.735,2.7214,0.0,0.0,0.0,0.0,0.0,0.0,0.0,2.2034,2.1843,2.2084,2.1518,0.0,2.0907,1.9704,1.9117,0.0,0.0,0.0,0.0,0.0,1.7458,1.7652,0.0,1.7971,1.821,0.0,0.0,0.0,0.0,0.0,0.0,2.052,0.0,0.0,0.0,0.0,0.0,2.0645,2.051,2.0464,2.0337,2.0292,2.0292,2.0292,2.0292,2.0428,2.0744,2.0789,2.0789,2.0699,2.0464,2.0002,1.9117,1.7507,1.6149,1.5283,1.2969,1.1224,1.0386,0.9004,0.6793,0.3636,0.0703,-0.1762,-0.3847,-0.5962,-0.7739,-0.9172,-1.0864,-1.2436,-1.3789,-1.5048,-1.6706,-1.8688,-1.9109,-1.9857,-2.0907,-2.2385,-2.2955,-2.2911,-2.3943,-2.4711,-2.537,-2.6583,-2.707,-2.7275,-2.8326,-2.9037,-2.9624,0.0,0.0,0.0,0.0,0.0,0.0,0.0,0.0,0.0,0.0,0.0,0.0,0.0,0.0,0.0,3.1488,3.1444,3.14,3.1288,3.0079,2.9464,2.9612,2.8082,2.7441,2.7987,2.7423,2.7169,0.0,0.0,0.0,0.0,0.0,0.0,0.0,0.0,0.0,0.0,0.0,0.0,0.0,1.9167,0.0,0.0,1.6947,1.6386,0.0,0.0,0.0,1.6567,1.6513,1.699,0.0,0.0,0.0,0.0,0.0,0.0,0.0,0.0,0.0,0.0,0.0,0.0,0.0,1.9828,1.9745,1.9737,1.9463,1.9371,1.9425,1.9525,1.9471,1.9425,1.9525,1.9471,1.96,2.0201,2.0292,1.982,1.8503,1.7654,1.6479,1.4698,1.2963,1.1268,0.9706,0.8654,0.6344,0.2349,-0.1258,-0.3728,-0.4794,-0.717,-0.895,-0.9999,-1.1922,-1.3615,-1.505,-1.6336,-1.7763,-1.9338,-1.9894,-2.0664,-2.165,-2.3086,-2.391,-2.4372,-2.5358,-2.5935,-2.6276,-2.741,-2.7876,-2.8042,-2.9331,-3.0057,-3.0554,0.0,0.0,0.0,0.0,0.0,0.0,0.0,0.0,0.0,0.0,0.0,0.0,0.0,0.0,0.0,0.0,3.0866,3.0765,3.0506,2.967,0.0,2.9189,2.8387,2.7904,2.7904,2.7511,2.7025,0.0,0.0,0.0,0.0,0.0,0.0,0.0,0.0,0.0,0.0,0.0,0.0,2.0281,1.8783,1.8137,0.0,0.0,1.5575,1.5371,1.4704,1.5229,1.6075,1.5548,1.6459,0.0,0.0,0.0,0.0,0.0,1.804,0.0,0.0,0.0,0.0,0.0,1.9225,0.0,1.8866,1.892,1.8912,1.8357,1.8172,1.8179,1.8566,1.8326,1.8179,1.8435,1.828,1.8542,1.9874,2.0065,1.9492,1.794,1.7716,1.672,1.4208,1.3451,1.2047,0.9604,0.8541,0.5983,0.13,-0.2415,-0.4991,-0.6208,-0.8556,-1.0304,-1.1409,-1.2791,-1.4458,-1.6418,-1.7633,-1.8724,-1.972,-2.0673,-2.1615,-2.2526,-2.3651,-2.4681,-2.5621,-2.6745,-2.6962,-2.67,-2.8071,-2.8643,-2.8902,-3.0579,-3.1291,-3.1516,0.0,0.0,0.0,0.0,0.0,0.0,0.0,0.0,0.0,0.0,0.0,0.0,0.0,0.0,0.0,0.0,0.0,2.862,2.8574,2.8164,2.794,2.794,2.7631,2.7441,2.7441,2.7358,2.7263,0.0,0.0,0.0,0.0,0.0,0.0,0.0,0.0,0.0,0.0,0.0,0.0,1.9103,1.8472,1.7601,1.6545,1.5345,1.4286,1.3383,1.3238,1.3335,1.3715,1.4704,1.5609,1.6372,1.7185,0.0,0.0,1.7721,0.0,0.0,0.0,0.0,0.0,0.0,1.8357,0.0,1.8265,1.8272,1.8496,1.908,1.8627,1.8357,1.918,1.8635,1.8133,1.8179,1.8133,1.8218,1.8496,1.8542,1.8404,1.8071,1.6405,1.5073,1.4507,1.1989,0.9797,0.8418,0.4993,0.2201,0.0353,-0.2908,-0.561,-0.7528,-0.9954,-1.1678,-1.2716,-1.4792,-1.6436,-1.7647,-1.8937,-2.0065,-2.1024,-2.1419,-2.2069,-2.3008,-2.4016,-2.4904,-2.583,-2.6798,-2.7149,-2.7113,-2.7843,-2.8356,-2.8856,-3.0186,-3.1252,-3.2183,0.0,0.0,0.0,0.0,0.0,0.0,0.0,0.0,0.0,0.0,0.0,0.0,0.0,0.0,0.0,0.0,0.0,0.0,0.0,0.0,2.7452,2.7452,2.7225,2.687,2.6302,2.6167,2.5567,0.0,0.0,0.0,0.0,0.0,0.0,0.0,0.0,0.0,0.0,0.0,2.0447,1.9538,1.8232,0.0,1.5532,1.4483,1.343,1.2548,1.2537,1.2557,1.2743,1.4028,1.4889,1.5466,1.5994,1.652,1.6958,1.7106,1.7153,1.72,0.0,0.0,0.0,1.7333,1.7434,0.0,0.0,1.7481,1.7667,1.7971,1.78,1.7714,1.8295,1.8025,1.7707,1.7707,1.7621,1.7481,1.738,1.7761,1.78,1.7037,1.6372,1.527,1.3457,1.2242,1.0324,0.7412,0.3703,0.0653,-0.1465,-0.3759,-0.6307,-0.9122,-1.0873,-1.228,-1.3278,-1.5545,-1.7192,-1.8187,-1.9484,-2.0621,-2.1571,-2.2122,-2.2887,-2.3844,-2.4776,-2.5673,-2.6528,-2.7015,-2.719,-2.7236,-2.7782,-2.8487,-2.9359,-3.0197,-3.1274,-3.2345,0.0,0.0,0.0,0.0,0.0,0.0,0.0,0.0,0.0,0.0,0.0,0.0,0.0,0.0,0.0,0.0,0.0,0.0,0.0,0.0,0.0,2.7214,2.6986,2.6438,2.5557,2.5129,2.4038,0.0,0.0,0.0,0.0,0.0,0.0,0.0,0.0,0.0,0.0,0.0,0.0,1.9539,0.0,1.6433,1.5369,1.4059,1.3143,1.2481,1.2269,1.2168,1.2271,1.3571,1.4304,1.4717,1.5156,1.5865,1.6447,1.6494,1.6541,0.0,0.0,1.6588,1.6588,1.6588,1.6784,1.6878,0.0,0.0,0.0,1.6857,1.6918,1.7019,1.7372,1.7279,1.7171,1.7105,1.7023,1.681,1.6551,1.725,1.7326,1.6089,1.6325,1.5419,1.2554,1.2446,1.0596,0.6001,0.3108,0.0101,-0.3338,-0.4664,-0.7009,-1.0568,-1.1604,-1.2708,-1.4135,-1.6211,-1.777,-1.8795,-2.0002,-2.0953,-2.1731,-2.2658,-2.3607,-2.4541,-2.5411,-2.631,-2.719,-2.719,-2.719,-2.7224,-2.7679,-2.8575,-2.9657,-3.0188,-3.1115,-3.214,3.544,3.5101,0.0,0.0,0.0,0.0,0.0,0.0,0.0,0.0,0.0,0.0,0.0,0.0,0.0,0.0,0.0,0.0,2.5839,0.0,0.0,0.0,2.6699,2.6496,2.6342,2.5392,2.4786,0.0,0.0,0.0,0.0,0.0,0.0,0.0,2.0189,0.0,0.0,0.0,1.8857,0.0,1.6495,1.6814,1.7177,1.5008,1.3835,1.3211,1.2243,1.1601,1.1551,1.3791,1.3969,1.369,1.5842,1.6238,1.5927,1.617,1.6272,1.6312,1.6541,1.6588,1.6588,1.6588,1.6629,1.6636,1.6636,0.0,1.6857,1.7669,0.0,1.6911,1.7762,0.0,0.0,1.6363,1.65,1.6537,1.6271,1.6553,1.6723,1.6534,1.4997,1.3752,1.3366,1.0672,0.7294,0.3149,0.206,-0.0202,-0.4407,-0.5458,-0.7737,-1.1672,-1.2095,-1.3625,-1.6483,-1.7903,-1.9095,-2.0109,-2.1069,-2.1579,-2.1731,-2.2678,-2.3591,-2.4541,-2.5411,-2.631,-2.719,-2.719,-2.719,-2.7201,-2.7247,-2.7927,-2.8915,-2.9626,-3.0536,-3.1605,0.0,3.4121,0.0,0.0,0.0,0.0,0.0,0.0,0.0,0.0,0.0,0.0,0.0,0.0,0.0,0.0,0.0,2.5246,0.0,0.0,0.0,0.0,2.6052,2.5197,2.4442,2.3194,2.2282,2.1633,2.0739,0.0,0.0,0.0,0.0,0.0,2.0078,0.0,2.0078,0.0,1.9398,0.0,1.7549,1.7429,1.7316,1.4312,1.2994,1.2611,1.2015,1.1559,1.1396,1.2238,1.2959,1.3546,1.3596,1.4649,1.5757,1.5258,1.5452,1.5832,1.592,1.5527,1.514,1.5594,1.5248,1.4956,1.5594,1.5743,1.5832,1.6237,0.0,0.0,0.0,0.0,0.0,0.0,1.5833,1.5826,1.5577,1.5664,1.5886,1.6312,1.5445,1.3974,1.1871,0.8685,0.5347,0.1938,0.0501,-0.1863,-0.5512,-0.6509,-0.8601,-1.2296,-1.2496,-1.4028,-1.7082,-1.8257,-1.9298,-2.0331,-2.1239,-2.1983,-2.2551,-2.3472,-2.441,-2.5317,-2.6207,-2.6839,-2.719,-2.719,-2.719,-2.719,-2.719,-2.809,-2.93,-2.9215,-3.0335,-3.1889,0.0,0.0,0.0,0.0,0.0,0.0,0.0,0.0,0.0,0.0,0.0,0.0,2.8395,2.7468,0.0,0.0,2.4884,2.4501,2.4688,0.0,2.4952,0.0,0.0,0.0,0.0,2.154,2.0534,0.0,0.0,0.0,0.0,0.0,0.0,0.0,0.0,1.9879,1.9879,0.0,1.9406,1.8617,1.7772,1.6929,1.5921,1.3727,1.2562,1.204,1.1886,1.1588,1.129,1.1444,1.2318,1.3125,1.2302,1.3479,1.5048,1.4166,1.4309,1.4829,1.4973,1.4472,1.4082,1.4885,1.4496,1.4148,1.4933,1.5083,1.5083,1.5083,1.5213,0.0,0.0,0.0,0.0,0.0,0.0,1.5229,1.4975,1.5032,1.5322,1.5845,1.5201,1.3434,1.0098,0.7502,0.4598,0.1142,-0.055,-0.2912,-0.6453,-0.767,-0.9628,-1.2618,-1.2967,-1.4605,-1.7684,-1.8437,-1.9446,-2.0677,-2.1355,-2.2199,-2.313,-2.4065,-2.4973,-2.5835,-2.6791,-2.719,-2.719,-2.719,-2.719,-2.719,-2.719,-2.812,-2.947,-2.913,-3.028,-3.2008,3.1881,3.2276,0.0,0.0,0.0,0.0,0.0,0.0,0.0,0.0,0.0,0.0,0.0,0.0,0.0,0.0,0.0,2.1361,2.2139,2.1954,2.2215,0.0,0.0,2.2534,0.0,2.143,2.0885,0.0,0.0,0.0,0.0,0.0,0.0,0.0,1.9331,1.9331,1.9331,1.9331,1.8042,1.6021,1.5968,1.4578,1.2654,1.3738,1.3246,1.1991,1.1987,1.154,1.1091,1.2396,1.2351,1.1996,1.3226,1.3501,1.3319,1.2951,1.2951,1.3181,1.3612,1.3834,1.41,1.4885,1.5083,1.5083,1.5083,1.5083,1.5083,1.5083,1.5131,1.5131,1.5131,0.0,0.0,0.0,0.0,0.0,0.0,1.4911,1.5131,1.5131,1.3366,1.1156,0.8693,0.766,0.5157,0.0401,-0.05,-0.2695,-0.6933,-0.8935,-1.0771,-1.2618,-1.3703,-1.5724,-1.8744,-1.8766,-1.9781,-2.1642,-2.1687,-2.2199,-2.3156,-2.4073,-2.4961,-2.5835,-2.6791,-2.719,-2.719,-2.719,-2.719,-2.719,-2.719,-2.7828,-2.883,-2.9513,-3.0446,-3.1516,0.0,0.0,0.0,0.0,0.0,0.0,0.0,2.8896,0.0,0.0,2.8023,0.0,0.0,2.5954,2.4826,0.0,0.0,2.2072,2.2367,2.2106,2.2291,2.3144,2.224,2.1633,0.0,0.0,0.0,0.0,0.0,0.0,0.0,0.0,0.0,0.0,0.0,1.9026,0.0,0.0,0.0,0.0,1.4787,1.3236,1.1951,1.2545,1.2436,1.2005,1.1787,1.1583,1.1376,1.1647,1.2067,1.2365,1.1718,1.2332,1.3132,1.2307,1.2311,1.2654,1.2796,1.2233,1.1981,1.3557,1.3286,1.3024,1.4521,1.4679,1.4592,1.4592,1.4592,1.4592,1.4592,0.0,0.0,0.0,0.0,0.0,0.0,1.353,1.3383,1.2834,1.215,1.0516,0.739,0.5553,0.3008,-0.0755,-0.2868,-0.4922,-0.7099,-0.9484,-1.136,-1.2657,-1.3731,-1.573,-1.8752,-1.8811,-1.9781,-2.1696,-2.2326,-2.313,-2.4049,-2.4967,-2.5864,-2.6749,-2.7067,-2.719,-2.719,-2.719,-2.719,-2.719,-2.719,-2.812,-2.947,-2.9694,-3.0735,-3.214,3.1705,0.0,0.0,0.0,0.0,0.0,2.8943,2.856,2.8175,2.7683,2.7352,2.6972,2.6418,2.5382,2.4393,2.3651,2.2568,2.1869,2.1776,2.1548,2.1582,2.1988,2.1081,2.0483,2.0328,0.0,0.0,0.0,0.0,1.9175,0.0,0.0,0.0,0.0,0.0,1.8921,1.8869,1.8757,1.7733,0.0,1.3609,1.2268,1.1623,1.1678,1.1673,1.1678,1.1459,1.135,1.124,1.1021,1.145,1.1914,1.0829,1.1379,1.2205,1.1438,1.1396,1.1585,1.1741,1.1119,1.0811,1.2355,1.2098,1.1849,1.3272,1.3447,1.3325,1.3325,1.3276,1.3204,1.3269,1.2921,0.0,0.0,0.0,0.0,0.0,1.2111,1.1717,1.1126,1.1023,0.9719,0.6429,0.4505,0.1855,-0.2157,-0.4338,-0.6155,-0.7813,-1.0524,-1.225,-1.2691,-1.445,-1.6476,-1.8799,-1.9149,-2.0117,-2.1696,-2.2669,-2.3605,-2.4533,-2.5384,-2.6311,-2.7179,-2.7278,-2.7278,-2.7231,-2.726,-2.726,-2.7242,-2.7661,-2.8657,-2.9821,-3.0062,-3.1392,-3.3177,3.1705,3.1661,0.0,3.1572,3.0802,2.9897,2.8943,2.8128,2.7589,2.7542,2.6877,2.6312,2.5994,2.459,2.3552,2.3229,2.1827,2.0771,2.0522,2.0248,1.9983,1.9732,1.9428,1.9279,1.9279,1.9279,0.0,0.0,0.0,0.0,0.0,0.0,0.0,0.0,1.8869,0.0,1.8757,1.8429,1.6982,1.4685,1.2432,1.1568,1.1514,1.1181,1.1072,1.1072,1.1072,1.0911,1.0692,1.0692,1.0692,1.0692,1.0692,1.0692,1.0637,1.0366,1.0136,1.0053,1.0531,1.0518,1.0594,1.13,1.1493,1.154,1.154,1.1531,1.1522,1.1522,1.1315,1.1153,1.1267,1.1134,1.092,0.0,0.0,0.0,0.0,1.0818,1.0177,0.9846,0.9747,0.8629,0.5815,0.4455,0.1602,-0.3586,-0.4776,-0.6419,-0.9095,-1.191,-1.3203,-1.2744,-1.5724,-1.7779,-1.88,-1.9795,-2.0784,-2.175,-2.2723,-2.3681,-2.4577,-2.5472,-2.6374,-2.7219,-2.7424,-2.7395,-2.7272,-2.7452,-2.7412,-2.7359,-2.8586,-2.9409,-3.0056,-3.0682,-3.2393,-3.4397,3.1705,3.1395,3.0836,2.9909,3.0023,2.9897,2.8943,2.8128,2.74,2.6829,2.6109,2.5197,2.4115,2.327,2.2619,2.2173,2.1377,2.0865,2.0822,2.0344,2.0086,1.9983,1.9532,1.9279,1.9279,1.9279,1.9279,1.9279,0.0,0.0,1.8921,0.0,0.0,0.0,0.0,0.0,1.7239,1.6982,1.5375,1.2955,1.1505,1.0911,1.0911,1.0857,1.0802,1.0802,1.0802,1.0747,1.0692,1.0692,1.0692,1.0692,1.0692,1.0692,1.0637,1.0366,1.0116,0.9859,0.9749,0.9505,0.9356,0.954,1.0099,1.0596,1.0571,1.0402,1.025,1.025,1.0199,1.009,0.9809,1.0255,1.0569,0.0,0.0,0.0,0.0,0.9456,0.8658,0.7211,0.6344,0.5442,0.451,0.2003,-0.0802,-0.3773,-0.5463,-0.7385,-0.9654,-1.1404,-1.2618,-1.3258,-1.5886,-1.7867,-1.9006,-1.9883,-2.0953,-2.2262,-2.3677,-2.4574,-2.5066,-2.6438,-2.7319,-2.7719,-2.7545,-2.7597,-2.7719,-2.78,-2.776,-2.7847,-2.9213,-3.0826,-3.2441,-3.2664,-3.3427,-3.4397,3.1071,3.0521,2.9818,2.8934,2.8841,2.8667,2.793,2.7115,2.6446,2.6013,2.5294,2.4421,2.3429,2.2828,2.2274,2.1725,2.1224,2.0865,2.0719,2.0344,1.982,1.919,1.8788,1.8318,1.7832,1.7832,1.8048,1.8534,0.0,0.0,1.8921,0.0,0.0,0.0,0.0,1.816,1.7345,1.6074,1.4358,1.2309,1.1177,1.0692,0.0,1.0692,1.0692,1.0692,1.0692,1.0692,1.0692,1.0692,1.0692,1.0692,1.0692,1.0245,0.9801,1.0198,0.9588,0.8816,0.865,0.8377,0.7983,0.7517,0.7792,0.8173,0.8106,0.7986,0.7877,0.7877,0.777,0.7624,0.7439,0.8008,0.8422,0.0,0.0,0.0,0.7816,0.7372,0.6775,0.6066,0.4309,0.3111,0.297,0.005,-0.2752,-0.4878,-0.6457,-0.8319,-1.0536,-1.1796,-1.2969,-1.4141,-1.6428,-1.8164,-1.9251,-2.0164,-2.122,-2.2434,-2.4132,-2.5049,-2.5238,-2.6921,-2.7771,-2.7906,-2.7822,-2.7827,-2.7926,-2.7978,-2.8002,-2.8073,-3.0016,-3.2021,-3.3816,-3.4249,-3.4395,-3.4397,3.0159,2.9406,2.8656,2.8085,2.7426,2.6771,2.6264,2.5684,2.5294,2.5294,2.4677,2.3945,2.3279,2.2778,2.2274,2.1623,2.1173,2.0771,2.0522,2.0241,1.945,1.8042,1.7733,1.7047,1.5914,1.5914,1.6452,1.7582,0.0,0.0,0.0,0.0,0.0,0.0,0.0,0.0,0.0,1.5215,1.3388,1.2091,1.1122,1.0692,1.0692,1.0527,1.0582,1.0692,1.0527,1.0582,1.0692,1.0692,1.0582,1.0468,1.0468,0.9467,0.8468,0.9475,0.8644,0.7371,0.7313,0.7093,0.6591,0.5475,0.5306,0.5361,0.5194,0.5139,0.5139,0.5139,0.4918,0.4729,0.4813,0.5313,0.5557,0.497,0.5539,0.5927,0.5463,0.4822,0.4626,0.5214,0.2864,0.0,0.1361,-0.1402,-0.4043,-0.6053,-0.731,-0.9031,-1.15,-1.2542,-1.3776,-1.5272,-1.7217,-1.873,-1.9749,-2.0722,-2.1616,-2.2494,-2.4351,-2.5232,-2.5327,-2.7125,-2.7943,-2.7999,-2.8139,-2.8136,-2.8011,-2.8167,-2.8279,-2.8602,-3.0876,-3.2885,-3.457,-3.529,-3.514,-3.4564,2.9417,2.8319,0.0,2.6559,2.5993,2.5392,2.4735,2.5011,2.5294,2.5294,2.4677,2.3795,2.2728,2.2577,2.2131,2.1121,2.0968,2.0771,2.0522,2.0241,1.945,1.8042,1.7733,1.7047,1.5914,1.5914,1.6452,1.7582,1.7582,0.0,0.0,0.0,0.0,0.0,0.0,0.0,1.5108,1.2743,1.145,1.0962,1.0802,1.0692,1.0582,0.9585,0.9805,1.0582,0.9585,0.986,1.0692,1.0692,1.0029,0.9199,0.9199,0.8192,0.7022,0.7027,0.6586,0.6089,0.5862,0.575,0.5417,0.4193,0.4637,0.5139,0.4137,0.3914,0.3914,0.3914,0.3858,0.3729,0.3449,0.4146,0.4407,0.3392,0.3908,0.3867,0.2253,0.2107,0.1959,0.1457,-0.005,-0.0704,0.0202,-0.1812,-0.3714,-0.4997,-0.6877,-0.9199,-1.2029,-1.2753,-1.4274,-1.6835,-1.8426,-1.981,-2.0983,-2.1759,-2.2431,-2.2998,-2.4658,-2.5529,-2.574,-2.739,-2.8239,-2.8387,-2.8239,-2.8279,-2.8419,-2.8419,-2.9383,-3.0855,-3.1422,-3.2959,-3.487,-3.4713,-3.4982,-3.5467,2.7814,0.0,0.0,2.5712,2.5148,2.4627,2.4251,2.4489,2.4726,2.4726,2.4134,2.3438,2.2577,2.2274,2.1623,2.0403,2.03,1.9828,1.8826,1.919,1.8394,1.6133,1.6452,1.5914,1.4099,1.4099,1.4953,1.6723,1.614,1.6723,0.0,0.0,0.0,0.0,0.0,1.5535,0.0,1.2472,1.1118,0.975,0.975,0.9416,0.8748,0.8195,0.8306,0.8748,0.8195,0.8361,0.8913,0.9526,0.8975,0.7974,0.7974,0.6972,0.5862,0.6195,0.5641,0.4808,0.4528,0.447,0.4193,0.2967,0.3079,0.3357,0.28,0.2184,0.1903,0.252,0.2184,0.1782,0.2025,0.2297,0.2142,0.0878,0.1829,0.2058,0.005,-0.015,-0.0201,-0.0603,-0.2206,-0.286,-0.1764,-0.3618,-0.4864,-0.48,-0.7316,-1.0033,-1.2775,-1.3194,-1.4771,-1.7991,-1.8792,-1.9884,-2.1473,-2.1852,-2.2635,-2.3857,-2.5057,-2.5955,-2.6582,-2.781,-2.8395,-2.851,-2.8395,-2.8395,-2.8522,-2.8778,-2.9637,-3.0822,-3.1609,-3.2749,-3.3999,-3.4246,-3.4927,-3.5696,2.6264,2.5586,2.506,2.506,2.4578,2.4202,2.4202,2.4202,2.4152,2.4053,2.3587,2.3029,2.2375,2.1818,2.0952,1.9776,1.9406,1.8617,1.7186,1.7818,1.7022,1.4326,1.5072,1.4524,1.2441,1.2387,1.3403,1.5435,1.4589,1.5232,1.7094,0.0,0.0,1.528,1.4583,1.3604,1.2403,1.2191,1.0718,0.853,0.853,0.7974,0.7083,0.6808,0.6864,0.7085,0.6808,0.6753,0.6864,0.7811,0.7531,0.6753,0.6753,0.5697,0.4641,0.5419,0.4697,0.3583,0.3358,0.3246,0.2911,0.1738,0.1402,0.1346,0.1065,0.028,-0.0112,0.0841,0.028,-0.0223,0.0385,0.0324,-0.0265,-0.1667,-0.046,-0.005,-0.2159,-0.236,-0.2359,-0.2509,-0.4055,-0.4808,-0.3967,-0.561,-0.6501,-0.5844,-0.8333,-1.0927,-1.3385,-1.3844,-1.5511,-1.8707,-1.8991,-1.9939,-2.1664,-2.1886,-2.2858,-2.451,-2.5389,-2.6287,-2.7252,-2.8076,-2.851,-2.851,-2.851,-2.8574,-2.8714,-2.9239,-2.9792,-3.0382,-3.1631,-3.2483,-3.3064,-3.3753,-3.462,-3.5386,2.5382,2.4815,2.4291,2.4291,2.4251,2.4202,2.4202,2.4202,2.3994,2.3488,2.3329,2.2929,2.1878,2.1105,2.0388,1.9724,1.8499,1.7542,1.7134,1.6751,1.5849,1.4272,1.4326,1.3732,1.2436,1.2387,1.2866,1.3884,1.411,1.4691,1.5583,1.5488,1.528,1.4959,1.2861,1.1651,1.118,1.0171,0.8744,0.7249,0.7249,0.7193,0.6972,0.598,0.62,0.6972,0.5924,0.5536,0.5592,0.5704,0.5648,0.5536,0.5536,0.4533,0.3305,0.3361,0.2914,0.2355,0.2355,0.2131,0.1682,0.0449,0.0168,-0.0112,-0.1232,-0.1567,-0.1623,-0.1512,-0.1567,-0.1679,-0.1844,-0.1708,-0.211,-0.3667,-0.2976,-0.2922,-0.4941,-0.483,-0.4776,-0.5515,-0.5962,-0.6203,-0.6088,-0.7137,-0.8234,-0.9072,-1.0064,-1.1453,-1.338,-1.5064,-1.6839,-1.8762,-1.9645,-2.0596,-2.1708,-2.2518,-2.3495,-2.4499,-2.5378,-2.6302,-2.7252,-2.8076,-2.851,-2.851,-2.851,-2.8778,-2.9279,-2.9819,-3.0346,-3.0906,-3.1492,-3.2255,-3.3,-3.3096,-3.3679,-3.4449,2.4627,2.439,2.4202,2.4202,2.4202,2.3954,2.3288,2.302,2.2501,2.1218,2.1692,2.1802,2.1046,1.9916,1.8982,1.8251,1.7345,1.6393,1.5441,1.5435,1.4793,1.3197,1.3792,1.363,1.2436,1.2387,1.2817,1.3727,1.33,1.3565,1.4363,1.3668,1.2743,1.1588,1.0676,0.968,0.8669,0.8186,0.7252,0.6091,0.6091,0.5646,0.4977,0.4479,0.4589,0.4921,0.4479,0.3974,0.347,0.347,0.3863,0.4313,0.4313,0.3754,0.3082,0.2915,0.2073,0.1121,0.0953,0.028,-0.0504,-0.0952,-0.1064,-0.1232,-0.1679,-0.2351,-0.2686,-0.1959,-0.2351,-0.291,-0.3022,-0.3091,-0.3537,-0.4811,-0.4635,-0.4891,-0.6692,-0.7077,-0.7425,-0.806,-0.8841,-0.9034,-0.8389,-0.928,-1.0262,-1.1137,-1.1507,-1.2463,-1.434,-1.6123,-1.7882,-1.9607,-2.0574,-2.1581,-2.2518,-2.3451,-2.4392,-2.5284,-2.6181,-2.7125,-2.8001,-2.8331,-2.851,-2.8522,-2.8842,-2.9099,-2.9377,-3.0223,-3.0731,-3.0962,-3.1472,-3.1922,-3.222,-3.222,-3.276,-3.3541,2.4202,2.4202,2.4202,2.4202,2.4202,2.3795,2.2568,2.2198,2.1473,1.9731,1.9996,2.021,1.9916,1.8774,1.7733,1.6988,1.6187,1.5179,1.4008,1.4105,1.3673,1.2436,1.3197,1.3251,1.2436,1.2332,1.2545,1.3078,1.2491,1.2432,1.2916,1.1773,1.057,0.9361,0.8916,0.7916,0.6586,0.6586,0.5922,0.4869,0.4869,0.4369,0.3587,0.3306,0.3194,0.3138,0.2914,0.2241,0.1567,0.1567,0.1903,0.2295,0.2464,0.224,0.1903,0.1681,0.084,-0.0056,-0.0336,-0.1064,-0.1903,-0.2239,-0.2351,-0.2407,-0.2799,-0.3526,-0.3861,-0.3023,-0.3748,-0.4531,-0.4531,-0.4871,-0.5425,-0.627,-0.6449,-0.6886,-0.8047,-0.8758,-0.9371,-1.0006,-1.0734,-1.1121,-1.0877,-1.156,-1.2334,-1.3091,-1.3603,-1.4453,-1.5749,-1.7232,-1.8706,-2.0134,-2.1158,-2.2034,-2.2688,-2.3911,-2.4947,-2.5818,-2.6746,-2.7643,-2.851,-2.851,-2.8586,-2.8766,-2.9151,-2.9464,-2.9818,-3.0608,-3.1,-3.116,-3.1569,-3.1705,-3.1705,-3.1705,-3.2083,-3.2644,2.4202,2.4202,2.4202,2.4202,2.4202,2.3737,2.2291,2.2089,2.1422,1.948,1.8499,1.8146,1.8422,1.7674,1.6988,1.6346,1.5018,1.3954,1.3369,1.2767,1.2436,1.2387,1.2387,1.2387,1.2387,1.2164,1.1896,1.1623,1.1623,1.1459,1.1126,0.9966,0.9416,0.9361,0.7805,0.6478,0.5427,0.5427,0.4702,0.3643,0.3643,0.3587,0.3475,0.2576,0.224,0.2128,0.1233,0.056,0.0,0.0,-0.0336,-0.0726,-0.0168,-0.0391,-0.0838,-0.0838,-0.1063,-0.1287,-0.1287,-0.1512,-0.2071,-0.3301,-0.358,-0.3917,-0.5098,-0.5382,-0.5382,-0.5382,-0.6049,-0.6657,-0.6657,-0.7371,-0.8039,-0.8234,-0.8746,-0.9111,-0.9104,-0.9614,-1.0301,-1.1096,-1.117,-1.1901,-1.3661,-1.3854,-1.419,-1.5003,-1.6673,-1.7618,-1.7585,-1.8331,-1.9217,-2.0149,-2.1169,-2.1727,-2.1717,-2.3569,-2.4956,-2.5814,-2.6759,-2.7643,-2.851,-2.851,-2.8778,-2.9291,-2.9291,-2.9897,-3.0897,-3.0864,-3.1216,-3.1705,-3.1705,-3.1705,-3.1705,-3.1705,-3.1717,-3.1717,2.4202,2.4202,2.3954,2.3188,2.287,2.2089,2.0151,1.9531,1.8805,1.7417,1.6836,1.6624,1.6683,1.6471,1.6099,1.5458,1.4654,1.3954,1.3315,1.2713,1.2387,1.2387,1.2387,1.2387,1.2387,1.2332,1.206,1.1623,1.0954,0.9959,0.8741,0.9192,0.842,0.6647,0.6146,0.5258,0.4145,0.4145,0.3977,0.3531,0.2913,0.2632,0.252,0.1681,0.1064,0.0672,0.0392,-0.0504,-0.1512,-0.1512,-0.235,-0.33,-0.3134,-0.2181,-0.1175,-0.1175,-0.1958,-0.2853,-0.2853,-0.3526,-0.4369,-0.4706,-0.4817,-0.4931,-0.5326,-0.5882,-0.6434,-0.7038,-0.7371,-0.7593,-0.7593,-0.7811,-0.818,-0.8626,-0.9302,-0.9994,-1.071,-1.1248,-1.1814,-1.2396,-1.2834,-1.327,-1.3854,-1.4382,-1.5051,-1.5812,-1.6372,-1.6982,-1.7647,-1.9633,-2.0915,-2.1222,-2.217,-2.2974,-2.3612,-2.481,-2.586,-2.6771,-2.7643,-2.8255,-2.851,-2.8894,-2.9151,-2.9325,-3.0079,-3.0596,-3.0932,-3.1284,-3.1569,-3.1705,-3.1705,-3.1705,-3.1705,-3.1705,-3.1705,-3.1705,2.4202,2.3786,2.317,2.2459,2.1785,2.0656,1.8767,1.8199,1.7569,1.6318,1.5998,1.5891,1.5891,1.5891,1.5571,1.4767,1.4385,1.3846,1.3039,1.2604,1.2387,1.2387,1.2387,1.2278,1.1946,1.1782,1.1341,1.046,0.9515,0.8462,0.7415,0.775,0.698,0.5371,0.4925,0.4313,0.3587,0.3587,0.3418,0.3025,0.2409,0.2017,0.1569,0.0504,-0.0168,-0.056,-0.1119,-0.2294,-0.3525,-0.3191,-0.4306,-0.5757,-0.5427,-0.4639,-0.3685,-0.3022,-0.3526,-0.4255,-0.4255,-0.5039,-0.5882,-0.5882,-0.6158,-0.6376,-0.6376,-0.6821,-0.7318,-0.7867,-0.8306,-0.8527,-0.8527,-0.8968,-0.9409,-0.9574,-1.0311,-1.1188,-1.2004,-1.2563,-1.31,-1.3773,-1.405,-1.4304,-1.4592,-1.4962,-1.5717,-1.6936,-1.7397,-1.8045,-1.9138,-2.0411,-2.1491,-2.2189,-2.2804,-2.3559,-2.451,-2.5338,-2.6287,-2.72,-2.8267,-2.8778,-2.883,-2.9355,-2.9731,-2.9958,-3.06,-3.1012,-3.1216,-3.1569,-3.1705,-3.1705,-3.1705,-3.1705,-3.1705,-3.1705,-3.1705,-3.1705,2.4102,2.2961,2.1979,2.1887,2.0751,1.9413,1.8087,1.7884,1.7358,1.6045,1.5891,1.5891,1.5891,1.5891,1.5458,1.4277,1.4223,1.3684,1.2495,1.2387,1.2387,1.2327,1.2327,1.1891,1.1017,1.0743,0.9856,0.8303,0.747,0.7027,0.6861,0.5868,0.5371,0.5204,0.4089,0.3587,0.3587,0.3531,0.3025,0.2184,0.2072,0.1513,0.0617,-0.084,-0.1456,-0.1735,-0.3193,-0.4644,-0.5757,-0.4979,-0.62,-0.7864,-0.7043,-0.7374,-0.7697,-0.6044,-0.5603,-0.5603,-0.5603,-0.6158,-0.6768,-0.6768,-0.7426,-0.8029,-0.8085,-0.8085,-0.814,-0.8195,-0.8861,-0.9471,-0.9471,-1.0629,-1.1404,-1.0966,-1.1782,-1.2582,-1.307,-1.3562,-1.4223,-1.501,-1.493,-1.5059,-1.5775,-1.5716,-1.6407,-1.828,-1.9355,-2.0434,-2.162,-2.0807,-2.115,-2.3047,-2.3154,-2.3632,-2.4574,-2.5448,-2.6394,-2.7378,-2.8714,-2.9365,-2.9382,-2.9911,-3.0413,-3.0876,-3.0932,-3.1228,-3.1705,-3.1705,-3.1705,-3.1705,-3.1705,-3.1705,-3.1705,-3.1705,-3.1705,-3.1705,2.2878,2.1785,2.0538,1.9738,1.8968,1.8087,1.6895,1.6524,1.6258,1.5939,1.5891,1.5891,1.5891,1.5891,1.5458,1.4277,1.4223,1.3684,1.2495,1.2387,1.211,1.1455,1.14,1.1013,1.0131,0.9574,0.8355,0.642,0.6861,0.6197,0.4421,0.5093,0.4925,0.4033,0.3699,0.3587,0.3531,0.2857,0.2408,0.2072,0.0728,-0.0168,-0.0896,-0.1962,-0.2913,-0.3861,-0.4921,-0.5815,-0.6543,-0.7035,-0.7531,-0.7974,-0.7756,-0.7811,-0.7919,-0.7479,-0.7368,-0.7368,-0.7368,-0.7534,-0.77,-0.77,-0.7867,-0.8195,-0.8916,-0.9082,-0.9251,-0.9915,-1.0249,-1.0414,-1.0414,-1.0692,-1.1291,-1.2481,-1.2916,-1.3599,-1.4997,-1.5147,-1.5191,-1.5376,-1.5727,-1.6013,-1.6147,-1.7341,-1.8255,-1.8729,-1.9632,-2.0588,-2.1652,-2.1482,-2.1874,-2.3047,-2.3793,-2.4574,-2.5488,-2.6405,-2.7505,-2.883,-2.9561,-2.9898,-2.993,-3.0477,-3.0763,-3.0932,-3.1352,-3.1569,-3.1705,-3.1705,-3.1705,-3.1705,-3.1705,-3.1705,-3.1705,-3.1705,-3.1705,-3.1705,2.1582,2.0444,1.9258,1.8558,1.7674,1.6836,1.6211,1.5998,1.5785,1.5517,1.5464,1.541,1.5137,1.5137,1.4595,1.329,1.3786,1.3516,1.1891,1.1782,1.1396,1.0515,1.0515,0.9962,0.8806,0.8472,0.7307,0.52,0.5421,0.4866,0.3587,0.4257,0.4201,0.3587,0.3138,0.2969,0.2913,0.2017,0.1401,0.0953,0.0,-0.1009,-0.2073,-0.3249,-0.4311,-0.5258,-0.6422,-0.7313,-0.7928,-0.7977,-0.8527,-0.9137,-0.8751,-0.8916,-0.9247,-0.9247,-0.8637,-0.7974,-0.7974,-0.8306,-0.8751,-0.9137,-0.9247,-0.9361,-0.986,-0.997,-1.03,-1.1282,-1.15,-1.166,-1.2146,-1.2472,-1.2906,-1.355,-1.3879,-1.4476,-1.5713,-1.5753,-1.5882,-1.6342,-1.6593,-1.6941,-1.7527,-1.8353,-1.9303,-2.0495,-2.1005,-2.1778,-2.2864,-2.2933,-2.3061,-2.3398,-2.4338,-2.5389,-2.6493,-2.7859,-2.8927,-2.9678,-3.0217,-3.0476,-3.0458,-3.1012,-3.1284,-3.1284,-3.1569,-3.1705,-3.1705,-3.1705,-3.1934,-3.2232,-3.1854,-3.1934,-3.2232,-3.1854,-3.1705,-3.1705,2.0238,1.905,1.808,1.7779,1.673,1.5891,1.5891,1.5838,1.5571,1.5095,1.4928,1.4659,1.4056,1.4002,1.3403,1.1928,1.2965,1.2861,1.1017,1.0907,1.0515,0.9633,0.9578,0.8916,0.7426,0.7204,0.6204,0.4369,0.3866,0.3587,0.3587,0.3475,0.3362,0.3362,0.2409,0.2017,0.196,0.1065,0.028,-0.0393,-0.0673,-0.1682,-0.3195,-0.4531,-0.5477,-0.6311,-0.7697,-0.8751,-0.9306,-0.864,-0.9416,-1.0578,-1.0021,-1.0351,-1.1017,-1.1177,-1.012,-0.8903,-0.8686,-0.935,-1.0288,-1.1013,-1.1232,-1.1232,-1.1232,-1.1232,-1.15,-1.2467,-1.2684,-1.2955,-1.3917,-1.4519,-1.4793,-1.446,-1.484,-1.5381,-1.6127,-1.618,-1.647,-1.7403,-1.7427,-1.7816,-1.9068,-1.914,-2.0079,-2.2497,-2.2782,-2.3308,-2.4356,-2.4535,-2.4476,-2.4246,-2.5112,-2.6271,-2.7719,-2.9379,-3.0223,-3.0243,-3.0741,-3.1012,-3.1024,-3.15,-3.1705,-3.1705,-3.1705,-3.1705,-3.1705,-3.1705,-3.2139,-3.2744,-3.1998,-3.2152,-3.2712,-3.199,-3.1705,-3.1705,1.9072,1.793,1.6889,1.6583,1.6211,1.5891,1.5891,1.5464,1.5089,1.4987,1.4606,1.4002,1.3181,1.3073,1.2526,1.1055,1.1109,1.0891,1.0072,1.0017,0.9636,0.8761,0.8702,0.8039,0.6541,0.5481,0.459,0.3755,0.3643,0.3587,0.3587,0.28,0.2408,0.2352,0.1513,0.1121,0.1065,0.0168,-0.028,-0.0505,-0.1795,-0.325,-0.4643,-0.5365,-0.6475,-0.7808,-0.8806,-0.9251,-0.9471,-1.008,-1.0468,-1.0852,-1.1655,-1.2037,-1.2309,-1.3275,-1.3372,-1.294,-1.1969,-1.2512,-1.3378,-1.3545,-1.3545,-1.3545,-1.3545,-1.3545,-1.3599,-1.3814,-1.3868,-1.3863,-1.4078,-1.4191,-1.462,-1.5755,-1.5861,-1.6187,-1.7483,-1.7477,-1.7404,-1.7574,-1.7732,-1.8331,-1.9434,-2.0424,-2.1539,-2.2852,-2.3655,-2.4204,-2.4368,-2.5209,-2.5839,-2.6152,-2.6706,-2.7861,-2.9666,-3.0391,-3.0771,-3.0785,-3.1296,-3.1569,-3.1569,-3.1649,-3.1705,-3.1705,-3.1705,-3.1705,-3.1705,-3.1705,-3.1785,-3.1865,-3.1751,-3.1776,-3.1866,-3.1773,-3.1705,-3.1705,1.7523,1.6948,1.6424,1.6105,1.5998,1.5891,1.5891,1.4965,1.4153,1.3835,1.296,1.2037,1.1328,1.1219,1.0781,0.9636,0.9526,0.9196,0.8423,0.8865,0.8589,0.7374,0.7654,0.7152,0.5817,0.4925,0.4201,0.3587,0.3081,0.2857,0.2801,0.1905,0.1513,0.1457,0.0617,0.0224,0.0168,-0.0785,-0.1177,-0.129,-0.2799,-0.4027,-0.5087,-0.6642,-0.7861,-0.8861,-0.9805,-1.008,-1.0135,-1.0582,-1.0692,-1.0907,-1.2041,-1.2417,-1.263,-1.376,-1.4078,-1.397,-1.3437,-1.3706,-1.4078,-1.4078,-1.4078,-1.4078,-1.4078,-1.4078,-1.4293,-1.4942,-1.5049,-1.5269,-1.5855,-1.5962,-1.6234,-1.6882,-1.6882,-1.7047,-1.7694,-1.7687,-1.7635,-1.7799,-1.8415,-1.9383,-2.081,-2.1971,-2.3117,-2.4377,-2.4842,-2.5081,-2.5092,-2.604,-2.6936,-2.7735,-2.8448,-2.9534,-3.0944,-3.1216,-3.1352,-3.1352,-3.1569,-3.1705,-3.1705,-3.1705,-3.1705,-3.1705,-3.1705,-3.1705,-3.1705,-3.1705,-3.199,-3.2372,-3.1893,-3.2006,-3.2357,-3.1866,-3.1705,-3.1705,1.6377,1.6324,1.6111,1.5618,1.5452,1.5286,1.5018,1.3868,1.2837,1.2358,1.1269,1.0233,0.9578,0.9523,0.914,0.8263,0.8208,0.7875,0.7043,0.7598,0.7485,0.6374,0.626,0.5813,0.4866,0.4086,0.3417,0.297,0.2241,0.1904,0.1904,0.1009,0.0617,0.0561,-0.0336,-0.0729,-0.0785,-0.1514,-0.2018,-0.2409,-0.3689,-0.4803,-0.5973,-0.7971,-0.9137,-0.9805,-1.0468,-1.0692,-1.0692,-1.0692,-1.0852,-1.1286,-1.2417,-1.3009,-1.3437,-1.4567,-1.4888,-1.4888,-1.4888,-1.4888,-1.4888,-1.4888,-1.4888,-1.4888,-1.4888,-1.4888,-1.5156,-1.6074,-1.6287,-1.6558,-1.7424,-1.7582,-1.7635,-1.7687,-1.7635,-1.7635,-1.7793,-1.7943,-1.8146,-1.8422,-1.9487,-2.0759,-2.2232,-2.3235,-2.4304,-2.5538,-2.5868,-2.6052,-2.6052,-2.7232,-2.8354,-2.9387,-3.0173,-3.0932,-3.1705,-3.1705,-3.1705,-3.1705,-3.1705,-3.1705,-3.1705,-3.1705,-3.1705,-3.1705,-3.1705,-3.1705,-3.1705,-3.1705,-3.2083,-3.2644,-3.1934,-3.2127,-3.2619,-3.2164,-3.1884,-3.1749,1.6377,1.6324,1.5891,1.4546,1.4094,1.3491,1.2467,1.1487,1.0891,1.0836,1.0288,0.9523,0.8706,0.8595,0.826,0.7376,0.7321,0.7043,0.6429,0.6429,0.6429,0.6318,0.4416,0.3354,0.3243,0.1904,0.1121,0.1121,0.1009,0.1009,0.0953,0.0112,-0.028,-0.0336,-0.129,-0.1683,-0.1683,-0.1795,-0.2575,-0.3911,-0.4583,-0.6195,-0.8303,-0.9027,-0.986,-1.0637,-1.0692,-1.0692,-1.0692,-1.0692,-1.1391,-1.2467,-1.3599,-1.4728,-1.5861,-1.6988,-1.7364,-1.7364,-1.7364,-1.7364,-1.7364,-1.7364,-1.7364,-1.7364,-1.7364,-1.7364,-1.7364,-1.7477,-1.7477,-1.7477,-1.7582,-1.7582,-1.7687,-1.7911,-1.7747,-1.7793,-1.8265,-1.8968,-1.9524,-1.9826,-2.1057,-2.2282,-2.3144,-2.3732,-2.4402,-2.5284,-2.6398,-2.7094,-2.7094,-2.8958,-3.0429,-3.1448,-3.1536,-3.1637,-3.1705,-3.1705,-3.1705,-3.1705,-3.1705,-3.1705,-3.1705,-3.1705,-3.1705,-3.1705,-3.1705,-3.1705,-3.1705,-3.1705,-3.1729,-3.1785,-3.1717,-3.1729,-3.1869,-3.2646,-3.2393,-3.1913,1.519,1.4976,1.4541,1.3073,1.2738,1.2408,1.1801,1.0655,0.9838,0.9838,0.8858,0.8036,0.7709,0.7709,0.7543,0.721,0.6316,0.5701,0.5423,0.4249,0.3916,0.4812,0.3244,0.2294,0.2294,0.1736,0.1289,0.0897,0.0336,0.0112,0.0056,-0.0841,-0.129,-0.129,-0.2409,-0.2912,-0.2967,-0.3916,-0.4583,-0.525,-0.6584,-0.7692,-0.8634,-0.9746,-1.0414,-1.0692,-1.0692,-1.0692,-1.0802,-1.15,-1.2041,-1.2738,-1.462,-1.5535,-1.6127,-1.7259,-1.7582,-1.7582,-1.7582,-1.7582,-1.7582,-1.7582,-1.7582,-1.7582,-1.7582,-1.7582,-1.7582,-1.7582,-1.7582,-1.7582,-1.7582,-1.7582,-1.7694,-1.7964,-1.8461,-1.8968,-1.9324,-2.0238,-2.0998,-2.1261,-2.2383,-2.3285,-2.3741,-2.4559,-2.5226,-2.5538,-2.6004,-2.6552,-2.7189,-2.9096,-3.0678,-3.1661,-3.1705,-3.1705,-3.1705,-3.1705,-3.1705,-3.1705,-3.1705,-3.1705,-3.1705,-3.1705,-3.1705,-3.1705,-3.1705,-3.1705,-3.1705,-3.1705,-3.1705,-3.1705,-3.1705,-3.2017,-3.2484,-3.2296,-3.2333,-3.2531,1.4439,1.411,1.3501,1.176,1.1265,1.0933,1.0386,0.9343,0.8631,0.8631,0.7811,0.721,0.721,0.6877,0.6596,0.6482,0.5142,0.4193,0.397,0.2182,0.1679,0.2967,0.1792,0.112,0.112,0.084,0.0448,0.0056,-0.0561,-0.0841,-0.0841,-0.1514,-0.2019,-0.2409,-0.3301,-0.3914,-0.436,-0.5475,-0.6197,-0.6753,-0.8023,-0.8799,-0.9302,-1.03,-1.0692,-1.0692,-1.0692,-1.0692,-1.0852,-1.2037,-1.263,-1.3275,-1.5269,-1.6127,-1.6611,-1.7364,-1.7582,-1.7582,-1.7582,-1.7582,-1.7582,-1.7582,-1.7582,-1.7582,-1.7582,-1.7582,-1.7582,-1.7582,-1.7582,-1.7681,-1.8048,-1.8146,-1.8408,-1.8938,-1.9738,-2.0341,-2.0649,-2.1608,-2.2416,-2.2685,-2.3692,-2.4353,-2.4452,-2.5226,-2.5693,-2.5586,-2.6235,-2.721,-2.8541,-2.9932,-3.1015,-3.1661,-3.1705,-3.1705,-3.1705,-3.1705,-3.1705,-3.1705,-3.1705,-3.1705,-3.1705,-3.1705,-3.1705,-3.1705,-3.1705,-3.1705,-3.1705,-3.1705,-3.1705,-3.1705,-3.1705,-3.2049,-3.2531,-3.2222,-3.2315,-3.2575,1.4379,1.3879,1.294,1.0613,0.9677,0.8906,0.7771,0.7379,0.721,0.721,0.721,0.721,0.721,0.6096,0.5258,0.492,0.3802,0.2685,0.1847,0.0392,0.0,0.0841,0.0056,-0.0393,-0.0393,-0.1346,-0.1795,-0.1795,-0.1795,-0.1795,-0.1795,-0.1795,-0.2465,-0.3636,-0.3911,-0.4691,-0.581,-0.6139,-0.7135,-0.8524,-0.8524,-0.9412,-1.0692,-1.0692,-1.0692,-1.0692,-1.0692,-1.0692,-1.0852,-1.2041,-1.3166,-1.4293,-1.5535,-1.667,-1.7582,-1.7582,-1.7582,-1.7582,-1.7582,-1.7582,-1.7582,-1.7582,-1.7582,-1.7582,-1.7582,-1.7582,-1.7582,-1.7582,-1.7635,-1.7943,-1.902,-1.9428,-1.9989,-2.1124,-2.1515,-2.1811,-2.208,-2.3035,-2.3791,-2.4088,-2.5069,-2.5586,-2.5342,-2.5538,-2.5586,-2.5333,-2.7426,-2.9555,-3.1572,-3.1705,-3.1705,-3.1705,-3.1705,-3.1705,-3.1705,-3.1705,-3.1705,-3.1705,-3.1705,-3.1705,-3.1705,-3.1705,-3.1705,-3.1705,-3.1705,-3.1705,-3.1705,-3.1705,-3.1705,-3.1705,-3.1705,-3.1705,-3.1789,-3.268,-3.2466,-3.1957,1.1651,1.1156,1.0449,0.8702,0.8208,0.7928,0.7376,0.7265,0.721,0.721,0.721,0.6763,0.5701,0.5256,0.4585,0.3466,0.2013,0.0672,-0.0616,-0.1121,-0.129,-0.1009,-0.1234,-0.1402,-0.1402,-0.1683,-0.1795,-0.1795,-0.1795,-0.2353,-0.3356,-0.3356,-0.408,-0.547,-0.6415,-0.7027,-0.7421,-0.8585,-0.9361,-0.9754,-0.997,-1.03,-1.0692,-1.0692,-1.0692,-1.0692,-1.0692,-1.0692,-1.1017,-1.2955,-1.3809,-1.4454,-1.6452,-1.7312,-1.7582,-1.7582,-1.7582,-1.7582,-1.7582,-1.7582,-1.7582,-1.7582,-1.7582,-1.7582,-1.7582,-1.7582,-1.7582,-1.7582,-1.8349,-1.9117,-1.9428,-2.0333,-2.1253,-2.1785,-2.2576,-2.3176,-2.3484,-2.4412,-2.5118,-2.5216,-2.5489,-2.5693,-2.5586,-2.5635,-2.5955,-2.659,-2.8588,-3.0022,-3.0633,-3.1339,-3.1705,-3.1705,-3.1705,-3.1705,-3.1705,-3.1705,-3.1705,-3.1705,-3.1705,-3.1705,-3.1705,-3.1705,-3.1705,-3.1705,-3.1705,-3.1705,-3.1705,-3.1705,-3.1705,-3.1705,-3.1705,-3.2071,-3.2595,-3.2215,-3.2315,-3.2704,1.0284,0.979,0.9189,0.7826,0.7493,0.7379,0.721,0.721,0.7099,0.6877,0.6538,0.5868,0.4698,0.3802,0.2908,0.1901,0.0392,-0.084,-0.1739,-0.1795,-0.1795,-0.1795,-0.1795,-0.1795,-0.1795,-0.1795,-0.1908,-0.2132,-0.2521,-0.3245,-0.4359,-0.4691,-0.5579,-0.6972,-0.7805,-0.8472,-0.8975,-1.0029,-1.0472,-1.0476,-1.0637,-1.0692,-1.0692,-1.0692,-1.0692,-1.0692,-1.0692,-1.0692,-1.1072,-1.3329,-1.4722,-1.5749,-1.7147,-1.7582,-1.7582,-1.7582,-1.7582,-1.7582,-1.7582,-1.7582,-1.7733,-1.8244,-1.7989,-1.7582,-1.7582,-1.7687,-1.7898,-1.8304,-1.9117,-2.0033,-2.0896,-2.1862,-2.2676,-2.3253,-2.4007,-2.4559,-2.4707,-2.5274,-2.5693,-2.5693,-2.5693,-2.5693,-2.5693,-2.6052,-2.6877,-2.8262,-2.951,-3.0351,-3.0779,-3.1383,-3.1705,-3.1705,-3.1705,-3.1705,-3.1705,-3.1705,-3.1705,-3.1705,-3.1705,-3.1705,-3.1705,-3.1705,-3.1705,-3.1705,-3.1705,-3.1705,-3.1705,-3.1705,-3.1705,-3.1705,-3.1705,-3.2002,-3.2426,-3.1866,-3.2239,-3.295,0.9794,0.9347,0.8796,0.7771,0.7268,0.7043,0.6988,0.693,0.6652,0.6038,0.5254,0.4418,0.3748,0.2014,0.0672,0.0224,-0.1065,-0.1907,-0.1907,-0.1907,-0.1907,-0.1963,-0.1963,-0.2018,-0.2074,-0.2018,-0.2299,-0.2917,-0.3748,-0.4524,-0.5252,-0.6028,-0.7083,-0.8251,-0.8582,-0.9306,-1.0366,-1.0582,-1.0692,-1.0692,-1.0692,-1.0692,-1.0692,-1.0692,-1.0692,-1.0692,-1.0802,-1.0857,-1.1177,-1.3491,-1.5749,-1.7582,-1.7582,-1.7582,-1.7582,-1.7582,-1.7582,-1.7635,-1.7635,-1.7635,-1.7943,-1.9169,-1.8655,-1.7838,-1.7937,-1.8055,-1.8475,-1.9583,-2.0084,-2.0947,-2.2976,-2.3642,-2.4205,-2.5177,-2.5538,-2.5693,-2.5693,-2.5693,-2.5693,-2.5693,-2.5693,-2.5732,-2.583,-2.6829,-2.8215,-3.0068,-3.026,-3.0722,-3.1661,-3.1705,-3.1705,-3.1705,-3.1705,-3.1705,-3.1705,-3.1705,-3.1705,-3.1705,-3.1705,-3.1705,-3.1705,-3.1705,-3.1705,-3.1705,-3.1705,-3.1705,-3.1705,-3.1705,-3.1705,-3.1705,-3.1705,-3.1705,-3.1705,-3.1705,-3.2208,-3.2778,0.81,0.7873,0.7593,0.7321,0.6432,0.5706,0.5423,0.4583,0.3857,0.3521,0.3297,0.2683,0.1343,0.0783,0.0,-0.1233,-0.2075,-0.2525,-0.2525,-0.2525,-0.2692,-0.3195,-0.3413,-0.3747,-0.4196,-0.3747,-0.3802,-0.4421,-0.5306,-0.6415,-0.7747,-0.7913,-0.8748,-1.0135,-1.019,-1.0359,-1.0637,-1.0692,-1.0692,-1.0692,-1.0692,-1.0692,-1.0692,-1.0692,-1.0692,-1.0802,-1.1714,-1.2041,-1.2363,-1.4728,-1.6452,-1.7582,-1.7582,-1.7582,-1.7582,-1.7582,-1.7582,-1.7635,-1.7859,-1.7911,-1.801,-1.852,-1.9072,-1.9723,-2.0582,-2.0187,-1.9878,-2.099,-2.2114,-2.3026,-2.3534,-2.451,-2.5323,-2.5586,-2.5635,-2.5693,-2.5693,-2.5693,-2.5693,-2.5693,-2.5693,-2.6004,-2.6781,-2.8495,-2.9749,-3.017,-3.0913,-3.1472,-3.1705,-3.1705,-3.1705,-3.1705,-3.1705,-3.1705,-3.1705,-3.1705,-3.1705,-3.1705,-3.1705,-3.1705,-3.1705,-3.1705,-3.1705,-3.1705,-3.1705,-3.1705,-3.1705,-3.1705,-3.1705,-3.1705,-3.1705,-3.1705,-3.1705,-3.1705,-3.1837,-3.1957,0.6546,0.5982,0.5421,0.5252,0.4695,0.4195,0.3913,0.3299,0.274,0.2349,0.1902,0.1175,0.0112,-0.0392,-0.1065,-0.2132,-0.2525,-0.2806,-0.3085,-0.353,-0.3864,-0.4199,-0.4751,-0.5359,-0.5919,-0.6079,-0.6079,-0.5975,-0.6861,-0.7858,-0.8913,-0.9357,-0.9966,-1.0692,-1.0692,-1.0692,-1.0692,-1.0692,-1.0692,-1.0692,-1.0692,-1.0692,-1.0692,-1.0692,-1.0692,-1.0857,-1.1987,-1.3112,-1.4245,-1.5482,-1.6664,-1.7582,-1.7582,-1.7694,-1.7799,-1.7799,-1.7905,-1.8003,-1.8167,-1.8572,-1.9131,-1.9952,-2.0605,-2.1006,-2.0896,-2.0947,-2.1312,-2.2416,-2.3326,-2.4048,-2.4559,-2.5226,-2.5693,-2.5693,-2.5693,-2.5693,-2.5693,-2.5693,-2.5693,-2.5693,-2.5693,-2.6284,-2.7746,-2.8866,-2.9886,-3.0824,-3.1383,-3.1705,-3.1705,-3.1705,-3.1705,-3.1705,-3.1705,-3.1705,-3.1705,-3.1705,-3.1705,-3.1705,-3.1705,-3.1705,-3.1705,-3.1705,-3.1705,-3.1705,-3.1705,-3.1705,-3.1705,-3.1705,-3.1705,-3.1705,-3.1705,-3.1705,-3.1705,-3.1705,-3.1957,-3.2326,0.5035,0.4195,0.3412,0.3075,0.2852,0.2628,0.2348,0.2125,0.179,0.1232,0.0504,-0.0168,-0.0729,-0.1738,-0.2522,-0.3029,-0.3307,-0.3642,-0.4143,-0.4866,-0.5308,-0.5419,-0.6195,-0.6861,-0.747,-0.8413,-0.8413,-0.7473,-0.8413,-0.9137,-0.9636,-1.0359,-1.0692,-1.0692,-1.0692,-1.0692,-1.0692,-1.0692,-1.0692,-1.0692,-1.0692,-1.0692,-1.0692,-1.0692,-1.0798,-1.1122,-1.2309,-1.4191,-1.618,-1.618,-1.6829,-1.7635,-1.7635,-1.7799,-1.8016,-1.8069,-1.822,-1.8422,-1.8482,-1.9287,-2.04,-2.1574,-2.2181,-2.2131,-2.0947,-2.1617,-2.2743,-2.384,-2.4196,-2.4658,-2.5538,-2.5693,-2.5693,-2.5693,-2.5693,-2.5693,-2.5693,-2.5693,-2.5693,-2.5693,-2.6014,-2.6935,-2.8773,-2.9096,-2.9886,-3.156,-3.1705,-3.1705,-3.1705,-3.1705,-3.1705,-3.1705,-3.1705,-3.1705,-3.1705,-3.1705,-3.1705,-3.1705,-3.1705,-3.1705,-3.1705,-3.1705,-3.1705,-3.1705,-3.1705,-3.1705,-3.1705,-3.1705,-3.1705,-3.1705,-3.1705,-3.1705,-3.1705,-3.1705,-3.2239,-3.2993,0.3467,0.3299,0.3075,0.2795,0.1902,0.1063,0.0783,-0.0112,-0.0897,-0.129,-0.1402,-0.1739,-0.23,-0.3639,-0.4531,-0.4587,-0.5753,-0.6528,-0.6642,-0.675,-0.7027,-0.7587,-0.7971,-0.8468,-0.9082,-0.997,-0.997,-0.9082,-0.997,-1.0414,-1.0527,-1.0637,-1.0692,-1.0692,-1.0692,-1.0692,-1.0692,-1.0692,-1.0692,-1.0692,-1.0692,-1.0692,-1.0692,-1.0692,-1.1286,-1.2309,-1.3437,-1.5375,-1.7364,-1.7364,-1.7477,-1.7635,-1.7852,-1.7964,-1.8069,-1.8272,-1.837,-1.8482,-1.8757,-1.962,-2.0526,-2.0987,-2.2433,-2.3791,-2.3583,-2.3683,-2.4146,-2.5226,-2.5479,-2.5538,-2.5684,-2.5693,-2.5693,-2.5693,-2.5693,-2.5693,-2.5693,-2.5693,-2.5693,-2.5693,-2.7258,-2.8727,-2.9886,-3.0767,-3.1427,-3.1661,-3.1705,-3.1705,-3.1705,-3.1705,-3.1705,-3.1705,-3.1705,-3.1705,-3.1705,-3.1705,-3.1705,-3.1705,-3.1705,-3.1705,-3.1705,-3.1705,-3.1705,-3.1705,-3.1705,-3.1705,-3.1705,-3.1705,-3.1705,-3.1705,-3.1705,-3.1705,-3.1705,-3.1705,-3.2239,-3.2907,0.1902,0.1343,0.0784,0.0504,0.0,-0.0448,-0.0784,-0.1233,-0.185,-0.2688,-0.2911,-0.3413,-0.4309,-0.5142,-0.575,-0.6086,-0.675,-0.7249,-0.7584,-0.8082,-0.8527,-0.8751,-0.9412,-0.9856,-1.0135,-1.0523,-1.0523,-1.0139,-1.0523,-1.0692,-1.0692,-1.0692,-1.0692,-1.0692,-1.0692,-1.0692,-1.0692,-1.0692,-1.0692,-1.0692,-1.0692,-1.0692,-1.0747,-1.1391,-1.1987,-1.263,-1.446,-1.618,-1.7635,-1.7747,-1.7799,-1.7852,-1.8115,-1.8331,-1.8548,-1.8646,-1.8803,-1.8959,-1.9071,-2.0336,-2.1641,-2.1735,-2.3402,-2.4962,-2.4962,-2.4962,-2.5118,-2.5586,-2.5693,-2.5693,-2.5693,-2.5693,-2.5693,-2.5693,-2.5693,-2.5693,-2.5693,-2.5693,-2.5693,-2.5693,-2.6972,-2.8262,-2.928,-3.026,-3.1104,-3.1661,-3.1705,-3.1705,-3.1705,-3.1705,-3.1705,-3.1705,-3.1705,-3.1705,-3.1705,-3.1705,-3.1705,-3.1705,-3.1705,-3.1705,-3.1705,-3.1705,-3.1705,-3.1705,-3.1705,-3.1705,-3.1705,-3.1705,-3.1705,-3.1705,-3.1705,-3.1705,-3.1705,-3.1705,-3.2239,-3.2864]},{"header":{"parameterUnit":"m.s-1","parameterCategory":1,"la1":30.6,"la2":28.766,"lo1":-90.7593,"lo2":-88.6598,"dy":0.0162,"dx":0.0183,"nx":116,"ny":114,"refTime":"2023-11-21T18:00:00:Z","depth":0,"parameterNumber":3,"parameterNumberName":"V-component_of_WINDS"},"data":[0.0,0.0,0.0,0.0,0.0,0.0,0.0,0.0,0.0,0.0,0.0,0.0,0.0,0.0,0.0,0.0,0.0,0.0,0.0,0.0,0.0,0.0,0.0,0.0,0.0,0.0,0.0,0.0,0.0,0.0,0.0,0.0,0.0,0.0,0.0,0.0,0.0,0.0,0.0,0.0,0.0,0.0,0.0,0.0,0.0,0.0,0.0,0.0,0.0,0.0,0.0,0.0,0.0,0.0,0.0,0.0,0.0,0.0,0.0,0.0,0.0,0.0,0.0,0.0,0.0,0.0,0.0,0.0,0.0,0.0,0.0,0.0,0.0,0.0,0.0,0.0,0.0,0.0,0.0,0.0,0.0,0.0,0.0,0.0,0.0,0.0,0.0,0.0,0.0,0.0,0.0,0.0,0.0,0.0,0.0,0.0,0.0,0.0,0.0,0.0,0.0,0.0,0.0,0.0,0.0,0.0,0.0,0.0,0.0,0.0,0.0,0.0,0.0,0.0,0.0,0.0,0.0,0.0,0.0,0.0,0.0,0.0,0.0,0.0,0.0,0.0,0.0,0.0,0.0,0.0,0.0,0.0,0.0,0.0,0.0,0.0,0.0,0.0,0.0,0.0,0.0,0.0,0.0,0.0,0.0,0.0,0.0,0.0,0.0,0.0,0.0,0.0,0.0,0.0,0.0,0.0,0.0,0.0,0.0,0.0,0.0,0.0,0.0,0.0,0.0,0.0,0.0,0.0,0.0,0.0,0.0,0.0,0.0,0.0,0.0,0.0,0.0,0.0,0.0,0.0,0.0,0.0,0.0,0.0,0.0,0.0,0.0,0.0,0.0,0.0,0.0,0.0,0.0,0.0,0.0,0.0,0.0,0.0,0.0,0.0,0.0,0.0,0.0,0.0,0.0,0.0,0.0,0.0,0.0,0.0,0.0,0.0,0.0,0.0,0.0,0.0,0.0,0.0,0.0,0.0,0.0,0.0,0.0,0.0,0.0,0.0,0.0,0.0,0.0,0.0,0.0,0.0,0.0,0.0,0.0,0.0,0.0,0.0,0.0,0.0,0.0,0.0,0.0,0.0,0.0,0.0,0.0,0.0,0.0,0.0,0.0,0.0,0.0,0.0,0.0,0.0,0.0,0.0,0.0,0.0,0.0,0.0,0.0,0.0,0.0,0.0,0.0,0.0,0.0,0.0,0.0,0.0,0.0,0.0,0.0,0.0,0.0,0.0,0.0,0.0,0.0,0.0,0.0,0.0,0.0,0.0,0.0,0.0,0.0,0.0,0.0,0.0,0.0,0.0,0.0,0.0,0.0,0.0,0.0,0.0,0.0,0.0,0.0,0.0,0.0,0.0,0.0,0.0,0.0,0.0,0.0,0.0,0.0,0.0,0.0,0.0,0.0,0.0,0.0,0.0,0.0,0.0,0.0,0.0,0.0,0.0,0.0,0.0,0.0,0.0,0.0,0.0,0.0,0.0,0.0,0.0,0.0,0.0,0.0,0.0,0.0,0.0,0.0,0.0,0.0,0.0,0.0,0.0,0.0,0.0,0.0,0.0,0.0,0.0,0.0,0.0,0.0,0.0,0.0,0.0,0.0,0.0,0.0,0.0,0.0,0.0,0.0,0.0,0.0,0.0,0.0,0.0,0.0,0.0,0.0,0.0,0.0,0.0,0.0,0.0,0.0,0.0,0.0,0.0,0.0,0.0,0.0,0.0,0.0,0.0,0.0,0.0,0.0,0.0,0.0,0.0,0.0,0.0,0.0,0.0,0.0,0.0,0.0,0.0,0.0,0.0,0.0,0.0,0.0,0.0,0.0,0.0,0.0,0.0,0.0,0.0,0.0,0.0,0.0,0.0,0.0,0.0,0.0,0.0,0.0,0.0,0.0,0.0,0.0,0.0,0.0,0.0,0.0,0.0,0.0,0.0,0.0,0.0,0.0,0.0,0.0,0.0,0.0,0.0,0.0,0.0,0.0,0.0,0.0,0.0,0.0,0.0,0.0,0.0,0.0,0.0,0.0,0.0,0.0,0.0,0.0,0.0,0.0,0.0,0.0,0.0,0.0,0.0,0.0,0.0,0.0,0.0,0.0,0.0,0.0,0.0,0.0,0.0,0.0,0.0,0.0,0.0,0.0,0.0,0.0,0.0,0.0,0.0,0.0,0.0,0.0,0.0,0.0,0.0,0.0,0.0,0.0,0.0,0.0,0.0,0.0,0.0,0.0,0.0,0.0,0.0,0.0,0.0,0.0,0.0,0.0,0.0,0.0,0.0,0.0,0.0,0.0,0.0,0.0,0.0,0.0,0.0,0.0,0.0,0.0,0.0,0.0,0.0,0.0,0.0,0.0,0.0,0.0,0.0,0.0,0.0,0.0,0.0,0.0,0.0,0.0,0.0,0.0,0.0,0.0,0.0,0.0,0.0,0.0,0.0,0.0,0.0,0.0,0.0,0.0,0.0,0.0,0.0,0.0,0.0,0.0,0.0,0.0,0.0,0.0,0.0,0.0,0.0,0.0,0.0,0.0,0.0,0.0,0.0,0.0,0.0,0.0,0.0,0.0,0.0,0.0,0.0,0.0,0.0,0.0,0.0,0.0,0.0,0.0,0.0,0.0,0.0,0.0,0.0,0.0,0.0,0.0,0.0,0.0,0.0,0.0,0.0,0.0,0.0,0.0,0.0,0.0,0.0,0.0,0.0,0.0,0.0,0.0,0.0,0.0,0.0,0.0,0.0,0.0,0.0,0.0,0.0,0.0,0.0,0.0,0.0,0.0,0.0,0.0,0.0,0.0,0.0,0.0,0.0,0.0,0.0,0.0,0.0,0.0,0.0,0.0,0.0,0.0,0.0,0.0,0.0,0.0,0.0,0.0,0.0,0.0,0.0,0.0,0.0,0.0,0.0,0.0,0.0,0.0,0.0,0.0,0.0,0.0,0.0,0.0,0.0,0.0,0.0,0.0,0.0,0.0,0.0,0.0,0.0,0.0,0.0,0.0,0.0,0.0,0.0,0.0,0.0,0.0,0.0,0.0,0.0,0.0,0.0,0.0,0.0,0.0,0.0,0.0,0.0,0.0,0.0,0.0,0.0,0.0,0.0,0.0,0.0,0.0,0.0,0.0,0.0,0.0,0.0,0.0,0.0,0.0,0.0,0.0,0.0,0.0,0.0,0.0,0.0,0.0,0.0,0.0,0.0,0.0,0.0,0.0,0.0,0.0,0.0,0.0,0.0,0.0,0.0,0.0,0.0,0.0,0.0,0.0,0.0,0.0,0.0,0.0,0.0,0.0,0.0,0.0,0.0,0.0,0.0,0.0,0.0,0.0,0.0,0.0,0.0,0.0,0.0,0.0,0.0,0.0,0.0,0.0,0.0,0.0,0.0,0.0,0.0,0.0,0.0,0.0,0.0,0.0,0.0,0.0,0.0,0.0,0.0,0.0,0.0,0.0,0.0,0.0,0.0,0.0,0.0,0.0,0.0,0.0,0.0,0.0,0.0,0.0,0.0,0.0,0.0,0.0,0.0,0.0,0.0,0.0,0.0,0.0,0.0,0.0,0.0,0.0,0.0,0.0,0.0,0.0,0.0,0.0,0.0,0.0,0.0,0.0,0.0,0.0,0.0,0.0,0.0,0.0,0.0,0.0,0.0,0.0,0.0,0.0,0.0,0.0,0.0,0.0,0.0,0.0,0.0,0.0,0.0,0.0,0.0,0.0,0.0,0.0,0.0,0.0,0.0,0.0,0.0,0.0,0.0,0.0,0.0,0.0,0.0,0.0,0.0,0.0,0.0,0.0,0.0,0.0,0.0,0.0,0.0,0.0,0.0,0.0,0.0,0.0,0.0,0.0,0.0,0.0,0.0,0.0,0.0,0.0,0.0,0.0,0.0,0.0,0.0,0.0,0.0,0.0,0.0,0.0,0.0,0.0,0.0,0.0,0.0,0.0,0.0,0.0,0.0,0.0,0.0,0.0,0.0,0.0,0.0,0.0,0.0,0.0,0.0,0.0,0.0,0.0,0.0,0.0,0.0,0.0,0.0,0.0,0.0,0.0,0.0,0.0,0.0,0.0,0.0,0.0,0.0,0.0,0.0,0.0,0.0,0.0,0.0,0.0,0.0,0.0,0.0,0.0,0.0,0.0,0.0,0.0,0.0,0.0,0.0,0.0,0.0,0.0,0.0,0.0,0.0,0.0,0.0,0.0,0.0,0.0,0.0,0.0,0.0,0.0,0.0,0.0,0.0,0.0,0.0,0.0,0.0,0.0,0.0,0.0,0.0,0.0,0.0,0.0,0.0,0.0,0.0,0.0,0.0,0.0,0.0,0.0,0.0,0.0,0.0,0.0,0.0,0.0,0.0,0.0,0.0,0.0,0.0,0.0,0.0,0.0,0.0,0.0,0.0,0.0,0.0,0.0,0.0,0.0,0.0,0.0,0.0,0.0,0.0,0.0,0.0,0.0,0.0,0.0,0.0,0.0,0.0,0.0,0.0,0.0,0.0,0.0,0.0,0.0,0.0,0.0,0.0,0.0,0.0,0.0,0.0,0.0,0.0,0.0,0.0,0.0,0.0,0.0,0.0,0.0,0.0,0.0,0.0,0.0,0.0,0.0,0.0,0.0,0.0,0.0,0.0,0.0,0.0,0.0,0.0,0.0,0.0,0.0,0.0,0.0,0.0,0.0,0.0,0.0,0.0,0.0,0.0,0.0,0.0,0.0,0.0,0.0,0.0,0.0,0.0,0.0,0.0,0.0,0.0,0.0,0.0,0.0,0.0,0.0,0.0,0.0,0.0,0.0,0.0,0.0,0.0,0.0,0.0,0.0,0.0,0.0,0.0,0.0,0.0,0.0,0.0,0.0,0.0,0.0,0.0,0.0,0.0,0.0,0.0,0.0,0.0,0.0,0.0,0.0,0.0,0.0,0.0,0.0,0.0,0.0,0.0,0.0,0.0,0.0,0.0,0.0,0.0,0.0,0.0,0.0,0.0,0.0,0.0,0.0,0.0,0.0,0.0,0.0,0.0,0.0,0.0,0.0,0.0,0.0,0.0,0.0,0.0,0.0,0.0,0.0,0.0,0.0,0.0,0.0,0.0,0.0,0.0,0.0,0.0,0.0,0.0,0.0,0.0,0.0,0.0,0.0,0.0,0.0,0.0,0.0,0.0,0.0,0.0,0.0,0.0,0.0,0.0,0.0,0.0,0.0,0.0,0.0,0.0,0.0,0.0,0.0,0.0,0.0,0.0,0.0,0.0,0.0,0.0,0.0,0.0,0.0,0.0,0.0,0.0,0.0,0.0,0.0,0.0,0.0,0.0,0.0,0.0,0.0,0.0,0.0,0.0,0.0,0.0,0.0,0.0,0.0,0.0,0.0,0.0,0.0,0.0,0.0,0.0,0.0,0.0,0.0,0.0,0.0,0.0,0.0,0.0,0.0,0.0,0.0,0.0,0.0,0.0,0.0,0.0,0.0,0.0,0.0,0.0,0.0,0.0,0.0,0.0,0.0,0.0,0.0,0.0,0.0,0.0,0.0,0.0,0.0,0.0,0.0,0.0,0.0,0.0,0.0,0.0,0.0,0.0,0.0,0.0,0.0,0.0,0.0,0.0,0.0,0.0,0.0,0.0,0.0,0.0,0.0,0.0,0.0,0.0,0.0,0.0,0.0,0.0,0.0,0.0,0.0,0.0,0.0,0.0,0.0,0.0,0.0,0.0,0.0,0.0,0.0,0.0,0.0,0.0,0.0,0.0,0.0,0.0,0.0,0.0,0.0,0.0,0.0,0.0,0.0,0.0,0.0,0.0,0.0,0.0,0.0,0.0,0.0,0.0,0.0,0.0,0.0,0.0,0.0,0.0,0.0,0.0,0.0,0.0,0.0,0.0,0.0,0.0,0.0,0.0,0.0,0.0,0.0,0.0,0.0,0.0,0.0,0.0,0.0,0.0,0.0,0.0,0.0,0.0,0.0,0.0,0.0,0.0,0.0,0.0,0.0,0.0,0.0,0.0,0.0,0.0,0.0,0.0,0.0,0.0,0.0,0.0,0.0,0.0,0.0,0.0,0.0,0.0,0.0,0.0,0.0,0.0,0.0,0.0,0.0,0.0,0.0,0.0,3.7795,3.7566,0.0,0.0,0.0,0.0,0.0,0.0,0.0,0.0,0.0,0.0,0.0,0.0,0.0,0.0,0.0,0.0,0.0,0.0,0.0,0.0,0.0,0.0,0.0,0.0,0.0,0.0,0.0,0.0,0.0,0.0,0.0,0.0,0.0,0.0,0.0,0.0,2.5775,2.5775,2.6852,2.7783,0.0,0.0,0.0,0.0,0.0,0.0,0.0,0.0,0.0,0.0,0.0,0.0,0.0,0.0,0.0,0.0,0.0,0.0,0.0,0.0,0.0,0.0,0.0,0.0,0.0,0.0,0.0,0.0,0.0,0.0,0.0,0.0,0.0,0.0,0.0,0.0,0.0,0.0,0.0,0.0,0.0,0.0,0.0,0.0,0.0,0.0,0.0,0.0,0.0,0.0,0.0,0.0,0.0,0.0,0.0,0.0,0.0,0.0,0.0,0.0,0.0,0.0,0.0,0.0,0.0,0.0,0.0,0.0,0.0,0.0,0.0,0.0,0.0,0.0,3.9071,3.8842,0.0,0.0,0.0,0.0,0.0,0.0,0.0,0.0,0.0,0.0,0.0,0.0,0.0,0.0,0.0,0.0,0.0,0.0,0.0,0.0,0.0,0.0,0.0,2.3741,2.3686,2.4079,2.4258,2.431,2.431,2.4846,2.5218,2.5295,2.5309,2.5371,2.5479,2.6025,2.6321,2.6341,2.8064,2.9324,0.0,0.0,0.0,0.0,0.0,0.0,0.0,0.0,0.0,0.0,0.0,0.0,0.0,0.0,0.0,0.0,0.0,0.0,0.0,0.0,0.0,0.0,0.0,0.0,0.0,0.0,0.0,0.0,0.0,0.0,0.0,0.0,0.0,0.0,0.0,0.0,0.0,0.0,0.0,0.0,0.0,0.0,0.0,0.0,0.0,0.0,0.0,0.0,0.0,0.0,0.0,0.0,0.0,0.0,0.0,0.0,0.0,0.0,0.0,0.0,0.0,0.0,0.0,0.0,0.0,0.0,0.0,0.0,3.8991,3.9444,4.0291,4.0311,4.0301,4.0301,4.0301,4.0291,4.028,4.0051,0.0,0.0,0.0,0.0,0.0,0.0,0.0,0.0,0.0,0.0,0.0,0.0,0.0,0.0,0.0,0.0,0.0,0.0,0.0,0.0,0.0,2.4239,2.4542,2.4599,2.5268,2.5666,2.5666,2.5724,2.6025,2.6546,2.7053,2.7594,2.8172,2.8768,2.9136,2.9233,2.9237,2.9685,3.0507,2.986,2.9714,2.9934,2.8712,0.0,0.0,0.0,0.0,0.0,0.0,0.0,0.0,0.0,0.0,0.0,0.0,0.0,0.0,0.0,0.0,0.0,0.0,0.0,0.0,0.0,0.0,0.0,0.0,0.0,0.0,0.0,0.0,0.0,0.0,0.0,0.0,0.0,0.0,0.0,0.0,0.0,0.0,0.0,0.0,0.0,0.0,0.0,3.7883,3.7883,0.0,0.0,0.0,0.0,0.0,0.0,0.0,0.0,0.0,0.0,0.0,0.0,0.0,3.9738,3.9739,3.9733,3.9864,4.0096,4.0087,4.0165,4.029,4.031,4.0301,4.0301,4.0301,0.0,4.0291,4.0263,0.0,0.0,0.0,0.0,0.0,0.0,0.0,0.0,0.0,0.0,0.0,0.0,0.0,0.0,0.0,0.0,0.0,0.0,0.0,0.0,0.0,2.5305,2.571,2.5852,2.6547,2.6979,2.6979,2.6901,2.6979,2.7257,2.7069,2.7288,2.8025,2.795,2.8441,2.9529,2.9373,2.9747,3.0598,3.0282,3.0251,3.0448,2.9825,2.9245,2.8754,2.8754,0.0,0.0,0.0,0.0,0.0,0.0,0.0,0.0,0.0,0.0,0.0,0.0,0.0,0.0,0.0,0.0,0.0,0.0,0.0,0.0,0.0,0.0,0.0,0.0,0.0,0.0,0.0,0.0,0.0,0.0,0.0,0.0,0.0,0.0,0.0,0.0,0.0,0.0,0.0,3.8209,3.8209,3.8209,3.8209,3.8209,0.0,0.0,0.0,0.0,0.0,0.0,0.0,0.0,0.0,3.8497,3.9406,3.9895,3.9898,3.9901,3.9952,4.0088,4.0238,4.0303,4.0303,4.0305,4.0301,4.0339,4.1304,4.1705,4.1638,4.069,4.031,4.0291,0.0,0.0,0.0,0.0,4.0979,4.1036,0.0,0.0,0.0,0.0,0.0,0.0,0.0,0.0,0.0,0.0,0.0,0.0,2.6077,2.648,2.683,2.7031,2.7636,2.8044,2.8044,2.8063,2.8115,2.8115,2.7544,2.7484,2.8045,2.7677,2.8168,2.956,2.9435,2.9808,3.0598,3.0417,3.0447,3.0598,3.0598,3.0201,2.956,2.956,2.9229,0.0,0.0,0.0,0.0,0.0,0.0,0.0,0.0,0.0,0.0,0.0,0.0,0.0,0.0,0.0,0.0,0.0,0.0,0.0,0.0,0.0,0.0,0.0,0.0,0.0,0.0,0.0,0.0,0.0,0.0,0.0,0.0,0.0,0.0,0.0,0.0,0.0,0.0,3.8209,3.8209,3.8209,3.8209,3.8209,0.0,0.0,0.0,0.0,0.0,0.0,3.8798,3.9199,3.915,3.8593,3.916,3.9468,3.9467,3.9468,3.9482,3.9482,4.0484,4.117,4.1585,4.1578,4.1569,4.1655,4.2908,4.3272,4.2908,4.1516,4.0947,4.0922,4.0715,4.0765,4.1017,4.1609,4.1724,4.1714,0.0,0.0,0.0,0.0,0.0,0.0,0.0,0.0,0.0,0.0,0.0,2.7327,2.7648,2.7706,2.7734,2.7763,2.8296,2.8647,2.8647,2.9178,2.9498,2.9498,2.9463,2.9446,2.9477,2.9789,3.0021,3.0251,2.9808,2.9931,3.0598,2.9931,3.0007,3.0598,3.0598,3.0583,3.0524,3.0524,3.0343,2.9981,0.0,0.0,0.0,0.0,0.0,0.0,0.0,0.0,0.0,0.0,0.0,0.0,0.0,0.0,0.0,0.0,0.0,0.0,0.0,0.0,0.0,0.0,0.0,0.0,0.0,0.0,0.0,0.0,0.0,0.0,0.0,0.0,0.0,0.0,0.0,0.0,0.0,0.0,0.0,3.8209,3.8209,0.0,0.0,0.0,0.0,3.9296,3.935,3.9435,3.9634,3.9668,3.9237,3.8265,3.825,3.8287,3.8283,3.8283,3.8291,3.8323,4.133,4.3574,4.506,4.5047,4.505,4.505,4.5139,4.4565,4.3512,4.2928,4.2669,4.2679,4.2669,4.265,4.2679,4.2717,4.2373,4.1981,0.0,0.0,0.0,0.0,0.0,0.0,0.0,0.0,2.6754,2.696,2.7344,2.7674,2.7776,2.8157,2.8366,2.8366,2.8928,2.9279,2.9279,2.9028,2.8871,2.8871,2.8468,2.85,2.9071,2.9758,3.0158,3.0282,3.0251,3.0387,3.0598,3.0357,3.0387,3.0598,3.0598,3.0598,3.0598,3.0598,3.0522,3.0401,3.0266,3.0144,0.0,0.0,0.0,0.0,0.0,0.0,0.0,0.0,0.0,0.0,0.0,0.0,0.0,0.0,0.0,0.0,0.0,0.0,0.0,0.0,0.0,0.0,0.0,0.0,0.0,0.0,0.0,0.0,0.0,0.0,0.0,0.0,0.0,0.0,0.0,0.0,0.0,3.8848,3.93,0.0,3.9677,3.9677,3.9804,4.0093,4.0111,4.0431,4.1146,4.1181,4.1393,4.1857,4.1447,4.1231,4.1222,4.2082,4.2085,4.1252,4.2356,4.3648,4.5012,4.4146,4.3753,4.3772,4.4126,4.4203,4.4104,4.4052,4.3542,4.2794,4.2794,4.2794,4.287,4.3386,4.3433,4.3366,0.0,0.0,0.0,0.0,0.0,0.0,0.0,0.0,2.7476,2.7596,2.8075,2.8394,2.8394,2.8759,2.8998,2.8998,2.9378,2.9602,2.9602,2.9153,2.8871,2.8871,2.8487,2.8583,2.931,2.9867,3.0249,3.0417,3.0538,3.0598,3.0598,3.0598,3.0598,3.0598,3.0598,3.0598,3.0598,3.0598,3.0687,3.0792,3.0673,3.0718,3.0911,0.0,0.0,0.0,0.0,0.0,0.0,0.0,0.0,0.0,0.0,0.0,0.0,0.0,0.0,0.0,0.0,0.0,0.0,0.0,0.0,0.0,0.0,0.0,0.0,0.0,0.0,0.0,0.0,0.0,0.0,0.0,0.0,0.0,0.0,3.9229,3.959,3.9625,4.0113,4.0456,4.051,4.0492,4.0601,4.0872,4.089,4.1306,4.2239,4.2293,4.2702,4.3532,4.312,4.2901,4.2894,4.4231,4.4454,4.358,4.3558,4.3806,4.4199,4.3308,4.2909,4.2936,4.3568,4.4006,4.4329,4.4662,4.4342,4.3652,4.3643,4.3634,4.3711,4.4246,4.4437,4.4532,0.0,0.0,0.0,0.0,0.0,0.0,0.0,2.7139,2.7847,2.8198,2.9021,2.9602,2.9602,2.9602,2.9602,2.9602,2.9602,2.9602,2.9602,2.9602,2.9602,2.9602,2.973,2.9946,3.0251,3.0282,3.0387,3.0568,3.0568,3.0582,3.0598,3.0598,3.0598,3.0598,3.0598,3.0598,3.0598,3.0598,3.0851,3.1218,3.1218,3.1507,3.1918,0.0,0.0,0.0,0.0,0.0,0.0,0.0,0.0,0.0,0.0,0.0,0.0,0.0,0.0,0.0,0.0,0.0,0.0,0.0,0.0,0.0,0.0,0.0,0.0,0.0,0.0,0.0,0.0,0.0,0.0,0.0,0.0,0.0,4.042,4.051,4.0528,4.0528,4.0546,4.0564,4.0564,4.0564,4.089,4.1687,4.1741,4.2085,4.2883,4.2937,4.2956,4.2938,4.2919,4.2937,4.2956,4.4215,4.4837,4.4837,4.4873,4.4208,4.2914,4.2889,4.2909,4.2935,4.3751,4.409,4.4148,4.4722,4.5095,4.5295,4.5295,4.5297,4.5307,4.5307,4.5307,4.5307,0.0,0.0,0.0,0.0,0.0,0.0,2.7586,2.8234,2.8756,2.885,2.9286,2.9602,2.9602,2.9602,2.9602,2.9602,2.9602,2.9602,2.9602,2.9602,2.9602,2.9602,2.9634,2.9682,2.9789,2.9884,2.9962,3.0038,3.0189,3.028,3.0387,3.0387,3.0447,3.0598,3.0598,3.0507,3.0403,3.0732,3.1262,3.1819,3.1551,3.1679,3.2084,0.0,0.0,0.0,0.0,0.0,0.0,0.0,0.0,0.0,0.0,0.0,0.0,0.0,0.0,0.0,0.0,0.0,0.0,0.0,0.0,0.0,0.0,0.0,0.0,0.0,0.0,0.0,0.0,0.0,0.0,0.0,4.1781,4.1372,4.0229,4.0646,4.1099,4.1138,4.1755,4.2192,4.2248,4.223,4.2321,4.2538,4.2574,4.2813,4.3378,4.3871,4.3979,4.3642,4.3633,4.3852,4.4353,4.3743,4.3451,4.346,4.4435,4.4199,4.2905,4.29,4.29,4.2957,4.3649,4.3952,4.3968,4.4123,4.4524,4.5016,4.5171,4.5265,4.5307,4.5307,4.5307,4.5307,0.0,0.0,0.0,0.0,0.0,0.0,2.7835,2.8327,2.8716,2.8876,2.9194,2.9446,2.9571,2.9602,2.9602,2.9602,2.9602,2.9602,2.9602,2.9602,2.9665,2.9803,2.9803,2.9882,3.0036,3.0113,3.0258,3.0516,3.0637,3.0873,3.1226,3.1133,3.1164,3.1257,3.1257,3.1067,3.076,3.1337,3.182,3.2226,3.2213,3.2501,3.2986,3.324,3.3282,3.3282,3.3704,3.3873,3.3899,3.405,0.0,0.0,0.0,0.0,0.0,0.0,0.0,0.0,0.0,0.0,0.0,0.0,0.0,0.0,0.0,0.0,0.0,0.0,0.0,0.0,0.0,0.0,0.0,0.0,4.2425,4.2065,4.1038,4.1445,4.1868,4.1889,4.238,4.2746,4.2861,4.3151,4.3369,4.3389,4.3697,4.3937,4.3979,4.4765,4.5315,4.5498,4.5479,4.5681,4.6084,4.5296,4.4911,4.4912,4.5699,4.5659,4.4908,4.4909,4.5257,4.5752,4.4163,4.3465,4.3471,4.3481,4.3717,4.4152,0.0,0.0,0.0,0.0,4.5307,4.5307,0.0,0.0,0.0,0.0,0.0,0.0,2.749,2.7848,2.821,2.8554,2.8876,2.9226,2.954,2.9602,2.9602,2.9602,2.9602,2.9602,2.9602,2.9602,2.9741,3.0019,3.0121,3.0273,3.0593,3.0665,3.0969,3.1503,3.1503,3.1806,3.2449,3.2256,3.2209,3.2209,3.2209,3.1971,3.1548,3.2226,3.2579,3.2696,3.3195,3.3686,3.4101,3.4101,3.4149,3.4214,3.4214,3.4279,3.436,3.4394,0.0,0.0,0.0,0.0,0.0,0.0,0.0,0.0,0.0,0.0,0.0,0.0,0.0,0.0,0.0,0.0,0.0,0.0,0.0,0.0,0.0,0.0,0.0,0.0,4.2308,4.2308,4.2308,4.245,4.257,4.2589,4.2589,4.2685,4.289,4.3577,4.403,4.4183,4.4872,4.5106,4.47,4.5619,0.0,0.0,0.0,4.7696,4.7696,4.7696,4.7696,4.7696,4.7696,4.7696,4.7696,4.7702,4.8395,4.9418,4.526,4.3432,4.3451,4.3438,4.333,4.3269,4.4732,4.5294,4.5312,4.5295,4.5297,4.5305,0.0,0.0,0.0,0.0,0.0,0.0,2.749,2.7848,2.821,2.8554,2.8876,2.9226,2.954,2.9602,2.9602,2.9602,2.9602,2.9602,2.9602,2.9602,2.9634,2.9696,3.0143,3.0443,3.0524,3.1047,3.1372,3.15,3.15,3.1706,3.2112,3.2047,3.2177,3.2449,3.2449,3.2587,3.2833,3.3153,3.3636,3.4198,3.4472,3.4392,3.4101,3.4101,3.4473,3.5001,3.5001,3.5364,3.5918,3.6233,3.6746,3.7265,3.7652,0.0,0.0,0.0,0.0,0.0,0.0,0.0,0.0,0.0,0.0,0.0,0.0,0.0,0.0,0.0,0.0,0.0,0.0,0.0,0.0,4.2308,4.2308,4.2308,4.2308,4.2328,4.2407,4.2506,4.2568,4.2861,4.3528,4.3764,4.4106,4.4775,4.5019,4.533,4.5776,4.6189,4.6814,4.7671,4.7708,4.7708,4.7708,4.7708,4.7708,4.7708,4.7708,0.0,4.7689,4.7705,4.7875,4.8087,4.7165,4.6762,4.6776,4.6761,4.5879,4.4575,4.5098,4.5304,4.53,4.5287,4.5309,4.5295,0.0,0.0,0.0,0.0,0.0,0.0,2.749,2.7669,2.7934,2.8295,2.8503,2.8716,2.9067,2.9099,2.9099,2.9099,2.9257,2.9554,3.0006,3.0066,3.0238,3.0644,3.0954,3.111,3.1207,3.1532,3.1844,3.2203,3.2203,3.2459,3.2939,3.2872,3.2906,3.3073,3.3339,3.3383,3.3338,3.4103,3.4573,3.4774,3.5206,3.5281,3.5176,3.5013,3.5186,3.5535,3.5683,3.5995,3.6356,3.6763,3.7386,3.8086,3.8509,3.9162,3.9779,0.0,0.0,0.0,0.0,0.0,0.0,0.0,0.0,0.0,0.0,0.0,0.0,0.0,0.0,4.2308,0.0,0.0,4.2308,4.2308,4.2308,4.2308,4.2308,4.2644,4.2932,4.2992,4.3036,4.3384,4.4214,4.4665,4.5099,4.5576,4.596,4.6362,4.6786,4.6922,4.722,4.7678,4.7717,4.7717,4.7717,4.7717,4.7717,4.7717,4.7717,4.7717,4.7699,4.7686,4.7706,4.7692,4.7715,4.7696,4.7704,4.7706,4.715,4.6387,4.7257,4.6662,4.5392,4.6237,4.6546,4.6542,0.0,0.0,0.0,0.0,0.0,0.0,0.0,2.749,2.7636,2.8046,2.8112,2.8243,2.8554,2.8587,2.8641,2.875,2.9182,2.9781,0.0,3.0648,3.097,3.1627,3.1768,3.1905,3.199,3.2118,3.243,3.2995,3.2995,3.3266,3.3827,3.3675,3.3605,3.3675,3.421,3.4209,3.3914,3.5029,3.5442,3.5326,3.5758,3.6099,3.6309,3.6099,3.6059,3.614,3.6416,3.6594,3.6788,3.7251,3.8027,3.8883,3.937,4.0158,4.0912,4.0912,4.0912,0.0,0.0,0.0,0.0,0.0,0.0,0.0,0.0,0.0,4.2246,4.2287,4.2308,4.2308,4.2308,4.2308,4.2308,4.2308,4.2308,4.2341,4.2501,4.309,4.3604,4.3907,4.38,4.4039,4.4915,4.5577,4.6068,4.6338,4.6934,4.732,4.7425,4.7468,4.7572,4.7693,4.7696,4.7717,4.7717,4.7717,4.7717,4.7717,4.7717,4.7717,4.7717,4.7717,4.7717,4.7717,4.7717,4.7717,4.7702,4.7705,4.7703,4.782,4.9005,4.8126,4.6353,4.7707,4.825,4.8288,0.0,0.0,0.0,0.0,0.0,0.0,0.0,0.0,2.7636,2.8046,2.8112,2.8243,2.8554,2.8587,2.879,2.9259,3.017,3.0729,3.0865,3.1193,3.1415,3.1518,3.2039,3.2334,3.2334,3.2868,3.3178,3.3248,3.3248,3.3395,3.364,3.3605,3.3709,3.3896,3.4428,3.4909,3.5362,3.5773,3.626,3.6735,3.6507,3.6445,3.6507,3.6765,3.6994,3.7138,3.7182,3.7614,3.8288,3.9037,3.9384,3.9622,4.0453,4.0819,4.0912,4.0912,0.0,4.0912,4.0912,4.1041,4.1255,4.152,4.1626,4.1675,0.0,0.0,4.2019,4.2246,4.2308,4.2308,4.2308,4.2308,4.2308,4.2308,4.2308,4.2537,4.3268,4.3426,4.4018,4.5392,4.4906,4.4803,4.561,4.5771,4.611,4.6864,4.7102,4.7223,4.7223,4.7403,4.7565,4.7716,4.7711,4.7717,4.7717,4.7717,4.7717,4.7717,4.7717,4.7717,4.7717,4.7717,4.7717,4.7717,4.7717,4.7717,4.7699,4.7705,4.7713,4.7727,4.7872,4.8549,4.9407,4.9613,4.9821,5.0019,0.0,0.0,0.0,0.0,0.0,0.0,0.0,0.0,0.0,2.7736,2.7736,2.7934,2.8432,2.8811,2.9185,2.9583,3.0235,0.0,3.1405,3.1802,3.2188,3.2539,3.2806,3.2932,3.2932,3.315,3.329,3.329,3.329,3.3361,3.3431,3.3431,3.3466,3.3605,3.4419,3.4957,3.5222,3.599,3.6554,3.6984,3.6847,3.6877,3.7043,3.718,3.7273,3.7368,3.7368,3.783,0.0,0.0,3.9653,4.0104,4.0704,4.0912,4.0912,4.0912,4.0912,0.0,4.0912,4.0965,4.1041,4.1175,4.1272,4.1408,4.148,4.1613,4.1784,4.2019,4.2061,4.2103,4.2267,4.2308,4.2308,0.0,4.2308,4.2573,4.3393,4.3854,4.4549,4.5677,4.5927,4.6123,4.6462,4.6498,4.6641,4.6962,4.7043,4.7111,4.7196,4.7214,4.7359,4.7695,4.7702,4.7708,4.7717,4.7717,4.7717,4.7717,4.7717,4.7717,4.7717,4.7717,4.7717,4.7717,4.7717,4.7717,4.7717,4.7717,4.7704,4.7787,4.8658,4.9355,4.9915,4.9893,4.9962,5.0076,0.0,0.0,0.0,0.0,0.0,0.0,0.0,0.0,0.0,0.0,2.76,2.7926,2.8569,2.9157,2.9617,2.9852,3.0408,0.0,0.0,3.2243,3.2744,3.3262,3.329,3.329,3.329,3.329,3.329,3.329,3.329,3.329,3.329,3.329,3.329,3.3347,3.4423,3.4909,3.4975,3.6053,3.6647,3.6847,3.6847,3.6984,3.7148,3.7148,3.7148,3.7178,3.7328,3.7796,0.0,0.0,3.954,4.0045,4.0704,4.0823,4.0769,4.0864,4.0912,4.0912,4.0912,4.0912,4.0912,4.0912,4.0995,4.1117,4.1186,4.1363,4.1565,4.1831,4.1895,4.1977,4.2246,4.2308,4.2358,4.259,4.2626,4.2983,4.4,4.4607,4.5231,4.6034,4.6641,4.6998,4.6998,4.6998,4.6998,4.6998,4.6998,4.7043,4.7133,4.7066,4.7173,4.7551,4.7594,4.7641,4.7711,4.7711,4.7693,4.7717,4.7717,4.7717,4.7717,4.7717,4.7717,4.7717,4.7717,4.7717,4.7717,4.7717,4.7708,4.78,4.8882,4.9533,4.9903,4.9901,4.9903,4.9903,0.0,0.0,0.0,0.0,0.0,0.0,0.0,0.0,0.0,0.0,0.0,0.0,0.0,2.9771,3.0074,3.0074,0.0,0.0,0.0,3.2461,3.2868,3.3276,3.329,3.329,3.329,3.329,3.329,3.329,3.329,3.329,3.329,3.329,3.329,3.3347,3.4423,3.4909,3.4975,3.6053,3.6523,3.6523,3.6523,3.6523,3.6523,3.6523,3.6523,3.66,3.7178,0.0,3.8042,3.8909,3.9142,3.9265,4.0517,4.0631,0.0,4.0793,4.0912,4.0912,4.0912,4.0912,4.0912,4.0912,4.0894,4.0965,4.1163,4.1209,4.1346,4.1809,4.1895,4.1977,4.2246,4.2308,4.2555,4.3358,4.3444,4.4,4.5517,4.5749,4.607,4.6855,4.7002,4.6998,0.0,4.6998,4.6998,4.6998,4.6998,4.6998,4.702,4.7004,4.7071,4.7219,4.7294,4.7439,4.7695,4.7695,4.7702,4.7717,4.7717,4.7717,4.7717,4.7717,4.7717,4.7717,4.7717,4.7717,4.7717,4.7717,4.7688,4.7698,4.7737,4.8632,4.9908,4.9896,4.9893,4.9906,0.0,0.0,0.0,0.0,0.0,0.0,0.0,0.0,0.0,0.0,0.0,0.0,0.0,0.0,0.0,0.0,0.0,0.0,0.0,3.2345,3.2775,3.2895,3.3171,3.329,3.329,3.329,3.329,3.329,3.329,3.329,3.329,3.329,3.329,3.3347,3.4423,3.4909,3.4975,3.6053,3.6492,3.6492,3.6492,3.6492,3.6492,3.6492,3.6492,3.6523,0.0,0.0,3.7751,3.8023,3.8695,3.9563,4.0578,4.1086,4.1447,4.2201,4.205,4.1636,4.1636,4.1274,4.0912,4.0912,4.0912,4.0935,4.0989,4.1534,4.2091,4.2426,4.3028,4.3562,4.3779,4.3839,4.3911,4.4175,4.4228,4.4585,4.5659,4.5802,4.6105,4.689,4.6998,0.0,0.0,0.0,4.6998,4.6998,4.6998,4.6998,4.6998,4.7007,4.7053,4.7196,4.7129,4.724,4.7565,4.7472,4.7518,4.7717,4.7717,4.7717,4.7717,4.7717,4.7717,4.7717,4.7717,4.7717,4.7717,4.7717,4.7689,4.7692,4.7702,4.859,4.9901,4.9901,4.9912,4.9893,0.0,0.0,0.0,0.0,0.0,0.0,0.0,0.0,0.0,0.0,0.0,0.0,0.0,0.0,0.0,0.0,0.0,3.1445,0.0,0.0,3.2345,3.2489,3.2717,3.2874,3.2874,3.2874,3.2874,3.2874,3.3016,3.3086,3.3086,3.3241,3.3417,3.3597,3.4524,3.5023,3.5252,3.6116,3.663,3.683,3.6599,3.663,3.683,3.6584,3.6645,0.0,0.0,0.0,3.7945,3.7931,3.861,3.9594,4.0869,4.1733,4.2358,4.2681,4.2413,4.1947,4.1688,4.1274,4.0963,4.124,4.1291,4.1378,4.1671,4.223,4.2793,4.3121,4.3708,4.4248,4.4559,4.4603,4.4692,4.4977,4.5013,4.532,4.6123,4.623,4.6409,4.6926,4.6998,4.6998,0.0,0.0,0.0,4.6998,4.6998,4.6998,4.6998,4.6998,4.7043,4.7129,4.7039,4.7133,4.7389,4.7335,4.7439,4.7717,4.7717,4.7717,4.7717,4.7717,4.7717,4.7717,4.7717,4.7717,4.7717,4.7717,4.7717,4.7689,4.7703,4.86,4.9911,4.9904,4.99,4.9906,0.0,0.0,0.0,0.0,0.0,0.0,0.0,0.0,0.0,0.0,0.0,0.0,0.0,0.0,0.0,0.0,0.0,0.0,0.0,0.0,0.0,3.2055,3.2092,3.2092,3.2092,3.2092,3.2092,3.2092,3.2489,3.2668,3.2668,3.3051,3.3507,3.4002,3.461,3.5154,3.5655,3.6226,3.683,3.7352,3.6753,3.6892,3.743,3.6784,0.0,0.0,0.0,0.0,3.8498,3.8558,3.8794,3.9385,4.1266,4.2465,4.3026,4.2292,4.2068,4.1912,4.1222,4.1015,4.1188,4.1847,4.2043,4.2275,4.3009,4.3224,4.3415,4.3863,4.4015,4.4172,0.0,0.0,4.4959,4.5749,4.5856,4.6123,4.689,4.6998,4.6998,0.0,0.0,0.0,0.0,0.0,0.0,4.6998,4.6998,4.6998,4.6998,4.6998,4.6998,4.6998,4.6998,4.7057,4.7208,4.7284,4.745,4.7717,4.7717,4.7717,4.7717,4.7717,4.7717,4.7717,4.7717,4.7717,4.7717,4.7717,4.7717,4.7689,4.7703,4.8604,4.988,4.9826,4.9844,4.9901,0.0,0.0,0.0,0.0,0.0,0.0,0.0,0.0,0.0,0.0,0.0,0.0,0.0,0.0,0.0,0.0,0.0,0.0,0.0,0.0,0.0,0.0,0.0,0.0,0.0,0.0,0.0,3.2092,3.22,3.2237,3.2273,3.2359,3.2489,3.2654,3.3796,3.4375,3.4576,3.5671,3.6238,3.6376,0.0,3.6672,3.7254,0.0,0.0,0.0,0.0,0.0,0.0,0.0,0.0,0.0,4.1057,4.197,4.2698,4.2848,4.2896,4.2844,4.2654,4.2603,4.258,4.2424,4.2628,4.2873,4.2715,4.3528,4.4401,4.4716,4.5388,4.6011,0.0,0.0,0.0,4.6659,4.6676,0.0,4.6962,4.6998,0.0,4.6998,0.0,4.6998,4.6998,4.6998,0.0,4.6998,4.6998,4.6998,4.6998,4.6998,4.6998,4.6998,4.6998,4.7075,4.7262,4.7493,4.7636,4.7717,4.7717,4.7717,4.7717,4.7717,4.7717,4.7717,4.7717,4.7717,4.7717,4.7717,4.7717,4.7689,4.7703,4.8599,4.9779,4.8662,4.895,4.991,0.0,0.0,0.0,0.0,0.0,0.0,0.0,0.0,0.0,0.0,0.0,0.0,0.0,0.0,0.0,0.0,0.0,0.0,0.0,0.0,0.0,0.0,0.0,0.0,0.0,0.0,0.0,0.0,0.0,0.0,3.1873,3.2019,3.2403,3.2995,3.3762,3.4423,3.499,3.5703,0.0,0.0,0.0,0.0,0.0,0.0,0.0,0.0,0.0,0.0,0.0,0.0,0.0,4.0321,4.1006,4.2034,4.3019,4.2929,0.0,4.3306,4.298,4.274,4.2652,4.2923,4.3034,4.3199,4.3672,4.4101,4.4586,4.5284,4.5797,0.0,4.6731,4.6911,0.0,0.0,0.0,0.0,4.6998,4.6998,4.6998,0.0,4.6998,0.0,4.6998,4.6998,4.6998,4.6998,4.6998,4.6998,4.6998,4.6998,4.6998,4.6998,4.6998,4.7093,4.7298,4.7565,4.7711,4.7717,4.7717,4.7717,4.7717,4.7717,4.7717,4.7717,4.7717,4.7717,4.7717,4.7717,4.7717,4.7689,4.7703,4.8601,4.9802,4.8964,4.9201,4.9896,0.0,0.0,0.0,0.0,0.0,0.0,0.0,0.0,0.0,0.0,0.0,0.0,0.0,0.0,0.0,0.0,0.0,0.0,0.0,0.0,0.0,0.0,0.0,0.0,0.0,0.0,0.0,0.0,0.0,0.0,0.0,0.0,0.0,0.0,0.0,0.0,0.0,0.0,0.0,0.0,0.0,0.0,0.0,0.0,0.0,0.0,0.0,0.0,0.0,0.0,3.955,4.0206,4.0791,4.2066,4.3213,4.2605,4.2945,4.3359,4.2732,4.2334,4.235,4.3314,4.3289,4.3401,4.4807,4.4586,4.4412,4.5485,0.0,4.581,4.6477,4.6819,4.6998,4.6998,0.0,4.6998,4.6998,4.6998,4.6998,4.6998,4.6998,4.6998,4.6998,4.6998,4.6998,4.6998,4.6998,4.6998,4.6998,4.6998,4.6998,4.6998,4.7043,4.712,4.7302,4.7558,4.7705,4.7717,4.7717,4.7717,4.7717,4.7717,4.7717,4.7717,4.7717,4.7717,4.7717,4.7717,4.7717,4.7708,4.7703,4.8605,4.9899,4.9894,4.9905,4.989,0.0,0.0,0.0,0.0,0.0,0.0,0.0,0.0,0.0,0.0,0.0,0.0,0.0,0.0,0.0,0.0,0.0,0.0,0.0,0.0,0.0,0.0,0.0,0.0,0.0,3.0986,3.0986,3.0986,3.1061,0.0,0.0,0.0,0.0,0.0,0.0,0.0,0.0,0.0,0.0,0.0,0.0,0.0,0.0,0.0,0.0,0.0,0.0,0.0,0.0,0.0,3.9754,3.9655,3.9823,4.0668,4.1598,4.1849,4.2445,4.2981,4.2864,4.3238,4.3564,4.3389,4.3569,4.3776,4.3689,4.4128,0.0,0.0,4.5674,4.6186,4.6542,4.6819,4.6998,4.6998,4.6998,4.6998,4.6998,4.6998,4.6998,0.0,4.6998,4.6998,4.6998,4.6998,0.0,4.6998,4.6998,4.6998,4.6998,4.6998,4.6998,4.6998,4.7165,4.724,4.7226,4.7533,4.7714,4.7717,4.7717,4.7717,4.7717,4.7717,4.7717,4.7717,4.7717,4.7717,4.7717,4.7717,4.7717,4.7705,4.7693,4.8606,4.989,4.9893,4.99,4.9933,0.0,0.0,0.0,0.0,0.0,0.0,0.0,0.0,0.0,0.0,2.7839,0.0,0.0,0.0,0.0,0.0,0.0,0.0,0.0,0.0,0.0,0.0,0.0,0.0,0.0,3.0986,3.0986,3.0986,0.0,3.0986,3.0986,3.0986,3.1394,3.211,3.2861,3.363,3.4346,0.0,0.0,3.5504,3.5683,3.5978,0.0,0.0,0.0,0.0,0.0,0.0,0.0,0.0,3.9757,3.9818,3.98,4.055,4.1488,4.1914,4.2543,4.309,4.309,4.3178,4.3262,4.3292,4.3292,4.3323,4.3604,0.0,0.0,0.0,4.5064,4.5381,4.6405,4.659,0.0,4.6957,4.6998,4.6998,4.6998,4.6998,0.0,4.6998,4.6998,4.6998,0.0,4.6998,4.6998,4.6998,4.6998,4.6998,4.6998,4.6998,4.6998,4.6998,4.716,4.7272,4.7356,4.7454,4.756,4.7717,4.7717,4.7717,4.7717,4.7717,4.7717,4.7717,4.7717,4.7717,4.7717,4.7717,4.7717,4.7687,4.77,4.8122,4.8859,4.9608,4.9895,4.9923,0.0,0.0,0.0,0.0,0.0,0.0,0.0,2.5452,2.5619,2.6099,2.6141,2.6442,2.7221,2.7232,0.0,0.0,0.0,0.0,0.0,0.0,0.0,0.0,0.0,0.0,0.0,0.0,0.0,3.0986,3.0986,0.0,0.0,0.0,0.0,0.0,3.2861,3.363,3.4346,3.5166,3.5504,0.0,0.0,3.5701,0.0,0.0,0.0,0.0,0.0,0.0,0.0,0.0,3.9908,4.0197,4.023,4.0938,4.1864,4.2245,4.2745,4.3141,4.3141,4.2881,4.268,4.305,4.2881,4.2805,4.3532,4.3218,0.0,0.0,4.4612,4.4804,4.6315,0.0,4.6518,0.0,4.6998,4.6998,4.6998,4.6998,4.6998,0.0,4.6998,0.0,4.6998,4.6998,0.0,4.6998,4.6998,4.6998,4.6998,4.6998,4.6998,4.6998,4.7156,4.7303,4.7467,4.7414,4.7503,4.7717,4.7717,4.7717,4.7717,4.7717,4.7717,4.7717,4.7717,4.7717,4.7717,4.7702,4.7702,4.7713,4.7703,4.7892,4.8331,4.9542,4.9986,5.0012,0.0,0.0,0.0,0.0,0.0,0.0,0.0,2.3387,2.3757,2.484,2.4445,2.4498,2.5568,2.6771,0.0,0.0,0.0,0.0,0.0,0.0,0.0,0.0,0.0,0.0,0.0,0.0,0.0,3.0986,3.0986,0.0,0.0,0.0,0.0,0.0,0.0,3.363,3.4346,3.5166,0.0,0.0,0.0,0.0,0.0,0.0,0.0,0.0,0.0,0.0,0.0,0.0,0.0,4.0535,4.0899,4.1512,4.2125,4.2458,0.0,0.0,4.2649,4.2618,4.2602,4.2649,4.2634,4.2618,4.2711,0.0,4.3469,4.4277,4.4939,4.5614,4.6453,4.6795,4.6934,0.0,0.0,4.6998,4.6998,4.6998,4.6998,4.6998,0.0,0.0,4.6998,4.6998,4.6998,4.6998,4.6998,4.6998,4.6998,4.6998,4.6998,4.6998,4.7187,4.7298,4.732,4.7554,4.7678,4.7717,4.7717,4.7717,4.7717,4.7717,4.7717,4.7717,4.7717,4.7717,4.7699,4.771,4.7695,4.7702,4.7701,4.8505,4.9728,5.0105,5.0258,5.0272,0.0,0.0,0.0,0.0,0.0,0.0,0.0,2.3013,2.3266,2.3714,2.3701,2.3797,2.4251,2.5009,0.0,0.0,0.0,0.0,0.0,0.0,0.0,0.0,0.0,0.0,0.0,0.0,3.0986,3.0986,3.0986,0.0,0.0,0.0,0.0,0.0,0.0,3.3802,3.4528,3.5444,0.0,0.0,0.0,0.0,0.0,0.0,0.0,0.0,0.0,0.0,0.0,0.0,0.0,0.0,4.0704,4.0924,0.0,0.0,4.1541,4.1355,4.1355,4.1355,4.1355,4.1355,4.1678,4.2002,4.2002,0.0,4.3141,4.398,4.4095,4.4529,4.6052,4.6151,4.62,0.0,0.0,0.0,4.6998,0.0,4.6998,4.6998,4.6998,0.0,0.0,0.0,4.6998,4.6998,4.6998,4.6998,4.6998,4.6998,4.6998,4.6998,4.7187,4.7302,4.7302,4.7572,4.7717,4.7717,4.7717,4.7717,4.7717,4.7717,4.7717,4.7717,4.7717,4.7702,4.771,4.7695,4.7832,4.8065,4.807,4.8909,5.0159,5.0258,5.0301,5.0307,0.0,0.0,0.0,0.0,0.0,0.0,2.2882,2.3013,2.3091,2.3091,2.3406,2.359,2.359,2.4024,2.4658,2.5547,0.0,0.0,0.0,0.0,0.0,0.0,0.0,0.0,0.0,0.0,3.0986,3.0986,3.0986,3.0986,0.0,0.0,3.1259,3.1809,0.0,0.0,0.0,0.0,0.0,0.0,0.0,0.0,0.0,0.0,0.0,0.0,0.0,0.0,0.0,0.0,0.0,0.0,0.0,0.0,0.0,0.0,4.072,4.0496,4.0496,4.0496,4.0496,4.0496,4.0869,4.1272,0.0,0.0,4.2215,4.3115,4.297,4.3242,4.4904,4.4904,4.5006,0.0,0.0,4.6415,4.6941,4.6998,4.6989,0.0,0.0,4.6998,4.6998,4.6998,4.6998,4.6998,4.6998,4.6913,4.6726,4.6708,4.6816,4.7048,4.7209,4.7302,4.7363,4.7593,4.7717,4.7717,4.7717,4.7717,4.7717,4.7717,4.7717,4.7717,4.7702,4.7689,4.7697,4.7834,4.8045,4.8294,4.8311,4.8885,4.9756,5.0161,5.0291,5.0302,0.0,0.0,0.0,0.0,0.0,0.0,0.0,2.3091,2.3091,2.3091,2.3493,2.3797,2.3797,2.4239,2.4497,2.4497,0.0,0.0,0.0,0.0,0.0,0.0,0.0,0.0,0.0,0.0,3.0986,3.0986,3.0986,3.0986,3.0986,3.0986,3.0986,3.1061,0.0,0.0,0.0,0.0,0.0,0.0,0.0,0.0,0.0,0.0,0.0,0.0,0.0,0.0,0.0,0.0,0.0,0.0,0.0,3.9245,3.9115,0.0,4.0496,4.0496,4.0496,4.0496,4.0496,4.0496,4.0496,4.0496,0.0,0.0,4.0733,4.1471,4.1732,4.2041,4.2791,4.3044,4.34,4.4275,4.4423,0.0,4.6755,4.6993,0.0,0.0,0.0,4.6998,4.6998,4.6998,4.6998,4.6998,4.6998,4.6726,4.605,4.6014,4.6372,4.716,4.7254,4.7363,4.749,4.7636,4.7717,4.7717,4.7717,4.7717,4.7717,4.7717,4.7717,4.7699,4.7692,4.7697,4.7718,4.8145,4.8298,4.8301,4.8309,4.8317,4.848,4.9821,5.0304,5.0333,0.0,0.0,0.0,0.0,0.0,0.0,0.0,2.3013,2.3091,2.3091,2.3406,2.359,2.359,2.4024,2.4411,2.4743,0.0,0.0,0.0,0.0,0.0,0.0,0.0,0.0,0.0,0.0,3.0545,3.0986,3.0986,3.0986,3.0986,3.0986,3.1421,3.22,3.3017,3.3891,0.0,0.0,0.0,0.0,0.0,0.0,0.0,0.0,0.0,0.0,0.0,0.0,0.0,0.0,0.0,0.0,0.0,0.0,0.0,3.9034,3.9055,3.9055,3.9055,3.9055,3.9055,3.9055,3.9428,3.9829,3.9829,4.0156,4.0629,4.1095,4.1222,4.1516,4.2342,4.2508,4.2946,4.42,4.3917,0.0,0.0,0.0,0.0,4.7012,4.6999,4.6981,4.7002,4.6333,4.5918,4.5918,4.5632,4.5398,4.519,4.5254,4.5444,4.5695,4.5744,4.5828,4.5869,4.599,4.6622,4.7709,4.7709,4.7709,4.7709,4.7709,4.7692,4.7718,4.7702,4.7871,4.8114,4.8247,4.8285,4.8306,4.829,4.8296,4.846,4.9811,5.0418,5.0558,0.0,0.0,0.0,0.0,0.0,0.0,0.0,2.3013,2.3091,2.3091,2.3406,2.3624,2.3624,2.4024,2.4411,2.4743,0.0,0.0,0.0,0.0,0.0,0.0,0.0,0.0,0.0,2.9678,3.0266,3.0848,3.111,3.1272,3.1421,3.1421,3.1776,3.2489,3.3087,3.3837,0.0,0.0,0.0,0.0,0.0,0.0,3.6677,0.0,0.0,0.0,0.0,0.0,0.0,0.0,0.0,0.0,0.0,0.0,0.0,0.0,3.8391,3.8391,0.0,3.8391,3.8391,3.8391,3.8748,0.0,0.0,0.0,3.9849,4.0067,4.0164,4.0402,4.0946,4.1107,4.1454,4.2347,4.2038,4.1886,0.0,0.0,0.0,4.5221,0.0,0.0,4.6995,4.5842,4.5044,4.4924,4.4836,4.4692,4.4471,4.4536,4.4471,4.4223,4.4784,4.5132,4.5172,4.5251,4.5805,4.6779,4.6779,4.6484,4.5878,4.59,4.5885,4.5889,4.6059,4.6264,0.0,4.7812,4.831,4.8292,4.8307,4.8604,4.9087,4.9424,5.0037,5.0694,0.0,0.0,0.0,0.0,0.0,0.0,0.0,0.0,0.0,0.0,2.3537,2.3797,2.3841,2.4229,2.4497,0.0,0.0,0.0,0.0,0.0,0.0,0.0,0.0,0.0,0.0,2.9639,3.0139,3.0607,3.127,3.1776,3.2092,3.2092,3.2128,3.2164,3.2547,3.3101,3.3768,3.5204,3.6274,3.703,3.703,3.703,0.0,0.0,0.0,0.0,0.0,0.0,0.0,0.0,0.0,0.0,0.0,0.0,0.0,0.0,0.0,0.0,0.0,3.8408,3.8391,0.0,0.0,0.0,0.0,0.0,0.0,3.8616,3.8821,3.8996,3.9023,3.9175,3.9299,3.9299,3.9298,3.9286,0.0,4.103,0.0,0.0,4.4882,4.6669,4.6669,4.5344,4.4321,4.4007,4.4396,4.4417,4.3846,4.383,4.3546,4.2918,4.4233,4.5009,4.5128,4.5128,4.5128,4.5128,4.5128,4.4359,4.2897,4.2905,4.2928,4.2965,4.3339,4.3505,4.3742,4.6728,4.7974,4.7997,4.8324,4.922,5.018,4.8933,4.9417,5.0692,0.0,0.0,0.0,0.0,0.0,0.0,0.0,0.0,0.0,0.0,0.0,2.3884,2.4067,2.4325,0.0,0.0,0.0,0.0,0.0,0.0,0.0,0.0,0.0,0.0,0.0,2.9015,2.973,3.0607,3.127,3.1776,3.2092,3.2092,3.2273,3.2596,3.3101,3.4143,3.5625,3.6367,3.6938,3.7314,3.7314,3.7314,0.0,0.0,0.0,0.0,3.7314,3.7506,0.0,0.0,0.0,0.0,0.0,0.0,0.0,0.0,3.8391,3.842,3.8548,0.0,3.842,3.8548,3.8532,3.8588,0.0,0.0,0.0,0.0,0.0,0.0,0.0,3.9272,3.9299,3.9299,3.9295,3.9309,3.9289,0.0,0.0,4.2303,4.2942,4.3398,4.3394,4.3208,4.3039,4.2961,4.3147,4.3213,4.3072,4.3095,4.3062,4.2901,4.3243,4.3424,4.3462,4.3462,4.3462,4.3463,4.3446,4.3265,4.2901,4.2904,4.3069,4.336,4.3469,4.3505,4.356,4.4326,4.4635,4.4978,4.8471,5.0158,5.0568,5.0257,5.0379,5.07,0.0,0.0,0.0,0.0,0.0,0.0,0.0,0.0,0.0,0.0,0.0,0.0,0.0,0.0,0.0,0.0,0.0,0.0,0.0,0.0,0.0,0.0,0.0,0.0,2.7736,2.8819,2.973,3.0481,3.1553,3.2273,3.266,3.266,3.2838,3.3108,3.3528,3.4509,3.5944,3.6212,3.683,3.7623,3.7623,0.0,0.0,0.0,0.0,0.0,3.7623,3.7828,0.0,3.8132,3.8234,3.8391,0.0,0.0,0.0,0.0,3.8391,3.8436,3.8492,3.8504,3.8504,3.8655,3.8683,3.8711,0.0,0.0,0.0,0.0,0.0,0.0,0.0,0.0,3.9299,3.9299,3.9292,0.0,0.0,0.0,4.2302,4.2291,4.2294,4.2296,4.2294,4.2563,4.2741,4.2751,4.2761,4.2767,4.2842,4.2881,4.2901,4.2901,4.2957,4.2957,4.2901,4.2902,4.2902,4.2902,4.2886,4.2996,4.3178,4.3178,4.3286,4.3485,4.35,4.3498,4.3499,4.3515,4.3882,4.4665,4.6648,4.7815,4.8371,4.8364,4.9028,4.9933,0.0,0.0,0.0,0.0,0.0,0.0,0.0,0.0,0.0,0.0,0.0,0.0,0.0,0.0,0.0,0.0,0.0,0.0,0.0,0.0,0.0,0.0,0.0,2.726,2.726,2.8779,2.9807,3.0355,3.1796,3.2789,3.329,3.3326,3.3466,3.364,3.4005,3.4725,3.5691,3.5867,3.6722,3.7988,3.7988,0.0,0.0,0.0,0.0,0.0,0.0,0.0,0.0,3.842,3.8448,3.8448,3.842,0.0,0.0,0.0,0.0,0.0,3.8476,3.856,3.8699,3.8777,3.8805,3.8832,3.886,0.0,0.0,0.0,0.0,0.0,0.0,0.0,0.0,0.0,0.0,0.0,4.2078,4.2289,4.2308,4.229,4.2297,4.2322,4.2398,4.2697,4.2905,4.2894,4.2804,4.2769,4.2882,4.2919,4.2938,4.2938,4.3049,4.3068,4.2939,4.2922,4.2904,4.2959,4.2978,4.3178,4.3506,4.3503,4.3502,4.3501,4.3511,4.3522,4.3588,4.358,4.4375,4.5504,4.4604,4.4915,4.5859,4.5957,4.7307,4.9139,0.0,0.0,0.0,0.0,0.0,0.0,0.0,0.0,0.0,0.0,0.0,0.0,0.0,0.0,0.0,0.0,0.0,0.0,0.0,0.0,0.0,0.0,2.7371,2.7441,2.7441,2.8435,2.9471,3.0557,3.1318,3.2223,3.329,3.3466,3.364,3.3882,3.4876,3.558,3.6104,3.7115,3.7857,3.8335,3.8335,0.0,0.0,0.0,0.0,0.0,0.0,0.0,0.0,3.8616,3.8628,3.8738,3.8616,0.0,0.0,0.0,0.0,0.0,3.886,3.8914,3.8914,3.8832,3.8887,3.8996,3.9175,0.0,0.0,0.0,0.0,0.0,0.0,3.9299,3.9299,0.0,0.0,4.1939,0.0,4.2289,4.231,4.23,4.2302,4.2418,4.2761,4.2854,4.2894,4.2899,4.2881,4.2882,4.2901,4.3012,4.3067,4.3067,4.3142,4.316,4.3069,4.296,4.2996,4.316,4.3323,4.3449,4.3504,4.3497,4.3493,4.351,4.3502,4.3659,4.3919,4.3916,4.4585,4.5571,4.5421,4.6042,4.7082,4.7559,4.8474,4.9637,0.0,0.0,0.0,0.0,0.0,0.0,0.0,0.0,0.0,0.0,0.0,0.0,0.0,0.0,0.0,0.0,0.0,0.0,0.0,0.0,0.0,2.7557,2.7777,2.7765,2.7522,2.8569,2.9471,3.0114,3.1378,3.2318,3.298,3.3577,3.3902,3.404,3.4673,3.5467,3.6415,3.695,3.7738,3.8628,0.0,0.0,0.0,0.0,0.0,0.0,0.0,0.0,0.0,0.0,3.875,3.8805,3.8738,0.0,0.0,0.0,0.0,0.0,3.8887,3.8942,3.8996,3.8914,3.904,3.9175,3.9272,0.0,0.0,0.0,0.0,0.0,0.0,0.0,3.9312,3.9289,0.0,4.2288,4.2308,4.2296,4.2297,4.2302,4.2476,4.2704,4.2893,4.2915,4.2899,4.29,4.2901,4.2938,4.2994,4.3067,4.3123,4.316,4.3251,4.3268,4.3213,4.3212,4.3158,4.3049,4.3355,4.3497,4.3497,4.3507,4.3592,4.3773,4.3772,4.4188,4.4865,4.486,4.5161,4.559,4.5606,4.5944,4.6579,4.7819,4.8916,4.9943,0.0,0.0,0.0,0.0,0.0,0.0,0.0,0.0,0.0,0.0,0.0,0.0,0.0,0.0,0.0,0.0,0.0,0.0,0.0,0.0,2.7452,2.7881,2.8151,2.8099,2.7684,2.8648,2.9394,2.9781,3.1328,3.2448,3.3058,3.377,3.4162,3.4264,3.4568,3.5432,3.6676,3.6828,3.7648,3.8805,0.0,0.0,0.0,0.0,0.0,0.0,0.0,0.0,0.0,0.0,0.0,0.0,0.0,0.0,0.0,3.8914,3.8914,3.8914,3.8914,3.8996,3.9067,3.9067,3.9175,3.9299,3.9299,0.0,0.0,0.0,0.0,0.0,0.0,3.9299,0.0,3.9295,4.0583,4.1766,4.2233,4.2302,4.2324,4.2434,4.2722,4.2912,4.2895,4.2899,4.2901,4.2901,4.2938,4.2994,4.3086,4.3141,4.3178,4.3214,4.334,4.3429,4.3428,4.3479,4.3352,4.3046,4.3348,4.3543,4.3614,4.3631,4.3749,4.4,4.3988,4.4635,4.5644,4.562,4.5603,4.562,4.5726,4.6102,4.6733,4.8016,4.9227,5.0346,0.0,0.0,0.0,0.0,0.0,0.0,0.0,0.0,0.0,0.0,0.0,0.0,0.0,0.0,0.0,0.0,0.0,0.0,0.0,0.0,2.6951,2.7841,2.8271,2.8379,2.8127,2.8419,2.904,2.9999,3.0857,3.2218,3.3991,3.4059,3.4312,3.4698,3.5314,3.6071,3.692,3.7533,3.8185,3.8805,3.8805,0.0,0.0,0.0,0.0,0.0,0.0,0.0,0.0,0.0,0.0,0.0,0.0,0.0,3.9272,3.9272,3.9272,3.9272,3.9272,3.9272,3.9272,3.9272,3.9299,0.0,3.9299,3.9299,0.0,3.9299,0.0,0.0,0.0,3.9299,3.9299,3.9295,3.9433,4.0176,4.2035,4.2294,4.2444,4.2809,4.2889,4.2895,4.29,4.29,4.2901,4.2901,4.303,4.3086,4.3104,4.3287,4.334,4.3285,4.3427,4.3569,4.3764,4.3582,4.349,4.3454,4.349,4.3667,4.3968,4.3957,4.3988,4.4003,4.4007,4.4672,4.5788,4.5646,4.5649,4.573,4.6098,4.7478,4.9172,4.8805,4.9664,5.1053,0.0,0.0,0.0,0.0,0.0,0.0,0.0,0.0,0.0,0.0,0.0,0.0,0.0,0.0,0.0,0.0,0.0,0.0,0.0,0.0,2.6999,2.762,2.8327,2.8697,2.8776,2.8816,2.9131,2.9613,3.1044,3.2684,3.4481,3.4481,3.4616,3.4835,3.5527,3.629,3.7071,3.7751,3.8439,3.9121,3.9121,3.9121,0.0,0.0,0.0,0.0,0.0,0.0,0.0,0.0,3.9245,3.9299,3.9202,3.9245,3.9299,3.9299,3.9299,3.9299,3.9299,3.9299,3.9299,3.9299,3.9299,0.0,0.0,3.9299,3.9299,3.9299,3.9299,0.0,0.0,0.0,3.931,3.9312,3.9313,3.9988,4.2022,4.2513,4.2737,4.2883,4.2893,4.2899,4.29,4.2975,4.2994,4.2903,4.305,4.3178,4.3214,4.334,4.3411,4.3427,4.3513,4.381,4.4289,4.3929,4.3926,4.4303,4.3974,4.3892,4.3994,4.3998,4.4371,4.4985,4.4996,4.525,4.5678,4.5717,4.5764,4.5848,4.6074,4.7334,4.897,4.8736,4.9746,5.1236,0.0,0.0,0.0,0.0,0.0,0.0,0.0,0.0,0.0,0.0,0.0,0.0,0.0,0.0,0.0,0.0,0.0,0.0,0.0,2.5652,2.6607,2.7557,2.8223,2.8803,2.93,2.9365,2.9548,2.9793,3.1623,3.3297,3.475,3.475,3.485,3.5034,3.572,3.6461,3.7294,3.7937,3.8673,3.9432,3.9432,3.9432,0.0,0.0,0.0,0.0,0.0,0.0,0.0,0.0,3.9299,3.9299,3.9299,3.9299,3.9299,3.9299,3.9299,3.9299,3.9299,3.9299,3.9299,3.9299,0.0,0.0,3.9299,3.9299,3.9299,3.9299,3.9299,0.0,3.9308,0.0,0.0,4.0135,4.0268,4.0775,4.2273,4.2667,4.2832,4.2886,4.2915,4.2919,4.2957,4.3049,4.3068,4.2977,4.3142,4.325,4.3303,4.3375,4.3442,4.35,4.3614,4.3992,4.4659,4.45,4.4535,4.4745,4.4594,4.4453,4.425,4.4442,4.4907,4.5608,4.5629,4.5694,4.5767,4.5867,4.5956,4.6036,4.6076,4.7173,4.8687,4.8628,4.9727,5.1236,0.0,0.0,0.0,0.0,0.0,0.0,0.0,0.0,0.0,0.0,0.0,0.0,0.0,0.0,0.0,0.0,0.0,0.0,0.0,2.5306,2.5704,2.7678,2.7971,2.8633,2.9792,3.0011,3.0279,3.0607,3.2563,3.3968,3.4902,3.4902,3.5001,3.5246,3.5926,3.6753,3.7648,3.825,3.8974,3.9703,3.9703,3.9703,3.9703,0.0,0.0,0.0,0.0,0.0,0.0,0.0,3.9299,3.9299,3.9299,3.9299,3.9299,3.9299,3.9299,3.9299,3.9299,3.9299,3.9299,0.0,0.0,0.0,3.9299,3.9299,3.9299,3.9299,3.9315,3.9313,3.9306,3.9323,3.9976,4.1977,4.2301,4.244,4.2845,4.2716,4.2693,4.2875,4.2899,4.2938,4.3086,4.3104,4.3105,4.3105,4.3231,4.3303,4.3303,4.3426,4.3498,4.3509,4.3689,4.4129,4.4783,4.5339,4.5254,4.4618,4.5352,4.539,4.4831,4.536,4.5609,4.561,4.5753,4.5923,4.6094,4.61,4.6177,4.6285,4.615,4.7162,4.8691,4.8617,4.9659,5.1093,0.0,0.0,0.0,0.0,0.0,0.0,0.0,0.0,0.0,0.0,0.0,0.0,0.0,0.0,0.0,0.0,0.0,0.0,0.0,2.485,2.5673,2.7028,2.773,2.8712,2.9972,3.1283,3.1969,3.2064,3.264,3.3673,3.5115,3.5606,3.5959,3.6228,3.7338,3.8035,3.8414,3.9082,3.9461,3.9703,3.9703,3.9703,3.9703,0.0,0.0,0.0,0.0,0.0,0.0,0.0,0.0,0.0,3.9448,3.9395,3.9299,3.9299,3.9299,3.9299,3.9299,3.9299,0.0,3.9299,0.0,0.0,0.0,3.9299,0.0,0.0,3.9688,3.9871,3.9391,4.046,4.1618,4.2198,4.254,4.2693,4.2623,4.2733,4.2821,4.2839,4.2936,4.3067,4.3086,4.3233,4.3268,4.3176,4.3338,4.3443,4.344,4.3488,4.3506,4.3491,4.421,4.4642,4.4802,4.5014,4.5194,4.5371,4.5389,4.5413,4.5447,4.5609,4.5776,4.5949,4.5984,4.6033,4.6103,4.6101,4.6128,4.6166,4.6117,4.714,4.8613,4.8506,4.9427,5.0732,0.0,0.0,0.0,0.0,0.0,0.0,0.0,0.0,0.0,0.0,0.0,0.0,0.0,0.0,0.0,0.0,0.0,0.0,0.0,0.0,2.6205,2.725,2.8079,2.9094,3.0305,3.1713,3.2618,3.2889,3.343,3.4235,3.5326,3.6023,3.6461,3.6661,3.7991,3.8652,3.8827,3.9497,3.9807,3.9858,3.9858,3.9858,3.9858,0.0,0.0,0.0,0.0,0.0,0.0,0.0,0.0,0.0,3.9528,3.9432,3.9379,3.9379,3.9379,3.9379,3.9379,3.9379,0.0,3.9299,3.9299,3.9299,3.9299,0.0,0.0,0.0,3.9754,3.9933,4.0087,4.1302,4.2064,4.1377,4.189,4.2367,4.2302,4.2447,4.2683,4.2898,4.303,4.3123,4.3215,4.3323,4.3375,4.3319,4.3442,4.3511,4.3508,4.3627,4.3766,4.3929,4.4775,4.5197,4.515,4.5084,4.5285,4.5749,4.5611,4.5642,4.5816,4.5796,4.5872,4.6027,4.6137,4.6148,4.6097,4.6133,4.6114,4.6064,4.6033,4.6956,4.8305,4.8201,4.908,5.0285,0.0,0.0,0.0,0.0,0.0,0.0,0.0,0.0,0.0,0.0,2.4166,0.0,0.0,0.0,0.0,0.0,0.0,0.0,0.0,0.0,2.7005,2.8124,2.8939,2.9793,3.0773,3.1736,3.2577,3.3297,3.4505,3.5246,3.5537,3.6306,3.6691,3.6783,0.0,3.8881,3.9059,3.967,3.9986,4.0096,4.0096,4.0096,4.0096,4.0096,0.0,0.0,0.0,0.0,0.0,0.0,0.0,0.0,3.9563,3.9528,3.9528,3.9528,3.9528,3.9528,3.9528,0.0,0.0,3.9379,3.9325,0.0,3.9299,3.9299,3.9415,3.9842,0.0,3.9679,4.0903,4.1685,4.1626,4.007,4.0841,4.1717,4.1969,4.211,4.2391,4.303,4.3104,4.3196,4.3376,4.3412,4.3429,4.3496,4.3493,4.3507,4.3539,4.3825,4.4219,4.4701,4.5354,4.5696,4.5701,4.5463,4.5497,4.5814,4.5881,4.5954,4.6022,4.5949,4.5925,4.5923,4.6173,4.6225,4.6092,4.6149,4.6095,4.599,4.5969,4.6755,4.7899,4.7874,4.869,4.9732,0.0,0.0,0.0,0.0,0.0,0.0,0.0,0.0,0.0,0.0,0.0,0.0,0.0,0.0,0.0,0.0,0.0,0.0,0.0,0.0,2.736,2.8773,3.0355,3.132,3.1556,3.2804,3.3575,3.3899,3.4293,3.4876,0.0,0.0,0.0,3.7758,0.0,3.9722,3.9833,3.9995,4.007,4.0096,4.0096,4.0096,4.0096,4.0096,4.0096,0.0,0.0,0.0,0.0,0.0,0.0,0.0,3.9824,3.9746,3.9668,3.9668,3.9668,3.9668,3.9668,3.9668,0.0,0.0,3.9537,3.9448,3.9325,3.9299,3.9325,3.9441,3.9362,3.9415,3.9808,4.0467,4.0883,4.0611,4.1331,4.1943,4.2058,4.2454,4.2824,4.3067,4.3142,4.3251,4.3394,4.3446,4.3479,4.351,4.3508,4.3599,4.3875,4.3951,4.4467,4.5505,4.564,4.5729,4.5769,4.5761,4.5815,4.5889,4.6002,4.6089,4.6145,4.6086,4.6061,4.6069,4.617,4.6186,4.6098,4.6009,4.5944,4.5969,4.6301,4.7011,4.7864,4.8281,4.8696,4.9014,0.0,0.0,0.0,0.0,0.0,0.0,0.0,0.0,0.0,0.0,0.0,0.0,0.0,0.0,0.0,0.0,0.0,0.0,0.0,0.0,0.0,3.0405,3.1429,3.2042,3.2318,3.3367,3.4138,3.4476,3.4909,0.0,0.0,0.0,0.0,3.8481,0.0,4.0037,4.0096,4.0096,4.0096,4.0096,4.0096,4.0096,4.0096,4.0096,4.0096,4.0096,4.0096,0.0,0.0,0.0,0.0,0.0,0.0,0.0,3.9798,3.9798,3.9798,3.9798,3.9798,0.0,0.0,3.9703,0.0,3.959,3.9511,3.9494,3.9494,3.9494,3.9432,3.9511,3.985,4.035,4.0705,4.0695,4.1267,4.1745,4.1792,4.2297,4.2787,4.3123,4.3251,4.334,4.3446,4.3515,4.3529,4.3508,4.3592,4.3676,4.376,4.4392,4.5055,4.5733,4.583,4.5884,4.5847,4.5947,4.602,4.6041,4.6077,4.6107,4.6105,4.6131,4.6113,4.6041,4.6094,4.5979,4.5764,4.5699,4.5561,4.549,4.6113,4.6774,4.7422,4.7862,4.8247,4.8476,0.0,0.0,0.0,0.0,0.0,0.0,0.0,0.0,0.0,0.0,0.0,0.0,0.0,0.0,0.0,0.0,0.0,0.0,0.0,0.0,0.0,0.0,3.2309,3.2583,3.3087,3.3817,3.4476,3.5041,0.0,0.0,0.0,0.0,0.0,3.8978,0.0,4.0096,4.0096,4.0096,4.0096,4.0096,4.0096,4.0096,4.0096,4.0096,4.0096,4.0096,4.0096,4.0096,4.0096,4.0096,0.0,0.0,0.0,0.0,3.9935,3.9935,3.9935,3.9935,3.9935,0.0,3.9884,3.9755,3.9729,0.0,3.9703,3.9703,3.9703,3.9729,3.9642,3.9677,4.0237,4.0504,4.0646,4.0645,4.1007,4.1378,4.163,4.2095,4.2614,4.3178,4.3323,4.3429,4.3497,4.3548,4.358,4.3579,4.3713,4.3821,4.3854,4.4966,4.5649,4.5773,4.5988,4.6047,4.5933,4.6049,4.6138,4.6173,4.6113,4.6041,4.597,4.6037,4.6031,4.5962,4.5929,4.5691,4.5382,4.5321,4.5178,4.5059,4.5817,4.6426,4.69,4.7284,4.7702,4.7935,0.0,0.0,0.0,0.0,0.0,0.0,0.0,0.0,0.0,0.0,0.0,0.0,0.0,0.0,0.0,0.0,0.0,0.0,0.0,0.0,0.0,3.2583,3.3122,3.3577,3.3934,3.4327,3.4876,3.5576,0.0,0.0,0.0,0.0,0.0,3.9189,0.0,0.0,4.0096,4.0096,4.0096,4.0096,4.0096,4.0096,4.0096,4.0096,4.0096,4.0096,4.0096,4.0096,4.0096,4.0096,4.0096,0.0,0.0,0.0,4.007,4.007,4.007,4.007,0.0,0.0,4.0037,0.0,3.9875,3.9849,0.0,0.0,3.9729,3.9849,3.9772,3.9729,3.9935,4.0003,4.018,4.07,4.0825,4.1202,4.2154,4.2338,4.2634,4.3305,4.3394,4.3429,4.3497,4.3548,4.3669,4.3843,4.3815,4.4237,4.5261,4.5502,4.575,4.6041,4.6071,4.6095,4.6061,4.609,4.6092,4.6113,4.6048,4.5978,4.5897,4.5622,4.5615,4.5819,4.5582,4.5409,4.5314,4.5053,4.5116,4.5387,4.5969,4.6416,4.6783,4.7352,4.7377,4.7004,0.0,0.0,0.0,0.0,0.0,0.0,0.0,0.0,0.0,0.0,0.0,0.0,0.0,0.0,0.0,0.0,0.0,0.0,0.0,0.0,0.0,3.3368,3.3977,3.4524,3.4912,3.5452,3.604,0.0,0.0,0.0,0.0,3.8306,3.8723,0.0,0.0,0.0,0.0,0.0,4.0096,4.0113,4.0188,4.0213,0.0,0.0,0.0,0.0,0.0,0.0,4.032,4.032,4.032,4.032,4.032,0.0,0.0,0.0,4.0213,0.0,4.0138,4.0163,4.0188,0.0,4.0062,4.0104,3.9944,3.9918,3.9935,4.0011,3.9961,3.9935,4.0011,4.0011,4.0096,4.0377,4.0683,4.1065,4.1561,4.2157,4.2673,4.2957,4.3304,4.3515,4.3548,4.3682,4.3881,4.4153,4.4008,4.4423,4.5538,4.5663,4.5819,4.6088,4.6165,4.6176,4.6092,4.6133,4.6106,4.5982,4.5769,4.5627,4.5544,4.5247,4.5275,4.5511,4.5237,4.487,4.4461,4.4339,4.4401,4.4664,4.537,4.6008,4.6595,4.7032,4.6918,4.6519,0.0,0.0,0.0,0.0,0.0,0.0,0.0,0.0,0.0,0.0,0.0,0.0,0.0,0.0,0.0,0.0,0.0,0.0,0.0,0.0,0.0,3.3896,3.4572,3.5157,3.5595,3.6275,0.0,0.0,0.0,0.0,3.8843,3.8657,3.9146,0.0,4.0113,0.0,0.0,0.0,0.0,0.0,0.0,0.0,0.0,0.0,0.0,0.0,0.0,0.0,0.0,4.051,4.051,4.051,4.051,4.051,0.0,0.0,0.0,0.0,0.0,0.0,4.0337,4.0238,4.0288,4.0313,0.0,0.0,4.0196,4.0196,4.0196,4.0196,4.0196,4.0163,4.0146,4.0303,4.0604,4.0919,4.1225,4.1994,4.2577,4.2731,4.325,4.3599,4.3599,4.3783,4.4008,4.4252,4.4221,4.457,4.537,4.5655,4.5908,4.6148,4.6214,4.6206,4.6092,4.6117,4.6002,4.5744,4.5488,4.5265,4.5047,4.4743,4.4675,4.4747,4.4651,4.4243,4.3638,4.356,4.3796,4.4167,4.4682,4.5404,4.6203,4.6342,4.6213,4.5893,0.0,0.0,0.0,0.0,0.0,0.0,0.0,0.0,0.0,0.0,0.0,0.0,0.0,0.0,0.0,3.5617,3.5617,3.536,3.4732,3.4321,3.404,3.3896,3.4658,0.0,3.5595,3.6275,0.0,0.0,0.0,0.0,3.8974,3.9226,3.9662,4.0263,4.0163,4.0163,4.0305,0.0,0.0,0.0,0.0,0.0,0.0,0.0,0.0,0.0,0.0,0.0,0.0,0.0,0.0,4.051,4.051,4.051,4.051,0.0,0.0,0.0,0.0,4.0468,0.0,4.0468,4.0468,0.0,0.0,0.0,4.0485,4.0485,4.0485,4.0485,4.0485,4.0271,4.0279,4.0873,4.0597,4.07,4.1803,4.1997,4.2262,4.2825,4.3303,4.3599,4.3599,4.3783,4.3915,4.3913,4.4431,4.4801,4.493,4.5496,4.5944,4.6271,4.6167,4.6111,4.6108,4.5974,4.5711,4.5323,4.5314,4.4957,4.4331,4.4005,4.3669,4.3338,4.3701,4.3622,4.3221,4.296,4.35,4.4442,4.4107,4.4657,4.5588,4.5161,4.4974,4.4892,0.0,0.0,0.0,0.0,0.0,0.0,0.0,0.0,0.0,0.0,0.0,0.0,0.0,3.5323,3.5666,3.592,3.6065,3.6035,3.5769,3.6158,3.6319,3.6143,3.7054,3.7717,3.8075,3.8421,0.0,0.0,0.0,4.0075,4.0663,4.0354,4.0575,4.1119,4.0492,4.0255,4.0305,4.0387,0.0,0.0,0.0,0.0,0.0,0.0,0.0,0.0,0.0,0.0,0.0,0.0,0.0,0.0,0.0,0.0,0.0,0.0,0.0,0.0,0.0,0.0,0.0,4.0062,4.0188,4.0271,4.0461,4.051,4.051,4.051,4.051,4.051,4.051,4.0436,4.0419,4.0645,4.0607,4.0704,4.1117,4.145,4.1867,4.2398,4.294,4.3408,4.3703,4.3995,4.4258,4.4525,4.4614,4.4892,4.5397,4.5855,4.6176,4.6298,4.6172,4.6052,4.597,4.5677,4.5435,4.5294,4.4919,4.4457,4.3975,4.368,4.3175,4.2566,4.2454,4.23,4.2159,4.207,4.2278,4.2662,4.2995,4.3674,4.4482,4.4776,4.4735,4.4401,0.0,0.0,0.0,0.0,0.0,0.0,0.0,0.0,0.0,0.0,0.0,0.0,0.0,0.0,3.6626,3.6721,3.6678,3.6649,3.6649,3.7253,3.7549,3.7394,3.8513,3.9227,3.9502,3.9594,0.0,0.0,0.0,0.0,0.0,4.1516,4.1681,4.2013,4.1178,4.065,0.0,0.0,0.0,4.0765,0.0,0.0,4.1255,0.0,0.0,0.0,0.0,0.0,0.0,0.0,0.0,0.0,0.0,0.0,0.0,0.0,0.0,0.0,4.0659,0.0,0.0,0.0,4.0345,4.0419,4.0686,4.0717,4.0758,4.0853,4.0877,4.0877,4.0877,4.0877,4.0806,4.0607,4.0648,4.0721,4.0769,4.1192,4.1648,4.2032,4.2697,4.3266,4.3669,4.4055,4.4435,4.4739,4.4801,4.4985,4.5406,4.5985,4.6258,4.6172,4.6052,4.589,4.5708,4.5417,4.5182,4.4988,4.4449,4.3945,4.3446,4.314,4.2638,4.1966,4.1481,4.1308,4.1393,4.1173,4.1205,4.1486,4.1965,4.2611,4.3331,4.3895,4.3968,4.3651,0.0,0.0,0.0,0.0,0.0,0.0,0.0,0.0,0.0,0.0,0.0,0.0,0.0,0.0,0.0,3.8277,3.7739,3.7405,3.7405,3.7495,3.7507,3.7522,3.8836,3.9581,3.9612,3.9599,0.0,0.0,0.0,0.0,0.0,0.0,4.3065,4.303,4.2215,4.1459,4.0789,0.0,4.0901,4.1232,0.0,4.1552,4.1648,0.0,0.0,0.0,4.1927,4.1878,0.0,4.1927,0.0,0.0,0.0,0.0,0.0,0.0,0.0,0.0,0.0,0.0,0.0,0.0,4.1041,4.0965,4.1163,4.1209,4.1277,4.156,4.1604,4.1604,4.1604,4.1604,4.1403,4.0817,4.0721,4.0769,4.0912,4.126,4.16,4.1881,4.262,4.3195,4.3479,4.4008,4.4378,4.4506,4.4943,4.5129,4.4946,4.5799,4.6161,4.5905,4.5831,4.5645,4.5312,4.5235,4.4909,4.4369,4.3972,4.343,4.2754,4.2362,4.1984,4.1542,4.0855,4.0713,4.0913,4.0228,4.0366,4.1008,4.1089,4.1531,4.2206,4.248,4.2585,4.2585,0.0,0.0,0.0,0.0,0.0,0.0,0.0,0.0,0.0,0.0,0.0,0.0,0.0,0.0,0.0,3.9753,3.9637,3.9531,3.9531,4.0277,4.0665,4.0581,4.1284,4.1801,4.2109,4.1716,4.1805,0.0,0.0,0.0,0.0,0.0,0.0,0.0,4.3596,4.3101,4.2649,4.1556,0.0,4.1255,4.1778,4.2071,0.0,0.0,0.0,0.0,0.0,4.2807,4.2749,0.0,4.2595,4.2514,0.0,0.0,0.0,0.0,0.0,0.0,4.1383,0.0,0.0,0.0,0.0,0.0,4.1408,4.1475,4.1498,4.1582,4.1604,4.1604,4.1604,4.1604,4.1538,4.138,4.1358,4.1358,4.1403,4.1498,4.1701,4.2071,4.2661,4.3193,4.361,4.4313,4.4807,4.4988,4.5265,4.5452,4.5558,4.603,4.6119,4.5698,4.5667,4.5637,4.559,4.5036,4.4465,4.3901,4.3548,4.296,4.2221,4.2053,4.1749,4.1255,4.0383,4.0061,4.0086,3.9456,3.9164,3.9253,4.0257,4.0801,4.1111,4.2194,4.2349,4.1917,0.0,0.0,0.0,0.0,0.0,0.0,0.0,0.0,0.0,0.0,0.0,0.0,0.0,0.0,0.0,4.0485,4.0519,4.0554,4.0591,4.1495,4.1981,4.1901,4.2427,4.2867,4.3096,4.2531,4.2647,0.0,0.0,0.0,0.0,0.0,0.0,0.0,0.0,0.0,0.0,0.0,0.0,0.0,4.2798,0.0,0.0,4.3159,4.325,0.0,0.0,0.0,4.316,4.316,4.2995,0.0,0.0,0.0,0.0,0.0,0.0,0.0,0.0,0.0,0.0,0.0,0.0,0.0,4.1805,4.1866,4.1849,4.1977,4.2019,4.2016,4.1991,4.1995,4.2016,4.1991,4.1995,4.1913,4.1648,4.1604,4.1788,4.2302,4.2621,4.3068,4.377,4.4294,4.4776,4.518,4.5314,4.5497,4.578,4.6116,4.608,4.5608,4.5592,4.5515,4.5336,4.4687,4.4017,4.3402,4.2976,4.2491,4.1948,4.1709,4.1333,4.0825,3.9986,3.9499,3.9193,3.8585,3.827,3.8321,3.9604,4.0089,4.0235,4.1406,4.1655,4.1292,0.0,0.0,0.0,0.0,0.0,0.0,0.0,0.0,0.0,0.0,0.0,0.0,0.0,0.0,0.0,0.0,4.0961,4.1013,4.1133,4.1788,0.0,4.2173,4.2787,4.3174,4.3174,4.2567,4.2831,0.0,0.0,0.0,0.0,0.0,0.0,0.0,0.0,0.0,0.0,0.0,0.0,4.4631,4.4117,4.3922,0.0,0.0,4.3528,4.3559,4.3788,4.3609,4.3283,4.3454,4.3159,0.0,0.0,0.0,0.0,0.0,4.2629,0.0,0.0,0.0,0.0,0.0,4.2065,0.0,4.2249,4.2246,4.2228,4.2472,4.2552,4.257,4.2445,4.2528,4.257,4.2524,4.2548,4.2391,4.1784,4.1714,4.192,4.2523,4.2638,4.2996,4.389,4.4169,4.4572,4.5182,4.5256,4.5448,4.5821,4.6089,4.6039,4.5615,4.5611,4.5308,4.472,4.4243,4.3685,4.305,4.2439,4.2055,4.1813,4.1351,4.0866,4.0326,3.9655,3.9022,3.8435,3.7756,3.7626,3.7956,3.8994,3.9424,3.9598,4.0395,4.0687,4.0612,0.0,0.0,0.0,0.0,0.0,0.0,0.0,0.0,0.0,0.0,0.0,0.0,0.0,0.0,0.0,0.0,0.0,4.2632,4.2663,4.2958,4.3127,4.3127,4.3372,4.3492,4.3492,4.336,4.342,0.0,0.0,0.0,0.0,0.0,0.0,0.0,0.0,0.0,0.0,0.0,0.0,4.684,4.4734,4.4118,4.44,4.3941,4.3968,4.4292,4.4335,4.4306,4.417,4.3788,4.3474,4.3213,4.2939,0.0,0.0,4.2783,0.0,0.0,0.0,0.0,0.0,0.0,4.2472,0.0,4.2512,4.253,4.2412,4.211,4.2333,4.2472,4.2086,4.2351,4.2589,4.257,4.2589,4.2532,4.2412,4.2391,4.2452,4.2573,4.3159,4.3621,4.3833,4.4548,4.512,4.5418,4.5587,4.5826,4.617,4.5904,4.5692,4.5594,4.5606,4.5155,4.4163,4.4047,4.3815,4.3405,4.2409,4.1714,4.1261,4.1035,4.0645,4.0053,3.948,3.8903,3.8294,3.7743,3.7539,3.7662,3.8411,3.9029,3.9535,3.9786,4.0001,4.001,0.0,0.0,0.0,0.0,0.0,0.0,0.0,0.0,0.0,0.0,0.0,0.0,0.0,0.0,0.0,0.0,0.0,0.0,0.0,0.0,4.3509,4.3509,4.3674,4.3848,4.41,4.4202,4.4507,0.0,0.0,0.0,0.0,0.0,0.0,0.0,0.0,0.0,0.0,0.0,4.7165,4.7316,4.599,0.0,4.6086,4.5587,4.5338,4.5245,4.5208,4.4898,4.4439,4.3989,4.3705,4.3525,4.3355,4.3178,4.305,4.3012,4.2994,4.2975,0.0,0.0,0.0,4.29,4.288,0.0,0.0,4.2861,4.2785,4.2595,4.2709,4.2765,4.2456,4.2593,4.2747,4.2747,4.2804,4.2861,4.2881,4.2746,4.2709,4.2976,4.3213,4.3574,4.4188,4.4519,4.4943,4.5514,4.5768,4.6011,4.6285,4.5842,4.5601,4.56,4.5074,4.4468,4.3772,4.3746,4.323,4.2205,4.1665,4.1246,4.1,4.0638,4.0145,3.9584,3.8984,3.8423,3.7886,3.7612,3.751,3.7573,3.8239,3.8763,3.9138,3.9532,3.976,3.9854,0.0,0.0,0.0,0.0,0.0,0.0,0.0,0.0,0.0,0.0,0.0,0.0,0.0,0.0,0.0,0.0,0.0,0.0,0.0,0.0,0.0,4.3658,4.3822,4.4109,4.449,4.4756,4.5329,0.0,0.0,0.0,0.0,0.0,0.0,0.0,0.0,0.0,0.0,0.0,0.0,4.7464,0.0,4.7388,4.7477,4.7086,4.66,4.6175,4.6191,4.5612,4.4815,4.4561,4.4188,4.3825,4.3861,4.3589,4.3269,4.3251,4.3233,0.0,0.0,4.3214,4.3214,4.3214,4.316,4.3123,0.0,0.0,0.0,4.3069,4.3087,4.3068,4.2863,4.2901,4.2902,4.2739,4.294,4.3087,4.2978,4.2829,4.2882,4.332,4.3231,4.3542,4.4513,4.4503,4.4779,4.5583,4.5891,4.6113,4.6286,4.5818,4.5538,4.5548,4.4468,4.3779,4.3503,4.3503,4.2637,4.0887,4.0898,4.0902,4.0871,4.0252,3.968,3.9179,3.8574,3.8014,3.751,3.751,3.751,3.7557,3.8096,3.8529,3.8913,3.9342,3.9736,4.0045,3.7102,3.7477,0.0,0.0,0.0,0.0,0.0,0.0,0.0,0.0,0.0,0.0,0.0,0.0,0.0,0.0,0.0,0.0,4.4418,0.0,0.0,0.0,4.3998,4.4097,4.4167,4.4652,4.4947,0.0,0.0,0.0,0.0,0.0,0.0,0.0,4.7276,0.0,0.0,0.0,4.7718,0.0,4.842,4.7813,4.6874,4.671,4.6705,4.6844,4.7127,4.6746,4.6114,4.6188,4.5338,4.4259,4.4428,4.4014,4.3463,4.3394,4.3376,4.334,4.3233,4.3214,4.3214,4.3214,4.3178,4.3196,4.3196,0.0,4.3069,4.2657,0.0,4.3068,4.2619,0.0,0.0,4.2213,4.2704,4.2941,4.2249,4.2705,4.3142,4.3214,4.371,4.4117,4.4236,4.4881,4.5414,4.5751,4.6028,4.621,4.6295,4.5691,4.5321,4.5338,4.4175,4.3543,4.3506,4.349,4.2638,4.0889,4.0909,4.0907,4.0871,4.0084,3.9554,3.9179,3.8574,3.8014,3.751,3.751,3.751,3.7526,3.7589,3.835,3.9346,3.896,3.9617,4.0543,0.0,3.8397,0.0,0.0,0.0,0.0,0.0,0.0,0.0,0.0,0.0,0.0,0.0,0.0,0.0,0.0,0.0,4.4735,0.0,0.0,0.0,0.0,4.4338,4.4763,4.5135,4.5767,4.6196,4.6525,4.6994,0.0,0.0,0.0,0.0,0.0,4.7302,0.0,4.7302,0.0,4.7563,0.0,4.8214,4.805,4.7738,4.8315,4.8282,4.7899,4.7528,4.7239,4.7017,4.7108,4.653,4.5731,4.5533,4.4918,4.4189,4.3847,4.3634,4.3497,4.3444,4.3545,4.366,4.3583,4.3664,4.3744,4.3583,4.355,4.3497,4.3285,0.0,0.0,0.0,0.0,0.0,0.0,4.3206,4.3333,4.3091,4.333,4.3498,4.334,4.3615,4.3986,4.4498,4.5208,4.5605,4.5525,4.5896,4.6134,4.6137,4.5592,4.5304,4.5294,4.4124,4.3497,4.3505,4.2494,4.1623,4.0888,4.0909,4.0913,4.0893,4.0552,3.9834,3.8799,3.8132,3.7714,3.751,3.751,3.751,3.751,3.751,3.8135,3.906,3.9124,3.9623,4.027,0.0,0.0,0.0,0.0,0.0,0.0,0.0,0.0,0.0,0.0,0.0,0.0,4.2899,4.3429,0.0,0.0,4.4892,4.5125,4.5001,0.0,4.4899,0.0,0.0,0.0,0.0,4.659,4.7084,0.0,0.0,0.0,0.0,0.0,0.0,0.0,0.0,4.7407,4.7407,0.0,4.7582,4.7875,4.8174,4.8477,4.8817,4.9499,4.9465,4.8971,4.8345,4.8036,4.7946,4.8131,4.7632,4.693,4.6728,4.6056,4.53,4.4929,4.4535,4.4159,4.411,4.4051,4.3992,4.3851,4.3961,4.4033,4.3835,4.3804,4.3804,4.3804,4.3718,0.0,0.0,0.0,0.0,0.0,0.0,4.3609,4.349,4.3656,4.3721,4.3534,4.3681,4.4113,4.4854,4.5439,4.5667,4.5493,4.5797,4.5962,4.5916,4.553,4.5297,4.5307,4.413,4.3492,4.3496,4.1777,4.0884,4.0911,4.0914,4.0886,4.0883,4.0249,3.9484,3.8573,3.782,3.751,3.751,3.751,3.751,3.751,3.751,3.8088,3.8932,3.9187,3.9641,4.015,4.0351,4.0036,0.0,0.0,0.0,0.0,0.0,0.0,0.0,0.0,0.0,0.0,0.0,0.0,0.0,0.0,0.0,4.6737,4.6286,4.6418,4.6315,0.0,0.0,4.6074,0.0,4.6619,4.6908,0.0,0.0,0.0,0.0,0.0,0.0,0.0,4.7696,4.7696,4.7696,4.7696,4.8094,4.8764,4.8781,4.9214,4.9824,4.9537,4.965,4.9948,4.9929,4.9493,4.9015,4.9487,4.8632,4.7452,4.7895,4.7473,4.6834,4.6897,4.6309,4.5594,4.5406,4.4726,4.4048,4.3851,4.3804,4.3804,4.3804,4.3804,4.3804,4.3804,4.3788,4.3788,4.3788,0.0,0.0,0.0,0.0,0.0,0.0,4.3305,4.3788,4.3788,4.4236,4.4743,4.5247,4.5472,4.5706,4.5955,4.5817,4.5702,4.5708,4.5438,4.5299,4.5307,4.4132,4.3495,4.3496,4.178,4.0897,4.0918,4.0894,4.0886,4.0824,3.8619,3.7981,3.8573,3.782,3.751,3.751,3.751,3.751,3.751,3.751,3.8302,3.9409,3.8899,3.9588,4.0612,0.0,0.0,0.0,0.0,0.0,0.0,0.0,4.2539,0.0,0.0,4.305,0.0,0.0,4.4282,4.4903,0.0,0.0,4.6405,4.6242,4.6346,4.6213,4.5792,4.6238,4.6525,0.0,0.0,0.0,0.0,0.0,0.0,0.0,0.0,0.0,0.0,0.0,4.784,0.0,0.0,0.0,0.0,4.9132,4.9612,5.0018,4.9852,4.9879,5.0005,5.0057,4.9924,4.9771,4.9949,4.9548,4.891,4.8808,4.8334,4.7758,4.7373,4.6968,4.6614,4.6534,4.6463,4.6327,4.5952,4.5584,4.5233,4.4857,4.4353,4.3929,4.3929,4.3929,4.3929,4.3929,0.0,0.0,0.0,0.0,0.0,0.0,4.4084,4.4292,4.4393,4.4565,4.4878,4.5379,4.564,4.5898,4.6127,4.6063,4.5869,4.5465,4.5347,4.4934,4.4139,4.3715,4.3513,4.3514,4.1759,4.0897,4.0912,4.0906,4.0883,4.0826,3.8537,3.7633,3.7849,3.7599,3.751,3.751,3.751,3.751,3.751,3.751,3.8088,3.8932,3.8786,3.9339,4.0045,4.0489,0.0,0.0,0.0,0.0,0.0,4.2508,4.2743,4.2974,4.3246,4.3456,4.3693,4.4076,4.4635,4.5161,4.5554,4.6144,4.6501,4.6566,4.6607,4.6548,4.6358,4.6799,4.7107,4.7173,0.0,0.0,0.0,0.0,4.7759,0.0,0.0,0.0,0.0,0.0,4.7881,4.7902,4.7925,4.823,0.0,4.9491,4.9901,5.0095,5.0082,5.0063,5.0082,5.0133,5.0158,5.0182,5.0231,5.0095,4.9866,4.9613,4.9289,4.8951,4.8574,4.8162,4.7796,4.7757,4.7686,4.7536,4.7138,4.6781,4.6442,4.6096,4.5577,4.5165,4.5165,4.518,4.5119,4.4795,4.4876,0.0,0.0,0.0,0.0,0.0,4.4616,4.4701,4.4831,4.4837,4.4998,4.5387,4.5736,4.5939,4.5945,4.6105,4.5976,4.5466,4.5358,4.474,4.354,4.3503,4.3487,4.3494,4.1777,4.0907,4.0912,4.0895,4.0475,3.9644,3.817,3.7489,3.7494,3.7373,3.7373,3.748,3.7435,3.7435,3.7496,3.7553,3.8029,3.8688,3.8477,3.8766,3.919,4.0489,4.0524,0.0,4.0593,4.1156,4.1818,4.2508,4.3005,4.3306,4.3336,4.3752,4.4117,4.435,4.5054,4.5606,4.5837,4.6542,4.7066,4.7196,4.7272,4.7363,4.749,4.7636,4.7717,4.7717,4.7717,0.0,0.0,0.0,0.0,0.0,0.0,0.0,0.0,4.7902,0.0,4.7925,4.801,4.8458,4.9182,4.986,5.0108,5.012,5.0175,5.02,5.02,5.02,5.0255,5.0302,5.0302,5.0302,5.0302,5.0302,5.0302,5.0314,5.039,4.9819,4.9138,4.9018,4.8442,4.7785,4.7523,4.7416,4.7384,4.7384,4.7346,4.7308,4.7308,4.7358,4.7136,4.6265,4.6156,4.5927,0.0,0.0,0.0,0.0,4.4846,4.4976,4.511,4.5131,4.5179,4.5312,4.5741,4.587,4.5562,4.5924,4.6039,4.5725,4.5438,4.4753,4.3545,4.3495,4.3457,4.3366,4.1735,4.0901,4.0905,4.0888,3.9705,3.7486,3.7499,3.7492,3.7464,3.7145,3.7191,3.745,3.727,3.73,3.7484,3.7592,3.8069,3.8556,3.8059,3.8011,3.8202,4.0489,4.073,4.1107,4.1738,4.1704,4.1818,4.2508,4.3005,4.3426,4.3781,4.4214,4.4763,4.5354,4.5794,4.6119,4.6357,4.6772,4.7002,4.7043,4.7209,4.732,4.7363,4.7593,4.7717,4.7717,4.7717,4.7717,4.7717,0.0,0.0,4.7881,0.0,0.0,0.0,0.0,0.0,4.8346,4.8458,4.8951,4.9646,5.0082,5.0255,5.0255,5.0267,5.0278,5.0278,5.0278,5.029,5.0302,5.0302,5.0302,5.0302,5.0302,5.0302,5.0314,5.039,5.0281,5.0134,5.0155,5.0063,4.9872,4.9658,4.9089,4.8545,4.843,4.7907,4.746,4.746,4.7471,4.7215,4.6396,4.626,4.6009,0.0,0.0,0.0,0.0,4.5213,4.5333,4.5526,4.5497,4.5555,4.5794,4.5874,4.595,4.6017,4.5729,4.5657,4.591,4.5527,4.4739,4.3534,4.3498,4.2871,4.1585,4.1108,4.0902,4.0896,4.0907,3.9711,3.7513,3.7495,3.7344,3.7121,3.7055,3.7041,3.7121,3.706,3.709,3.7122,3.7057,3.7312,3.7816,3.8499,3.8538,3.8202,4.0953,4.1341,4.1803,4.2396,4.2459,4.26,4.3111,4.3604,4.4013,4.4271,4.4708,4.5213,4.5735,4.6038,4.6308,4.659,4.6842,4.7002,4.7088,4.7209,4.741,4.7648,4.785,4.8032,4.8173,4.8173,4.8113,4.797,0.0,0.0,4.7881,0.0,0.0,0.0,0.0,4.8092,4.8309,4.8746,4.9259,4.983,5.0156,5.0302,0.0,5.0302,5.0302,5.0302,5.0302,5.0302,5.0302,5.0302,5.0302,5.0302,5.0302,5.0355,5.0423,5.0404,5.0504,5.0645,5.0673,5.0739,5.0763,5.0676,5.0259,4.9842,4.9774,4.9378,4.9039,4.9039,4.9056,4.8822,4.7981,4.7533,4.6866,0.0,0.0,0.0,4.5486,4.5579,4.5672,4.5693,4.5794,4.593,4.6076,4.5898,4.5816,4.5933,4.558,4.5436,4.5635,4.5205,4.4496,4.3522,4.3505,4.2661,4.0933,4.0666,4.0655,4.0891,4.0663,3.932,3.7067,3.7054,3.7106,3.7201,3.6921,3.6844,3.6892,3.6877,3.6908,3.7001,3.7066,3.7327,3.7805,3.8204,3.8283,3.8202,4.1606,4.2094,4.2584,4.2939,4.3363,4.3794,4.4145,4.4485,4.4708,4.4708,4.5096,4.5511,4.5811,4.6062,4.6308,4.6637,4.6865,4.7066,4.7196,4.7254,4.7542,4.8094,4.823,4.8476,4.8799,4.8799,4.8641,4.8306,0.0,0.0,0.0,0.0,0.0,0.0,0.0,0.0,0.0,4.9001,4.9531,4.9884,5.0169,5.0302,5.0302,5.0337,5.0325,5.0302,5.0337,5.0325,5.0302,5.0302,5.0325,5.0329,5.0329,5.0467,5.0605,5.0506,5.0635,5.0835,5.0824,5.0875,5.0923,5.1016,5.1014,5.1008,5.1025,5.1031,5.1031,5.1031,5.1072,5.0855,4.9984,4.901,4.7842,4.6316,4.5937,4.579,4.5729,4.588,4.5939,4.5759,4.6005,0.0,4.621,4.5877,4.5641,4.5596,4.551,4.54,4.5281,4.4659,4.4028,4.3428,4.343,4.2693,4.1173,4.045,4.0335,4.0791,4.0327,3.8854,3.6509,3.6491,3.683,3.7326,3.6754,3.6584,3.6753,3.6708,3.677,3.694,3.7372,3.7664,3.7809,3.7433,3.7601,3.8052,4.211,4.2785,0.0,4.3877,4.4237,4.4652,4.5086,4.4889,4.4708,4.4708,4.5096,4.5589,4.6087,4.6161,4.6398,4.6888,4.6957,4.7066,4.7196,4.7254,4.7542,4.8094,4.823,4.8476,4.8799,4.8799,4.8641,4.8306,4.8306,0.0,0.0,0.0,0.0,0.0,0.0,0.0,4.9034,4.9721,5.0095,5.0224,5.0278,5.0302,5.0325,5.0485,5.0442,5.0325,5.0485,5.0432,5.0302,5.0302,5.0418,5.0557,5.0557,5.065,5.0767,5.0805,5.0884,5.0966,5.0953,5.0966,5.1002,5.1137,5.1079,5.1031,5.1141,5.1159,5.1159,5.1159,5.1163,5.0938,5.0116,4.8612,4.7393,4.7026,4.6418,4.5931,4.5863,4.5948,4.6013,4.6032,4.6035,4.6108,4.6269,4.6117,4.5905,4.5626,4.5676,4.5724,4.5689,4.4111,4.3129,4.3014,4.3017,4.2849,4.2549,4.0922,4.0156,4.0239,4.014,3.8846,3.6506,3.6513,3.6554,3.6662,3.6554,3.6523,3.6538,3.6538,3.6447,3.6447,3.7781,3.7417,3.6188,3.658,3.6944,3.7211,4.3139,0.0,0.0,4.4423,4.479,4.5123,4.5371,4.522,4.5069,4.5069,4.5389,4.5752,4.6161,4.6308,4.6637,4.7205,4.7249,4.7428,4.7793,4.7648,4.7919,4.8747,4.8641,4.8799,4.9374,4.9374,4.9102,4.8569,4.8766,4.8569,0.0,0.0,0.0,0.0,0.0,4.89,0.0,4.979,5.0149,5.0453,5.0453,5.0497,5.0577,5.067,5.0652,5.0577,5.067,5.0642,5.0548,5.0476,5.0577,5.0705,5.0705,5.0813,5.0953,5.0913,5.0997,5.1102,5.1108,5.1094,5.1137,5.1262,5.1255,5.1218,5.1291,5.1301,5.1293,5.1305,5.1301,5.1043,5.0154,4.893,4.7862,4.7336,4.6546,4.5989,4.5957,4.5976,4.6015,4.6031,4.5924,4.5946,4.6177,4.5971,4.5797,4.5666,4.5549,4.5489,4.5486,4.3839,4.2899,4.2904,4.1961,4.1454,4.147,4.0562,4.0109,4.01,4.01,3.8845,3.6503,3.6489,3.6507,3.6492,3.6507,3.6507,3.6507,3.6505,3.6845,3.7391,3.7421,3.7756,3.8009,3.6645,3.6485,3.6964,4.4145,4.4541,4.4862,4.4862,4.515,4.5397,4.5397,4.5397,4.5423,4.5476,4.5675,4.5938,4.6259,4.6525,4.6921,4.745,4.7582,4.7875,4.8365,4.8136,4.8403,4.9349,4.9106,4.923,4.9898,4.9912,4.9588,4.8952,4.9252,4.9057,4.8439,0.0,0.0,4.9021,4.9233,4.9472,4.9746,4.9819,5.0156,5.0634,5.0634,5.0705,5.0798,5.0855,5.0847,5.0817,5.0855,5.0862,5.0847,5.075,5.0772,5.0862,5.0862,5.0991,5.1118,5.1022,5.1113,5.1242,5.1238,5.1245,5.1265,5.1377,5.1407,5.1408,5.1376,5.1386,5.1386,5.138,5.1386,5.1152,5.0409,4.9569,4.8671,4.7725,4.6853,4.6211,4.6004,4.5994,4.5975,4.5947,4.5778,4.5744,4.5923,4.5692,4.5534,4.5544,4.5235,4.5081,4.5188,4.374,4.2907,4.2895,4.1076,4.0101,4.0109,4.01,4.0094,4.0094,3.9566,3.8338,3.6495,3.6507,3.6492,3.6492,3.6492,3.6491,3.6506,3.6513,3.7121,3.8025,3.753,3.8626,4.02,3.7652,3.6883,3.7127,4.4635,4.4998,4.5327,4.5327,4.5371,4.5397,4.5397,4.5397,4.5485,4.5727,4.5786,4.5988,4.6518,4.6852,4.7169,4.7472,4.7879,4.8196,4.8384,4.8476,4.8779,4.9365,4.9349,4.9518,4.9879,4.9912,4.975,4.9435,4.9411,4.9201,4.8864,4.8936,4.9021,4.912,4.9731,4.9968,4.9915,5.027,5.0558,5.0774,5.0774,5.0782,5.0813,5.0998,5.0952,5.0813,5.1005,5.1068,5.1062,5.1049,5.1056,5.1068,5.1068,5.1167,5.128,5.1277,5.1323,5.1372,5.1372,5.1381,5.1379,5.1404,5.1406,5.1386,5.1313,5.1304,5.1302,5.1306,5.1304,5.1281,5.1197,5.0479,4.9564,4.8631,4.7798,4.694,4.6044,4.5958,4.5924,4.5743,4.5667,4.5576,4.5473,4.538,4.5253,4.5093,4.4701,4.4688,4.5169,4.3749,4.2887,4.2893,4.1071,4.0098,4.0085,4.0107,4.0087,4.0077,3.7892,3.6705,3.6495,3.6507,3.6492,3.6492,3.6492,3.6505,3.6481,3.6496,3.6568,3.6915,3.9238,4.0278,4.048,4.0148,3.9173,3.776,4.5123,4.5274,4.5397,4.5397,4.5397,4.5528,4.5829,4.592,4.6133,4.6694,4.6519,4.6489,4.6858,4.7349,4.7731,4.8015,4.8309,4.864,4.8971,4.8952,4.915,4.9683,4.9521,4.9566,4.9879,4.9912,4.9783,4.9499,4.9636,4.9544,4.9277,4.9495,4.9721,4.9943,5.0225,5.0387,5.0452,5.0612,5.0793,5.0985,5.0985,5.1036,5.1106,5.1191,5.1162,5.1111,5.1191,5.1213,5.123,5.123,5.1222,5.1225,5.1225,5.1269,5.1314,5.1343,5.1345,5.1355,5.1397,5.1366,5.1345,5.1339,5.1337,5.1333,5.1301,5.1274,5.1258,5.1291,5.1274,5.1245,5.1239,5.053,4.9796,4.9395,4.8137,4.7031,4.6513,4.5982,4.5591,4.5423,4.5218,4.516,4.5264,4.511,4.4897,4.4668,4.4493,4.4377,4.4299,4.3411,4.2907,4.29,4.2184,4.1237,4.0107,4.0112,4.0097,4.0073,3.7652,3.6491,3.6491,3.6508,3.6492,3.6507,3.6504,3.65,3.6603,3.8251,3.8895,3.9011,4.0101,4.0493,4.0506,4.0506,4.0096,3.9445,4.5397,4.5397,4.5397,4.5397,4.5397,4.5589,4.6144,4.628,4.6578,4.7342,4.7252,4.7182,4.7349,4.7813,4.823,4.8477,4.873,4.9073,4.9461,4.9393,4.9514,4.9879,4.9683,4.9669,4.9879,4.9925,4.9852,4.9674,4.9866,4.986,4.9717,5.0,5.0268,5.0507,5.0567,5.0694,5.0884,5.0884,5.0985,5.1155,5.1155,5.122,5.13,5.13,5.1307,5.131,5.1323,5.1318,5.1304,5.1304,5.1293,5.1277,5.1288,5.1299,5.1273,5.134,5.1321,5.1308,5.1366,5.1337,5.1293,5.1279,5.1274,5.1272,5.1271,5.1226,5.1202,5.1258,5.1191,5.1147,5.1147,5.0586,5.0039,4.9723,4.8578,4.7492,4.6833,4.6129,4.555,4.5135,4.4927,4.4812,4.4872,4.4701,4.4474,4.4195,4.3979,4.3831,4.3714,4.3193,4.264,4.2093,4.2091,4.144,4.0101,4.0091,3.9731,3.9007,3.7324,3.6518,3.6492,3.6492,3.6507,3.649,3.6484,3.6958,3.7824,3.9709,4.0492,4.0517,4.0497,4.0489,4.0489,4.0489,4.0515,4.0492,4.5397,4.5397,4.5397,4.5397,4.5397,4.5598,4.6213,4.631,4.6601,4.7467,4.7879,4.8055,4.7992,4.8231,4.8477,4.8676,4.9123,4.9476,4.9678,4.9816,4.9879,4.9912,4.9912,4.9912,4.9912,4.9946,5.0031,5.0095,5.0095,5.0133,5.0188,5.0391,5.0497,5.0507,5.0711,5.0918,5.1099,5.1099,5.1171,5.1296,5.1296,5.13,5.1308,5.1302,5.1299,5.1303,5.1372,5.1364,5.1308,5.1308,5.1268,5.1206,5.1289,5.1248,5.1204,5.1204,5.1258,5.1292,5.1292,5.1306,5.1286,5.1222,5.1203,5.1198,5.1192,5.1202,5.1202,5.1202,5.1108,5.0993,5.0993,5.0835,5.0398,4.9535,4.9288,4.8567,4.6838,4.6477,4.5989,4.4919,4.48,4.4612,4.4166,4.4106,4.3999,4.3728,4.3014,4.2932,4.3662,4.3185,4.2047,4.0193,4.013,4.012,4.0102,4.0112,3.8892,3.6525,3.6495,3.6518,3.6492,3.6492,3.6505,3.6496,3.6496,3.801,4.0448,4.0497,4.0498,4.0489,4.0489,4.0489,4.0489,4.0489,4.0505,4.0505,4.5397,4.5397,4.5528,4.5879,4.5995,4.631,4.7186,4.7446,4.7738,4.8345,4.855,4.8623,4.8624,4.8696,4.882,4.9027,4.9273,4.9476,4.9692,4.983,4.9912,4.9912,4.9912,4.9912,4.9912,4.9925,4.9992,5.0095,5.0186,5.0353,5.0539,5.0518,5.0653,5.0916,5.0978,5.1097,5.1239,5.1239,5.1252,5.1304,5.1304,5.13,5.1305,5.134,5.1337,5.1304,5.1327,5.1326,5.1306,5.1306,5.1255,5.1202,5.1232,5.1243,5.1275,5.1275,5.1252,5.1229,5.1229,5.1226,5.122,5.121,5.12,5.1208,5.1208,5.1128,5.1022,5.0883,5.0835,5.0803,5.0803,5.075,5.0573,5.0202,4.9584,4.8851,4.8059,4.6852,4.5886,4.5469,4.4759,4.4265,4.4106,4.3936,4.3712,4.3442,4.3213,4.325,4.3679,4.2587,4.1382,4.0124,4.0099,4.0095,4.0086,4.0093,3.8885,3.651,3.6518,3.6492,3.6492,3.6488,3.6484,3.6619,3.8413,3.9694,4.0494,4.0495,4.0497,4.0489,4.0489,4.0489,4.0489,4.0489,4.0489,4.0489,4.5397,4.5572,4.5844,4.6175,4.6454,4.6945,4.7795,4.8035,4.8269,4.8768,4.8874,4.8909,4.8909,4.8909,4.9012,4.926,4.9352,4.9506,4.9745,4.9857,4.9912,4.9912,4.9912,4.9939,4.9999,5.0038,5.012,5.0291,5.0418,5.0566,5.075,5.072,5.0871,5.1105,5.115,5.1225,5.13,5.13,5.1292,5.1297,5.1311,5.1327,5.1343,5.1365,5.1347,5.1305,5.1296,5.1257,5.1207,5.1248,5.1147,5.1024,5.1099,5.1098,5.1098,5.1239,5.1226,5.121,5.121,5.1159,5.1128,5.1128,5.1075,5.1009,5.1009,5.0952,5.0863,5.0741,5.0652,5.0615,5.0615,5.0538,5.0458,5.0427,4.9843,4.9193,4.8598,4.7507,4.645,4.5582,4.4904,4.4352,4.3929,4.3763,4.3477,4.2995,4.279,4.2902,4.3367,4.2198,4.1064,4.0134,4.0102,4.0095,4.0094,3.9204,3.7982,3.6509,3.6508,3.6505,3.6489,3.6495,3.7044,3.8087,3.9789,4.0507,4.0498,4.0497,4.0489,4.0489,4.0489,4.0489,4.0489,4.0489,4.0489,4.0489,4.545,4.5928,4.6341,4.6406,4.6882,4.7452,4.8056,4.8153,4.8345,4.8838,4.8909,4.8909,4.8909,4.8909,4.9027,4.9384,4.9399,4.9551,4.9885,4.9912,4.9912,4.9906,4.9906,5.0012,5.0212,5.0271,5.0413,5.0632,5.0742,5.0805,5.0828,5.1011,5.1105,5.1122,5.1243,5.13,5.13,5.1304,5.1297,5.1301,5.1306,5.1345,5.1383,5.1321,5.1307,5.1299,5.1287,5.1157,5.1024,5.1125,5.0952,5.0722,5.0921,5.0855,5.0748,5.1069,5.1159,5.1159,5.1159,5.1075,5.0978,5.0978,5.0827,5.0696,5.0687,5.0687,5.0678,5.067,5.0577,5.0486,5.0486,5.0275,5.0145,5.0243,5.0038,4.954,4.8565,4.8288,4.7445,4.5519,4.5278,4.4844,4.3788,4.3622,4.3305,4.2548,4.1984,4.2013,4.2777,4.196,4.1065,4.0121,4.0104,4.012,4.0101,3.7728,3.6495,3.6497,3.6506,3.6587,3.6774,3.6773,3.8149,4.0513,4.0494,4.0514,4.0489,4.0489,4.0489,4.0489,4.0489,4.0489,4.0489,4.0489,4.0489,4.0489,4.6013,4.6454,4.6955,4.736,4.7695,4.8056,4.855,4.8678,4.8767,4.8873,4.8909,4.8909,4.8909,4.8909,4.9027,4.9384,4.9399,4.9551,4.9885,4.9912,4.9959,5.0114,5.0126,5.0193,5.0358,5.0427,5.0604,5.0905,5.0828,5.0933,5.1176,5.1134,5.115,5.1248,5.1292,5.13,5.1304,5.1307,5.1291,5.1306,5.1362,5.1367,5.132,5.1369,5.1304,5.1202,5.1111,5.1037,5.0988,5.0863,5.0772,5.0705,5.0758,5.075,5.0713,5.08,5.0816,5.0816,5.0816,5.0792,5.0767,5.0767,5.0741,5.067,5.0567,5.0538,5.0527,5.0421,5.0374,5.034,5.034,5.0302,5.0151,4.9828,4.9717,4.9453,4.8863,4.8224,4.7636,4.7146,4.6329,4.5693,4.5439,4.4305,4.3534,4.3333,4.2221,4.1633,4.1816,4.1377,4.0817,4.0121,4.0092,4.0101,4.0105,3.771,3.65,3.6489,3.6505,3.7587,3.9539,3.9539,3.991,4.0494,4.0492,4.0497,4.0489,4.0489,4.0489,4.0489,4.0489,4.0489,4.0489,4.0489,4.0489,4.0489,4.6548,4.7017,4.7515,4.7877,4.8231,4.855,4.8804,4.8874,4.8943,4.9029,4.9046,4.9062,4.9127,4.9127,4.927,4.9598,4.9503,4.9577,5.0012,5.0038,5.0107,5.0279,5.0279,5.0372,5.0587,5.0624,5.0786,5.1084,5.1041,5.1116,5.13,5.123,5.1234,5.13,5.131,5.1301,5.1304,5.1327,5.1348,5.1358,5.1387,5.1377,5.1345,5.1284,5.1205,5.1097,5.0925,5.0824,5.0771,5.0724,5.0615,5.0528,5.0596,5.0567,5.0508,5.0508,5.0596,5.0705,5.0705,5.0652,5.0596,5.0528,5.0508,5.0507,5.0432,5.041,5.0344,5.0113,5.0063,5.0006,4.987,4.979,4.9679,4.9487,4.9416,4.9265,4.8905,4.8481,4.7987,4.746,4.6856,4.6232,4.5511,4.472,4.3999,4.3456,4.2712,4.2059,4.1568,4.0949,4.0451,4.0121,4.0107,3.9566,3.8457,3.7138,3.7108,3.833,3.833,3.9095,4.0511,4.0507,4.0495,4.0495,4.0497,4.0489,4.0489,4.0489,4.0508,4.0521,4.0497,4.0508,4.0521,4.0497,4.0489,4.0489,4.7106,4.7599,4.8038,4.8192,4.8587,4.8909,4.8909,4.8926,4.9012,4.9181,4.9211,4.9292,4.9427,4.9442,4.9588,4.9923,4.9684,4.9731,5.0212,5.0236,5.0279,5.0436,5.0446,5.0567,5.0827,5.0859,5.0991,5.122,5.1261,5.13,5.13,5.1308,5.1296,5.1296,5.1311,5.1327,5.131,5.1376,5.1405,5.1405,5.1402,5.1379,5.1326,5.1147,5.1035,5.0939,5.0748,5.0596,5.0517,5.0615,5.0497,5.0306,5.038,5.0313,5.0212,5.0156,5.0301,5.0491,5.0548,5.0449,5.0286,5.0193,5.0144,5.0144,5.0144,5.0144,5.0063,4.9771,4.9716,4.9646,4.9345,4.9211,4.915,4.9209,4.9115,4.8969,4.8729,4.8711,4.8346,4.7332,4.7239,4.6718,4.5333,4.509,4.4573,4.3447,4.3187,4.2706,4.1869,4.0833,4.0435,4.0755,4.0779,3.9597,3.7121,3.71,3.8251,4.0501,4.0518,4.0507,4.0523,4.05,4.0489,4.0489,4.0489,4.0489,4.0489,4.0489,4.0495,4.0436,3.9958,4.006,4.0487,4.0489,4.0489,4.0489,4.7653,4.8115,4.8532,4.8678,4.8804,4.8909,4.8909,4.9046,4.9162,4.9214,4.9308,4.9442,4.9627,4.9655,4.9776,5.0123,5.0111,5.0159,5.035,5.0361,5.0455,5.0654,5.0644,5.0754,5.0969,5.1074,5.1181,5.1288,5.1296,5.13,5.13,5.1291,5.1291,5.1294,5.1364,5.1374,5.1395,5.1406,5.1405,5.1404,5.1394,5.1303,5.1137,5.1047,5.0898,5.0731,5.0587,5.0527,5.0486,5.0388,5.0329,5.0248,4.9987,4.9897,4.983,4.9541,4.9475,4.9589,4.9853,4.9719,4.9493,4.9468,4.9468,4.9468,4.9468,4.9468,4.9453,4.9394,4.9378,4.936,4.9299,4.9287,4.9161,4.885,4.8816,4.873,4.8363,4.8344,4.8308,4.8122,4.8064,4.7755,4.7063,4.5873,4.4906,4.4252,4.3117,4.2564,4.2853,4.1749,4.1959,4.3848,4.3902,4.2596,3.9908,3.9876,4.0101,4.0484,4.0511,4.0497,4.0497,4.0509,4.0489,4.0489,4.0489,4.0489,4.0489,4.0489,4.0501,4.0239,3.7506,3.8122,4.0512,4.0486,4.0489,4.0489,4.8307,4.8532,4.8732,4.8839,4.8874,4.8909,4.8909,4.9139,4.9358,4.9469,4.9665,4.9897,5.0062,5.0087,5.0183,5.0455,5.0476,5.0537,5.0672,5.0596,5.0644,5.0855,5.0833,5.0887,5.1056,5.115,5.1234,5.13,5.1294,5.1307,5.131,5.1332,5.1345,5.1366,5.1383,5.1406,5.1406,5.14,5.1393,5.139,5.1271,5.117,5.1075,5.0877,5.0703,5.0577,5.0442,5.0388,5.0377,5.0325,5.0302,5.0236,4.9916,4.9803,4.973,4.9409,4.9299,4.9329,4.9498,4.9424,4.9299,4.9299,4.9299,4.9299,4.9299,4.9299,4.9237,4.9064,4.9031,4.8984,4.8797,4.8763,4.8693,4.8514,4.8514,4.8476,4.8286,4.8267,4.8287,4.8247,4.7974,4.7527,4.6878,4.5934,4.5126,4.4548,4.3909,4.366,4.3902,4.2912,4.2587,4.312,4.2676,4.1789,4.051,4.0498,4.0492,4.0492,4.0497,4.0489,4.0489,4.0489,4.0489,4.0489,4.0489,4.0489,4.0489,4.0489,4.0489,4.0335,3.8862,3.9173,4.0497,4.0512,4.0489,4.0489,4.8769,4.8787,4.8857,4.8976,4.9008,4.904,4.9123,4.9378,4.9636,4.9798,5.0056,5.0298,5.0446,5.0457,5.0547,5.0738,5.0747,5.0799,5.0921,5.0841,5.0839,5.099,5.0984,5.1017,5.1116,5.1204,5.1273,5.132,5.1318,5.1312,5.1312,5.1377,5.1402,5.1403,5.1405,5.1401,5.14,5.1403,5.1367,5.133,5.1156,5.1044,5.094,5.0686,5.0528,5.0442,5.0329,5.0302,5.0302,5.0302,5.0248,5.0132,4.9803,4.9632,4.9498,4.9177,4.908,4.908,4.908,4.908,4.908,4.908,4.908,4.908,4.908,4.908,4.8999,4.8746,4.8676,4.8604,4.8363,4.8306,4.8287,4.8267,4.8287,4.8287,4.8229,4.8152,4.8055,4.7992,4.7485,4.69,4.622,4.5724,4.5232,4.4682,4.4468,4.4338,4.4338,4.337,4.2434,4.1582,4.0869,4.0494,4.0489,4.0489,4.0489,4.0489,4.0489,4.0489,4.0489,4.0489,4.0489,4.0489,4.0489,4.0489,4.0489,4.0489,4.0515,4.0492,4.0508,4.048,4.0462,4.0076,4.0174,4.0455,4.8769,4.8787,4.8909,4.9305,4.9355,4.9483,4.9771,5.0006,5.0159,5.0171,5.0286,5.0457,5.0664,5.0682,5.0718,5.0874,5.0882,5.0921,5.0983,5.0983,5.0983,5.0997,5.1118,5.1179,5.1186,5.1312,5.1394,5.1394,5.1396,5.1396,5.1397,5.1406,5.1405,5.1405,5.139,5.1398,5.1398,5.1394,5.1283,5.112,5.1103,5.0913,5.0632,5.0548,5.0432,5.0314,5.0302,5.0302,5.0302,5.0302,5.0088,4.9771,4.9453,4.9129,4.8816,4.8477,4.8364,4.8364,4.8364,4.8364,4.8364,4.8364,4.8364,4.8364,4.8364,4.8364,4.8364,4.8344,4.8344,4.8344,4.8306,4.8306,4.8267,4.8226,4.8267,4.8229,4.8052,4.7695,4.7428,4.7281,4.6746,4.6196,4.5792,4.5468,4.5178,4.4803,4.4042,4.3571,4.3571,4.2332,4.1311,4.0615,4.0547,4.0493,4.0489,4.0489,4.0489,4.0489,4.0489,4.0489,4.0489,4.0489,4.0489,4.0489,4.0489,4.0489,4.0489,4.0489,4.052,4.0501,4.0505,4.052,4.0335,3.882,3.9209,4.0301,4.911,4.9176,4.9286,4.9655,4.9702,4.9765,4.9873,5.013,5.0317,5.0317,5.0558,5.0735,5.0825,5.0825,5.085,5.0898,5.0977,5.103,5.106,5.1132,5.1178,5.1141,5.1206,5.1257,5.1257,5.1318,5.1351,5.1398,5.1405,5.1406,5.1406,5.1399,5.139,5.1409,5.1311,5.1284,5.1262,5.1178,5.1103,5.102,5.0865,5.0709,5.0577,5.0434,5.034,5.0302,5.0302,5.0302,5.0278,5.0063,4.9916,4.9702,4.9161,4.89,4.8729,4.8402,4.8306,4.8306,4.8306,4.8306,4.8306,4.8306,4.8306,4.8306,4.8306,4.8306,4.8306,4.8306,4.8306,4.8306,4.8306,4.8306,4.8286,4.8207,4.7935,4.7695,4.753,4.7106,4.6751,4.6653,4.6147,4.5699,4.5485,4.5115,4.4814,4.4682,4.4367,4.3972,4.3512,4.2237,4.1176,4.0524,4.0489,4.0489,4.0489,4.0489,4.0489,4.0489,4.0489,4.0489,4.0489,4.0489,4.0489,4.0489,4.0489,4.0489,4.0489,4.0489,4.0489,4.0489,4.0489,3.9893,3.9058,3.9441,3.9662,3.9728,4.9337,4.9411,4.9521,4.9943,5.0037,5.009,5.0206,5.0411,5.0558,5.0558,5.075,5.0898,5.0898,5.0944,5.0961,5.0956,5.107,5.1137,5.1155,5.1262,5.1301,5.1262,5.1316,5.1335,5.1335,5.1321,5.1346,5.1406,5.1403,5.1399,5.1399,5.1403,5.1386,5.133,5.1222,5.1159,5.1123,5.1016,5.0933,5.0862,5.0657,5.0548,5.0498,5.0344,5.0302,5.0302,5.0302,5.0302,5.0248,4.9897,4.973,4.9541,4.8984,4.8729,4.8586,4.8364,4.8306,4.8306,4.8306,4.8306,4.8306,4.8306,4.8306,4.8306,4.8306,4.8306,4.8306,4.8306,4.8306,4.8249,4.8113,4.8055,4.7955,4.777,4.736,4.7062,4.6927,4.6472,4.6088,4.6,4.5511,4.5205,4.5152,4.4814,4.4615,4.4654,4.4207,4.3545,4.2614,4.1673,4.0972,4.0524,4.0489,4.0489,4.0489,4.0489,4.0489,4.0489,4.0489,4.0489,4.0489,4.0489,4.0489,4.0489,4.0489,4.0489,4.0489,4.0489,4.0489,4.0489,4.0489,3.9843,3.8942,3.9526,3.9728,3.9692,4.9334,4.9416,4.9589,5.0199,5.0368,5.051,5.0855,5.0893,5.0898,5.0898,5.0898,5.0898,5.0898,5.1024,5.1097,5.1092,5.1167,5.1238,5.1295,5.1366,5.1406,5.1399,5.1406,5.1405,5.1405,5.1408,5.1394,5.1394,5.1394,5.1394,5.1394,5.1394,5.1327,5.1199,5.112,5.1054,5.0998,5.092,5.077,5.0596,5.0596,5.0477,5.0302,5.0302,5.0302,5.0302,5.0302,5.0302,5.0248,4.9916,4.957,4.9237,4.89,4.8587,4.8306,4.8306,4.8306,4.8306,4.8306,4.8306,4.8306,4.8306,4.8306,4.8306,4.8306,4.8306,4.8306,4.8306,4.8287,4.8152,4.7674,4.7488,4.7234,4.6758,4.6537,4.6377,4.6293,4.5825,4.5459,4.5303,4.4879,4.4654,4.4793,4.4682,4.4654,4.4776,4.3363,4.1917,4.0593,4.0489,4.0489,4.0489,4.0489,4.0489,4.0489,4.0489,4.0489,4.0489,4.0489,4.0489,4.0489,4.0489,4.0489,4.0489,4.0489,4.0489,4.0489,4.0489,4.0489,4.0489,4.0489,4.0489,4.0324,3.8689,3.9123,4.0266,4.9968,5.0061,5.0233,5.0644,5.0747,5.0771,5.0874,5.089,5.0898,5.0898,5.0898,5.094,5.103,5.1078,5.1123,5.1172,5.123,5.1304,5.1363,5.1394,5.139,5.1396,5.1391,5.1407,5.1407,5.1398,5.1394,5.1394,5.1394,5.1333,5.1199,5.1199,5.1126,5.0977,5.0867,5.0805,5.0789,5.0625,5.0507,5.0472,5.041,5.0344,5.0302,5.0302,5.0302,5.0302,5.0302,5.0302,5.0212,4.9646,4.9375,4.919,4.8641,4.8383,4.8306,4.8306,4.8306,4.8306,4.8306,4.8306,4.8306,4.8306,4.8306,4.8306,4.8306,4.8306,4.8306,4.8306,4.7957,4.7614,4.7488,4.7044,4.6635,4.6454,4.6032,4.5732,4.5597,4.5196,4.4852,4.4797,4.4709,4.4615,4.4654,4.4626,4.4395,4.3927,4.2583,4.1608,4.1209,4.0749,4.0489,4.0489,4.0489,4.0489,4.0489,4.0489,4.0489,4.0489,4.0489,4.0489,4.0489,4.0489,4.0489,4.0489,4.0489,4.0489,4.0489,4.0489,4.0489,4.0489,4.0489,4.05,4.0431,3.996,3.9728,3.9585,5.0267,5.0366,5.0499,5.0846,5.0897,5.0893,5.0898,5.0898,5.0914,5.0944,5.0949,5.1011,5.1132,5.1167,5.1206,5.1234,5.1307,5.136,5.1396,5.1394,5.1394,5.1394,5.1394,5.1394,5.1394,5.1394,5.141,5.1401,5.1325,5.1225,5.1103,5.1054,5.0945,5.0813,5.0711,5.0624,5.0577,5.0418,5.0348,5.0367,5.0314,5.0302,5.0302,5.0302,5.0302,5.0302,5.0302,5.0302,5.02,4.9527,4.911,4.8832,4.8421,4.8306,4.8306,4.8306,4.8306,4.8306,4.8306,4.8306,4.823,4.7997,4.8114,4.8306,4.8306,4.8267,4.819,4.7995,4.7614,4.7194,4.6796,4.6353,4.5982,4.5759,4.539,4.5115,4.5035,4.4786,4.4615,4.4615,4.4615,4.4615,4.4615,4.4338,4.3752,4.28,4.1949,4.1393,4.1125,4.0715,4.0489,4.0489,4.0489,4.0489,4.0489,4.0489,4.0489,4.0489,4.0489,4.0489,4.0489,4.0489,4.0489,4.0489,4.0489,4.0489,4.0489,4.0489,4.0489,4.0489,4.0489,4.0504,4.0492,4.0512,3.999,3.9356,5.0385,5.043,5.0529,5.0855,5.0909,5.0921,5.0929,5.0917,5.0954,5.1011,5.1058,5.1138,5.1191,5.1249,5.1304,5.1308,5.1356,5.139,5.139,5.139,5.139,5.1388,5.1388,5.1367,5.1364,5.1367,5.1374,5.1362,5.1191,5.1069,5.1039,5.0933,5.0798,5.0661,5.0605,5.0517,5.039,5.0325,5.0302,5.0302,5.0302,5.0302,5.0302,5.0302,5.0302,5.0302,5.0278,5.0267,5.0156,4.9483,4.8832,4.8306,4.8306,4.8306,4.8306,4.8306,4.8306,4.8287,4.8287,4.8287,4.8152,4.7593,4.7818,4.8191,4.8134,4.8131,4.7972,4.7424,4.7172,4.6774,4.5833,4.5537,4.5284,4.4841,4.4682,4.4615,4.4615,4.4615,4.4615,4.4615,4.4615,4.457,4.4514,4.3781,4.2831,4.1575,4.1459,4.1142,4.0524,4.0489,4.0489,4.0489,4.0489,4.0489,4.0489,4.0489,4.0489,4.0489,4.0489,4.0489,4.0489,4.0489,4.0489,4.0489,4.0489,4.0489,4.0489,4.0489,4.0489,4.0489,4.0489,4.0489,4.0489,4.0489,4.0041,3.9499,5.0784,5.078,5.0803,5.0882,5.1002,5.1069,5.106,5.1103,5.1144,5.1148,5.1163,5.1199,5.1271,5.1283,5.1328,5.1372,5.1384,5.1403,5.1403,5.1403,5.1375,5.1326,5.1214,5.1172,5.1176,5.1172,5.1167,5.1176,5.1014,5.0867,5.07,5.0675,5.0577,5.0377,5.0366,5.0352,5.0314,5.0302,5.0302,5.0302,5.0302,5.0302,5.0302,5.0302,5.0302,5.0278,4.9993,4.9916,4.9817,4.9129,4.8641,4.8306,4.8306,4.8306,4.8306,4.8306,4.8306,4.8287,4.8246,4.8226,4.8169,4.7933,4.7653,4.7324,4.6914,4.7128,4.7259,4.6733,4.6233,4.5808,4.5571,4.5142,4.4759,4.4654,4.4626,4.4615,4.4615,4.4615,4.4615,4.4615,4.4615,4.4367,4.381,4.2645,4.1804,4.1525,4.1024,4.0646,4.0489,4.0489,4.0489,4.0489,4.0489,4.0489,4.0489,4.0489,4.0489,4.0489,4.0489,4.0489,4.0489,4.0489,4.0489,4.0489,4.0489,4.0489,4.0489,4.0489,4.0489,4.0489,4.0489,4.0489,4.0489,4.0489,4.0385,4.0266,5.1007,5.1018,5.1041,5.1039,5.1093,5.1156,5.1139,5.1183,5.1216,5.1235,5.1254,5.1275,5.1347,5.1346,5.1356,5.1401,5.1403,5.1388,5.1353,5.1285,5.1241,5.1215,5.1088,5.0989,5.0966,5.0888,5.0888,5.0959,5.0828,5.0683,5.0548,5.0488,5.0391,5.0302,5.0302,5.0302,5.0302,5.0302,5.0302,5.0302,5.0302,5.0302,5.0302,5.0302,5.0302,5.0267,4.9929,4.9584,4.9271,4.8917,4.8568,4.8306,4.8306,4.8286,4.8247,4.8247,4.8208,4.8151,4.811,4.7913,4.765,4.7291,4.6968,4.6768,4.6796,4.6774,4.663,4.6088,4.5656,4.5346,4.5115,4.4814,4.4615,4.4615,4.4615,4.4615,4.4615,4.4615,4.4615,4.4615,4.4615,4.4179,4.3136,4.2395,4.1706,4.1091,4.0715,4.0489,4.0489,4.0489,4.0489,4.0489,4.0489,4.0489,4.0489,4.0489,4.0489,4.0489,4.0489,4.0489,4.0489,4.0489,4.0489,4.0489,4.0489,4.0489,4.0489,4.0489,4.0489,4.0489,4.0489,4.0489,4.0489,4.0489,4.0266,3.992,5.112,5.1156,5.1195,5.1197,5.121,5.1222,5.1216,5.1225,5.1258,5.1313,5.1326,5.1347,5.1381,5.1377,5.1344,5.1356,5.1319,5.1277,5.1219,5.1116,5.1033,5.1022,5.0913,5.0828,5.0742,5.0614,5.0614,5.0761,5.0614,5.0528,5.0455,5.0352,5.0302,5.0302,5.0302,5.0302,5.0302,5.0302,5.0302,5.0302,5.0302,5.0302,5.0302,5.0302,5.0259,5.0169,4.983,4.9287,4.8711,4.8711,4.8532,4.8287,4.8287,4.8247,4.8187,4.8168,4.809,4.7992,4.799,4.7588,4.7057,4.6531,4.6244,4.6269,4.6774,4.6489,4.5992,4.5433,4.5267,4.5062,4.4682,4.4615,4.4615,4.4615,4.4615,4.4615,4.4615,4.4615,4.4615,4.4615,4.4384,4.3739,4.2458,4.2237,4.1706,4.0578,4.0489,4.0489,4.0489,4.0489,4.0489,4.0489,4.0489,4.0489,4.0489,4.0489,4.0489,4.0489,4.0489,4.0489,4.0489,4.0489,4.0489,4.0489,4.0489,4.0489,4.0489,4.0489,4.0489,4.0489,4.0489,4.0489,4.0489,4.0489,3.999,3.932,5.1191,5.1183,5.1197,5.1193,5.1254,5.1297,5.1283,5.1347,5.1379,5.139,5.1387,5.1396,5.1394,5.1238,5.1147,5.1142,5.0985,5.0872,5.0877,5.0843,5.0805,5.0764,5.0686,5.0605,5.0538,5.041,5.041,5.0538,5.041,5.034,5.0337,5.0314,5.0302,5.0302,5.0302,5.0302,5.0302,5.0302,5.0302,5.0302,5.0302,5.0302,5.0302,5.0302,5.0132,4.983,4.9498,4.8951,4.8364,4.8364,4.8344,4.8287,4.8228,4.8207,4.8168,4.807,4.8012,4.799,4.7925,4.7515,4.7066,4.6863,4.6123,4.5459,4.5545,4.5494,4.5294,4.4814,4.4692,4.4682,4.4598,4.4615,4.4615,4.4615,4.4615,4.4615,4.4615,4.4615,4.4615,4.4615,4.3515,4.2489,4.1706,4.1109,4.0681,4.0524,4.0489,4.0489,4.0489,4.0489,4.0489,4.0489,4.0489,4.0489,4.0489,4.0489,4.0489,4.0489,4.0489,4.0489,4.0489,4.0489,4.0489,4.0489,4.0489,4.0489,4.0489,4.0489,4.0489,4.0489,4.0489,4.0489,4.0489,4.0489,3.999,3.9391,5.1254,5.1291,5.1302,5.1306,5.1348,5.1365,5.1361,5.1372,5.1373,5.1297,5.1265,5.1214,5.1186,5.107,5.0966,5.0946,5.0843,5.0774,5.0745,5.0668,5.0615,5.0596,5.0477,5.0413,5.0377,5.0317,5.0317,5.0396,5.0317,5.0302,5.0302,5.0302,5.0302,5.0302,5.0302,5.0302,5.0302,5.0302,5.0302,5.0302,5.0302,5.0302,5.029,5.0088,4.9929,4.973,4.9209,4.8711,4.8287,4.8267,4.8247,4.8228,4.813,4.8068,4.8006,4.7947,4.7886,4.7824,4.7801,4.7191,4.6543,4.6478,4.5683,4.4917,4.4917,4.4917,4.4852,4.4654,4.4615,4.4615,4.4615,4.4615,4.4615,4.4615,4.4615,4.4615,4.4615,4.4615,4.4615,4.4615,4.3693,4.28,4.2109,4.1459,4.0904,4.0524,4.0489,4.0489,4.0489,4.0489,4.0489,4.0489,4.0489,4.0489,4.0489,4.0489,4.0489,4.0489,4.0489,4.0489,4.0489,4.0489,4.0489,4.0489,4.0489,4.0489,4.0489,4.0489,4.0489,4.0489,4.0489,4.0489,4.0489,4.0489,3.999,3.9427]}]]